<?xml version="1.0" encoding="UTF-8" standalone="no" ?>
<gpx xmlns="http://www.topografix.com/GPX/1/1" xmlns:xsi="http://www.w3.org/2001/XMLSchema-instance" xsi:schemaLocation="http://www.topografix.com/GPX/1/1 http://www.topografix.com/GPX/1/1/gpx.xsd" version="1.1" creator="VisuGPX - https://www.visugpx.com">
  <metadata>
    <name>Pico El Cerrón y Pico Santuy, Sierra de Ayllón, por Cardoso de la Sierra</name>
    <desc><![CDATA[Ascensión al Pico Cerrón y de regreso al Santuy, desde Cardoso de la Sierra.]]></desc>
  </metadata>
  <wpt lat="41.09855" lon="-3.46398">
    <ele>1293</ele>
    <name><![CDATA[001_Inicio]]></name>
    <desc><![CDATA[Cardoso de la Sierra, calle Arriba]]></desc>
    <cmt><![CDATA[Cardoso de la Sierra, calle Arriba]]></cmt>
  </wpt>
  <wpt lat="41.09976" lon="-3.46139">
    <ele>1290.576538</ele>
    <name><![CDATA[002_DesvioIzqda]]></name>
  </wpt>
  <wpt lat="41.10229" lon="-3.46088">
    <ele>1342.246338</ele>
    <name><![CDATA[003_DesvioDrcha]]></name>
  </wpt>
  <wpt lat="41.10379" lon="-3.46017">
    <ele>1383.52356</ele>
    <name><![CDATA[004_]]></name>
  </wpt>
  <wpt lat="41.10759" lon="-3.45858">
    <ele>1476.471313</ele>
    <name><![CDATA[005_AltoIzqda]]></name>
  </wpt>
  <wpt lat="41.11234" lon="-3.45437">
    <ele>1681.798462</ele>
    <name><![CDATA[010]]></name>
  </wpt>
  <wpt lat="41.12978" lon="-3.46908">
    <ele>1863.997803</ele>
    <name><![CDATA[011]]></name>
  </wpt>
  <wpt lat="41.14381" lon="-3.47198">
    <ele>2004.252319</ele>
    <name><![CDATA[013_ColladoOrtigosa]]></name>
  </wpt>
  <wpt lat="41.15376" lon="-3.47412">
    <ele>2214.606934</ele>
    <name><![CDATA[014_ElCerrón]]></name>
  </wpt>
  <wpt lat="41.15129" lon="-3.47859">
    <ele>1969.974365</ele>
    <name><![CDATA[015_Pista]]></name>
  </wpt>
  <wpt lat="41.13012" lon="-3.46915">
    <ele>1853.116577</ele>
    <name><![CDATA[016_DesvioSantuy]]></name>
  </wpt>
  <wpt lat="41.12502" lon="-3.46822">
    <ele>1926.603271</ele>
    <name><![CDATA[017_CambioVertiente]]></name>
  </wpt>
  <wpt lat="41.12264" lon="-3.46844">
    <ele>1924.581421</ele>
    <name><![CDATA[018]]></name>
  </wpt>
  <wpt lat="41.12237" lon="-3.46857">
    <ele>1929.800293</ele>
    <name><![CDATA[019_CerroSantuy]]></name>
  </wpt>
  <wpt lat="41.11925" lon="-3.46533">
    <ele>1775.113037</ele>
    <name><![CDATA[020]]></name>
  </wpt>
  <wpt lat="41.1191" lon="-3.46482">
    <ele>1760.096191</ele>
    <name><![CDATA[021_Cruce]]></name>
  </wpt>
  <wpt lat="41.0986" lon="-3.4639">
    <ele>1288.067749</ele>
    <name><![CDATA[023_Fin]]></name>
  </wpt>
  <trk>
    <name><![CDATA[20140427_CerronSantuyxCardoso]]></name>
    <trkseg>
      <trkpt lat="41.09855" lon="-3.46398">
        <ele>1293.11</ele>
        <time>2014-04-27T05:59:08Z</time>
      </trkpt>
      <trkpt lat="41.09855" lon="-3.46399">
        <ele>1293.59</ele>
        <time>2014-04-27T05:59:20Z</time>
      </trkpt>
      <trkpt lat="41.09856" lon="-3.46394">
        <ele>1293.11</ele>
        <time>2014-04-27T05:59:24Z</time>
      </trkpt>
      <trkpt lat="41.0986" lon="-3.46391">
        <ele>1294.07</ele>
        <time>2014-04-27T05:59:27Z</time>
      </trkpt>
      <trkpt lat="41.09874" lon="-3.46378">
        <ele>1294.07</ele>
        <time>2014-04-27T05:59:43Z</time>
      </trkpt>
      <trkpt lat="41.09878" lon="-3.46372">
        <ele>1294.07</ele>
        <time>2014-04-27T06:00:00Z</time>
      </trkpt>
      <trkpt lat="41.09888" lon="-3.46354">
        <ele>1293.59</ele>
        <time>2014-04-27T06:00:10Z</time>
      </trkpt>
      <trkpt lat="41.09889" lon="-3.46348">
        <ele>1293.11</ele>
        <time>2014-04-27T06:00:14Z</time>
      </trkpt>
      <trkpt lat="41.09903" lon="-3.46318">
        <ele>1292.63</ele>
        <time>2014-04-27T06:00:34Z</time>
      </trkpt>
      <trkpt lat="41.09916" lon="-3.46285">
        <ele>1291.67</ele>
        <time>2014-04-27T06:00:55Z</time>
      </trkpt>
      <trkpt lat="41.09926" lon="-3.4626">
        <ele>1291.67</ele>
        <time>2014-04-27T06:01:11Z</time>
      </trkpt>
      <trkpt lat="41.09935" lon="-3.46233">
        <ele>1291.19</ele>
        <time>2014-04-27T06:01:29Z</time>
      </trkpt>
      <trkpt lat="41.09948" lon="-3.46204">
        <ele>1290.71</ele>
        <time>2014-04-27T06:01:47Z</time>
      </trkpt>
      <trkpt lat="41.09962" lon="-3.46174">
        <ele>1290.71</ele>
        <time>2014-04-27T06:02:06Z</time>
      </trkpt>
      <trkpt lat="41.09973" lon="-3.46145">
        <ele>1290.71</ele>
        <time>2014-04-27T06:02:23Z</time>
      </trkpt>
      <trkpt lat="41.09981" lon="-3.46134">
        <ele>1290.71</ele>
        <time>2014-04-27T06:02:32Z</time>
      </trkpt>
      <trkpt lat="41.09989" lon="-3.46137">
        <ele>1291.67</ele>
        <time>2014-04-27T06:02:46Z</time>
      </trkpt>
      <trkpt lat="41.09989" lon="-3.46138">
        <ele>1291.19</ele>
        <time>2014-04-27T06:02:48Z</time>
      </trkpt>
      <trkpt lat="41.09997" lon="-3.46141">
        <ele>1291.19</ele>
        <time>2014-04-27T06:02:55Z</time>
      </trkpt>
      <trkpt lat="41.10007" lon="-3.46143">
        <ele>1293.11</ele>
        <time>2014-04-27T06:03:03Z</time>
      </trkpt>
      <trkpt lat="41.1001" lon="-3.46146">
        <ele>1294.07</ele>
        <time>2014-04-27T06:03:06Z</time>
      </trkpt>
      <trkpt lat="41.10021" lon="-3.46151">
        <ele>1295.99</ele>
        <time>2014-04-27T06:03:16Z</time>
      </trkpt>
      <trkpt lat="41.10041" lon="-3.46157">
        <ele>1297.44</ele>
        <time>2014-04-27T06:03:31Z</time>
      </trkpt>
      <trkpt lat="41.10063" lon="-3.46167">
        <ele>1299.36</ele>
        <time>2014-04-27T06:03:47Z</time>
      </trkpt>
      <trkpt lat="41.10078" lon="-3.46175">
        <ele>1301.76</ele>
        <time>2014-04-27T06:03:59Z</time>
      </trkpt>
      <trkpt lat="41.10084" lon="-3.46179">
        <ele>1302.72</ele>
        <time>2014-04-27T06:04:04Z</time>
      </trkpt>
      <trkpt lat="41.10104" lon="-3.46192">
        <ele>1306.09</ele>
        <time>2014-04-27T06:04:21Z</time>
      </trkpt>
      <trkpt lat="41.1011" lon="-3.46195">
        <ele>1307.05</ele>
        <time>2014-04-27T06:04:26Z</time>
      </trkpt>
      <trkpt lat="41.10124" lon="-3.46207">
        <ele>1309.45</ele>
        <time>2014-04-27T06:04:40Z</time>
      </trkpt>
      <trkpt lat="41.10142" lon="-3.46212">
        <ele>1311.38</ele>
        <time>2014-04-27T06:04:55Z</time>
      </trkpt>
      <trkpt lat="41.10144" lon="-3.46212">
        <ele>1311.86</ele>
        <time>2014-04-27T06:04:56Z</time>
      </trkpt>
      <trkpt lat="41.10168" lon="-3.46214">
        <ele>1314.26</ele>
        <time>2014-04-27T06:05:14Z</time>
      </trkpt>
      <trkpt lat="41.10186" lon="-3.46214">
        <ele>1317.62</ele>
        <time>2014-04-27T06:05:28Z</time>
      </trkpt>
      <trkpt lat="41.10202" lon="-3.46213">
        <ele>1320.03</ele>
        <time>2014-04-27T06:05:40Z</time>
      </trkpt>
      <trkpt lat="41.10223" lon="-3.46209">
        <ele>1321.47</ele>
        <time>2014-04-27T06:05:58Z</time>
      </trkpt>
      <trkpt lat="41.10237" lon="-3.46208">
        <ele>1324.35</ele>
        <time>2014-04-27T06:06:10Z</time>
      </trkpt>
      <trkpt lat="41.10255" lon="-3.46208">
        <ele>1326.28</ele>
        <time>2014-04-27T06:06:24Z</time>
      </trkpt>
      <trkpt lat="41.10258" lon="-3.46208">
        <ele>1326.28</ele>
        <time>2014-04-27T06:06:26Z</time>
      </trkpt>
      <trkpt lat="41.10262" lon="-3.46207">
        <ele>1326.28</ele>
        <time>2014-04-27T06:06:30Z</time>
      </trkpt>
      <trkpt lat="41.10275" lon="-3.46207">
        <ele>1329.16</ele>
        <time>2014-04-27T06:06:41Z</time>
      </trkpt>
      <trkpt lat="41.10283" lon="-3.46206">
        <ele>1330.12</ele>
        <time>2014-04-27T06:06:48Z</time>
      </trkpt>
      <trkpt lat="41.10297" lon="-3.46203">
        <ele>1333.49</ele>
        <time>2014-04-27T06:07:02Z</time>
      </trkpt>
      <trkpt lat="41.10302" lon="-3.46201">
        <ele>1334.93</ele>
        <time>2014-04-27T06:07:07Z</time>
      </trkpt>
      <trkpt lat="41.10308" lon="-3.46198">
        <ele>1336.37</ele>
        <time>2014-04-27T06:07:13Z</time>
      </trkpt>
      <trkpt lat="41.10309" lon="-3.46191">
        <ele>1337.33</ele>
        <time>2014-04-27T06:07:17Z</time>
      </trkpt>
      <trkpt lat="41.10293" lon="-3.46169">
        <ele>1340.22</ele>
        <time>2014-04-27T06:07:34Z</time>
      </trkpt>
      <trkpt lat="41.1028" lon="-3.46157">
        <ele>1341.18</ele>
        <time>2014-04-27T06:07:47Z</time>
      </trkpt>
      <trkpt lat="41.10264" lon="-3.46148">
        <ele>1341.18</ele>
        <time>2014-04-27T06:07:59Z</time>
      </trkpt>
      <trkpt lat="41.10245" lon="-3.46132">
        <ele>1341.18</ele>
        <time>2014-04-27T06:08:16Z</time>
      </trkpt>
      <trkpt lat="41.10241" lon="-3.46128">
        <ele>1341.18</ele>
        <time>2014-04-27T06:08:20Z</time>
      </trkpt>
      <trkpt lat="41.10227" lon="-3.46111">
        <ele>1341.66</ele>
        <time>2014-04-27T06:08:35Z</time>
      </trkpt>
      <trkpt lat="41.10228" lon="-3.46108">
        <ele>1342.14</ele>
        <time>2014-04-27T06:08:38Z</time>
      </trkpt>
      <trkpt lat="41.10229" lon="-3.46098">
        <ele>1342.62</ele>
        <time>2014-04-27T06:08:44Z</time>
      </trkpt>
      <trkpt lat="41.10228" lon="-3.46087">
        <ele>1342.14</ele>
        <time>2014-04-27T06:21:17Z</time>
      </trkpt>
      <trkpt lat="41.10223" lon="-3.4607">
        <ele>1343.1</ele>
        <time>2014-04-27T06:21:30Z</time>
      </trkpt>
      <trkpt lat="41.10223" lon="-3.46068">
        <ele>1343.1</ele>
        <time>2014-04-27T06:21:31Z</time>
      </trkpt>
      <trkpt lat="41.10222" lon="-3.46059">
        <ele>1343.58</ele>
        <time>2014-04-27T06:21:36Z</time>
      </trkpt>
      <trkpt lat="41.10224" lon="-3.46053">
        <ele>1344.06</ele>
        <time>2014-04-27T06:21:47Z</time>
      </trkpt>
      <trkpt lat="41.10222" lon="-3.46047">
        <ele>1344.54</ele>
        <time>2014-04-27T06:21:51Z</time>
      </trkpt>
      <trkpt lat="41.10217" lon="-3.46025">
        <ele>1346.46</ele>
        <time>2014-04-27T06:22:07Z</time>
      </trkpt>
      <trkpt lat="41.10214" lon="-3.46014">
        <ele>1347.91</ele>
        <time>2014-04-27T06:22:13Z</time>
      </trkpt>
      <trkpt lat="41.10212" lon="-3.46006">
        <ele>1348.39</ele>
        <time>2014-04-27T06:22:18Z</time>
      </trkpt>
      <trkpt lat="41.10211" lon="-3.46">
        <ele>1349.35</ele>
        <time>2014-04-27T06:22:23Z</time>
      </trkpt>
      <trkpt lat="41.10213" lon="-3.45999">
        <ele>1349.83</ele>
        <time>2014-04-27T06:22:25Z</time>
      </trkpt>
      <trkpt lat="41.10221" lon="-3.46">
        <ele>1351.27</ele>
        <time>2014-04-27T06:22:36Z</time>
      </trkpt>
      <trkpt lat="41.10235" lon="-3.46003">
        <ele>1354.15</ele>
        <time>2014-04-27T06:22:50Z</time>
      </trkpt>
      <trkpt lat="41.10247" lon="-3.46008">
        <ele>1357.04</ele>
        <time>2014-04-27T06:23:03Z</time>
      </trkpt>
      <trkpt lat="41.10254" lon="-3.46012">
        <ele>1358.96</ele>
        <time>2014-04-27T06:23:11Z</time>
      </trkpt>
      <trkpt lat="41.10266" lon="-3.46018">
        <ele>1361.84</ele>
        <time>2014-04-27T06:23:23Z</time>
      </trkpt>
      <trkpt lat="41.10281" lon="-3.46023">
        <ele>1365.21</ele>
        <time>2014-04-27T06:23:36Z</time>
      </trkpt>
      <trkpt lat="41.10295" lon="-3.46025">
        <ele>1367.61</ele>
        <time>2014-04-27T06:23:49Z</time>
      </trkpt>
      <trkpt lat="41.10311" lon="-3.46028">
        <ele>1370.5</ele>
        <time>2014-04-27T06:24:04Z</time>
      </trkpt>
      <trkpt lat="41.10315" lon="-3.46028">
        <ele>1371.46</ele>
        <time>2014-04-27T06:24:07Z</time>
      </trkpt>
      <trkpt lat="41.1033" lon="-3.46025">
        <ele>1374.34</ele>
        <time>2014-04-27T06:24:20Z</time>
      </trkpt>
      <trkpt lat="41.10342" lon="-3.46021">
        <ele>1376.75</ele>
        <time>2014-04-27T06:24:32Z</time>
      </trkpt>
      <trkpt lat="41.1035" lon="-3.46019">
        <ele>1378.67</ele>
        <time>2014-04-27T06:24:40Z</time>
      </trkpt>
      <trkpt lat="41.10365" lon="-3.46016">
        <ele>1381.55</ele>
        <time>2014-04-27T06:24:54Z</time>
      </trkpt>
      <trkpt lat="41.10366" lon="-3.46016">
        <ele>1381.55</ele>
        <time>2014-04-27T06:24:55Z</time>
      </trkpt>
      <trkpt lat="41.10375" lon="-3.46019">
        <ele>1382.99</ele>
        <time>2014-04-27T06:25:08Z</time>
      </trkpt>
      <trkpt lat="41.10384" lon="-3.46015">
        <ele>1384.44</ele>
        <time>2014-04-27T06:25:23Z</time>
      </trkpt>
      <trkpt lat="41.10385" lon="-3.46015">
        <ele>1384.92</ele>
        <time>2014-04-27T06:25:24Z</time>
      </trkpt>
      <trkpt lat="41.10395" lon="-3.46014">
        <ele>1387.32</ele>
        <time>2014-04-27T06:25:35Z</time>
      </trkpt>
      <trkpt lat="41.10407" lon="-3.46011">
        <ele>1390.2</ele>
        <time>2014-04-27T06:25:54Z</time>
      </trkpt>
      <trkpt lat="41.10415" lon="-3.46008">
        <ele>1392.61</ele>
        <time>2014-04-27T06:26:06Z</time>
      </trkpt>
      <trkpt lat="41.10421" lon="-3.46005">
        <ele>1395.49</ele>
        <time>2014-04-27T06:26:15Z</time>
      </trkpt>
      <trkpt lat="41.10432" lon="-3.46">
        <ele>1398.86</ele>
        <time>2014-04-27T06:26:28Z</time>
      </trkpt>
      <trkpt lat="41.10439" lon="-3.45999">
        <ele>1400.3</ele>
        <time>2014-04-27T06:26:36Z</time>
      </trkpt>
      <trkpt lat="41.10445" lon="-3.45996">
        <ele>1402.22</ele>
        <time>2014-04-27T06:26:43Z</time>
      </trkpt>
      <trkpt lat="41.10449" lon="-3.45994">
        <ele>1402.7</ele>
        <time>2014-04-27T06:26:47Z</time>
      </trkpt>
      <trkpt lat="41.10454" lon="-3.45992">
        <ele>1404.14</ele>
        <time>2014-04-27T06:26:52Z</time>
      </trkpt>
      <trkpt lat="41.10461" lon="-3.45985">
        <ele>1406.07</ele>
        <time>2014-04-27T06:27:01Z</time>
      </trkpt>
      <trkpt lat="41.10466" lon="-3.45984">
        <ele>1407.03</ele>
        <time>2014-04-27T06:27:06Z</time>
      </trkpt>
      <trkpt lat="41.10468" lon="-3.45983">
        <ele>1407.51</ele>
        <time>2014-04-27T06:27:08Z</time>
      </trkpt>
      <trkpt lat="41.10481" lon="-3.45979">
        <ele>1410.39</ele>
        <time>2014-04-27T06:27:21Z</time>
      </trkpt>
      <trkpt lat="41.10482" lon="-3.45979">
        <ele>1410.39</ele>
        <time>2014-04-27T06:27:22Z</time>
      </trkpt>
      <trkpt lat="41.10485" lon="-3.45979">
        <ele>1410.39</ele>
        <time>2014-04-27T06:27:24Z</time>
      </trkpt>
      <trkpt lat="41.10495" lon="-3.45972">
        <ele>1412.31</ele>
        <time>2014-04-27T06:27:35Z</time>
      </trkpt>
      <trkpt lat="41.10497" lon="-3.4597">
        <ele>1412.79</ele>
        <time>2014-04-27T06:27:38Z</time>
      </trkpt>
      <trkpt lat="41.10499" lon="-3.45966">
        <ele>1413.76</ele>
        <time>2014-04-27T06:27:41Z</time>
      </trkpt>
      <trkpt lat="41.10512" lon="-3.45953">
        <ele>1416.64</ele>
        <time>2014-04-27T06:27:56Z</time>
      </trkpt>
      <trkpt lat="41.10519" lon="-3.4594">
        <ele>1419.52</ele>
        <time>2014-04-27T06:28:10Z</time>
      </trkpt>
      <trkpt lat="41.10523" lon="-3.45938">
        <ele>1420.49</ele>
        <time>2014-04-27T06:28:14Z</time>
      </trkpt>
      <trkpt lat="41.10526" lon="-3.45936">
        <ele>1421.45</ele>
        <time>2014-04-27T06:28:17Z</time>
      </trkpt>
      <trkpt lat="41.10539" lon="-3.45922">
        <ele>1424.33</ele>
        <time>2014-04-27T06:28:30Z</time>
      </trkpt>
      <trkpt lat="41.10549" lon="-3.45909">
        <ele>1427.21</ele>
        <time>2014-04-27T06:28:44Z</time>
      </trkpt>
      <trkpt lat="41.10558" lon="-3.459">
        <ele>1430.58</ele>
        <time>2014-04-27T06:28:56Z</time>
      </trkpt>
      <trkpt lat="41.10569" lon="-3.45889">
        <ele>1433.46</ele>
        <time>2014-04-27T06:29:10Z</time>
      </trkpt>
      <trkpt lat="41.10582" lon="-3.45883">
        <ele>1436.35</ele>
        <time>2014-04-27T06:29:24Z</time>
      </trkpt>
      <trkpt lat="41.10592" lon="-3.45881">
        <ele>1438.27</ele>
        <time>2014-04-27T06:29:37Z</time>
      </trkpt>
      <trkpt lat="41.10604" lon="-3.45882">
        <ele>1440.67</ele>
        <time>2014-04-27T06:29:50Z</time>
      </trkpt>
      <trkpt lat="41.10616" lon="-3.45879">
        <ele>1442.6</ele>
        <time>2014-04-27T06:30:01Z</time>
      </trkpt>
      <trkpt lat="41.10627" lon="-3.45882">
        <ele>1445.48</ele>
        <time>2014-04-27T06:30:14Z</time>
      </trkpt>
      <trkpt lat="41.10638" lon="-3.45884">
        <ele>1447.4</ele>
        <time>2014-04-27T06:30:27Z</time>
      </trkpt>
      <trkpt lat="41.10647" lon="-3.45883">
        <ele>1449.32</ele>
        <time>2014-04-27T06:30:37Z</time>
      </trkpt>
      <trkpt lat="41.1065" lon="-3.45883">
        <ele>1450.29</ele>
        <time>2014-04-27T06:30:41Z</time>
      </trkpt>
      <trkpt lat="41.10666" lon="-3.45884">
        <ele>1453.65</ele>
        <time>2014-04-27T06:30:55Z</time>
      </trkpt>
      <trkpt lat="41.1068" lon="-3.45884">
        <ele>1457.02</ele>
        <time>2014-04-27T06:31:09Z</time>
      </trkpt>
      <trkpt lat="41.10692" lon="-3.45887">
        <ele>1459.42</ele>
        <time>2014-04-27T06:31:22Z</time>
      </trkpt>
      <trkpt lat="41.10703" lon="-3.45889">
        <ele>1462.78</ele>
        <time>2014-04-27T06:31:33Z</time>
      </trkpt>
      <trkpt lat="41.10715" lon="-3.4589">
        <ele>1465.67</ele>
        <time>2014-04-27T06:31:45Z</time>
      </trkpt>
      <trkpt lat="41.10721" lon="-3.45891">
        <ele>1466.63</ele>
        <time>2014-04-27T06:31:51Z</time>
      </trkpt>
      <trkpt lat="41.1073" lon="-3.45891">
        <ele>1468.07</ele>
        <time>2014-04-27T06:32:00Z</time>
      </trkpt>
      <trkpt lat="41.10743" lon="-3.45886">
        <ele>1471.92</ele>
        <time>2014-04-27T06:32:11Z</time>
      </trkpt>
      <trkpt lat="41.10757" lon="-3.45881">
        <ele>1473.84</ele>
        <time>2014-04-27T06:32:25Z</time>
      </trkpt>
      <trkpt lat="41.1077" lon="-3.45873">
        <ele>1476.72</ele>
        <time>2014-04-27T06:32:39Z</time>
      </trkpt>
      <trkpt lat="41.10773" lon="-3.45873">
        <ele>1476.72</ele>
        <time>2014-04-27T06:32:55Z</time>
      </trkpt>
      <trkpt lat="41.10772" lon="-3.45873">
        <ele>1473.84</ele>
        <time>2014-04-27T06:33:00Z</time>
      </trkpt>
      <trkpt lat="41.10773" lon="-3.4587">
        <ele>1477.2</ele>
        <time>2014-04-27T06:33:14Z</time>
      </trkpt>
      <trkpt lat="41.10774" lon="-3.45871">
        <ele>1476.24</ele>
        <time>2014-04-27T06:33:36Z</time>
      </trkpt>
      <trkpt lat="41.10755" lon="-3.45855">
        <ele>1476.24</ele>
        <time>2014-04-27T06:33:50Z</time>
      </trkpt>
      <trkpt lat="41.10751" lon="-3.45853">
        <ele>1478.16</ele>
        <time>2014-04-27T06:33:54Z</time>
      </trkpt>
      <trkpt lat="41.10741" lon="-3.45843">
        <ele>1480.57</ele>
        <time>2014-04-27T06:34:06Z</time>
      </trkpt>
      <trkpt lat="41.10735" lon="-3.4583">
        <ele>1482.01</ele>
        <time>2014-04-27T06:34:17Z</time>
      </trkpt>
      <trkpt lat="41.10732" lon="-3.45827">
        <ele>1482.49</ele>
        <time>2014-04-27T06:34:20Z</time>
      </trkpt>
      <trkpt lat="41.1073" lon="-3.45822">
        <ele>1482.97</ele>
        <time>2014-04-27T06:34:24Z</time>
      </trkpt>
      <trkpt lat="41.10724" lon="-3.45809">
        <ele>1484.41</ele>
        <time>2014-04-27T06:34:33Z</time>
      </trkpt>
      <trkpt lat="41.1072" lon="-3.45806">
        <ele>1485.37</ele>
        <time>2014-04-27T06:34:37Z</time>
      </trkpt>
      <trkpt lat="41.10718" lon="-3.458">
        <ele>1486.34</ele>
        <time>2014-04-27T06:34:42Z</time>
      </trkpt>
      <trkpt lat="41.10708" lon="-3.45779">
        <ele>1489.22</ele>
        <time>2014-04-27T06:34:58Z</time>
      </trkpt>
      <trkpt lat="41.10706" lon="-3.45777">
        <ele>1489.22</ele>
        <time>2014-04-27T06:35:00Z</time>
      </trkpt>
      <trkpt lat="41.10703" lon="-3.45771">
        <ele>1490.18</ele>
        <time>2014-04-27T06:35:04Z</time>
      </trkpt>
      <trkpt lat="41.107" lon="-3.45764">
        <ele>1490.66</ele>
        <time>2014-04-27T06:35:10Z</time>
      </trkpt>
      <trkpt lat="41.10689" lon="-3.45746">
        <ele>1492.1</ele>
        <time>2014-04-27T06:35:26Z</time>
      </trkpt>
      <trkpt lat="41.10682" lon="-3.45736">
        <ele>1492.1</ele>
        <time>2014-04-27T06:35:35Z</time>
      </trkpt>
      <trkpt lat="41.10679" lon="-3.45731">
        <ele>1495.47</ele>
        <time>2014-04-27T06:35:40Z</time>
      </trkpt>
      <trkpt lat="41.10672" lon="-3.45717">
        <ele>1498.35</ele>
        <time>2014-04-27T06:35:53Z</time>
      </trkpt>
      <trkpt lat="41.10671" lon="-3.45714">
        <ele>1498.35</ele>
        <time>2014-04-27T06:35:56Z</time>
      </trkpt>
      <trkpt lat="41.10661" lon="-3.457">
        <ele>1500.76</ele>
        <time>2014-04-27T06:36:10Z</time>
      </trkpt>
      <trkpt lat="41.10653" lon="-3.45687">
        <ele>1503.16</ele>
        <time>2014-04-27T06:36:22Z</time>
      </trkpt>
      <trkpt lat="41.1065" lon="-3.4568">
        <ele>1503.64</ele>
        <time>2014-04-27T06:36:28Z</time>
      </trkpt>
      <trkpt lat="41.10647" lon="-3.45674">
        <ele>1505.08</ele>
        <time>2014-04-27T06:36:33Z</time>
      </trkpt>
      <trkpt lat="41.10642" lon="-3.45665">
        <ele>1506.04</ele>
        <time>2014-04-27T06:36:41Z</time>
      </trkpt>
      <trkpt lat="41.1064" lon="-3.45659">
        <ele>1507</ele>
        <time>2014-04-27T06:36:46Z</time>
      </trkpt>
      <trkpt lat="41.1063" lon="-3.45648">
        <ele>1508.45</ele>
        <time>2014-04-27T06:36:56Z</time>
      </trkpt>
      <trkpt lat="41.10622" lon="-3.45638">
        <ele>1510.37</ele>
        <time>2014-04-27T06:37:06Z</time>
      </trkpt>
      <trkpt lat="41.10621" lon="-3.45628">
        <ele>1513.25</ele>
        <time>2014-04-27T06:37:16Z</time>
      </trkpt>
      <trkpt lat="41.10624" lon="-3.45628">
        <ele>1512.77</ele>
        <time>2014-04-27T06:37:24Z</time>
      </trkpt>
      <trkpt lat="41.10627" lon="-3.45629">
        <ele>1513.25</ele>
        <time>2014-04-27T06:37:28Z</time>
      </trkpt>
      <trkpt lat="41.10635" lon="-3.45624">
        <ele>1515.18</ele>
        <time>2014-04-27T06:37:38Z</time>
      </trkpt>
      <trkpt lat="41.10638" lon="-3.45625">
        <ele>1515.66</ele>
        <time>2014-04-27T06:37:41Z</time>
      </trkpt>
      <trkpt lat="41.1064" lon="-3.45626">
        <ele>1516.14</ele>
        <time>2014-04-27T06:37:44Z</time>
      </trkpt>
      <trkpt lat="41.10649" lon="-3.45626">
        <ele>1517.58</ele>
        <time>2014-04-27T06:37:51Z</time>
      </trkpt>
      <trkpt lat="41.10654" lon="-3.45627">
        <ele>1519.02</ele>
        <time>2014-04-27T06:37:57Z</time>
      </trkpt>
      <trkpt lat="41.10661" lon="-3.45623">
        <ele>1519.98</ele>
        <time>2014-04-27T06:38:04Z</time>
      </trkpt>
      <trkpt lat="41.10673" lon="-3.45628">
        <ele>1522.87</ele>
        <time>2014-04-27T06:38:17Z</time>
      </trkpt>
      <trkpt lat="41.10677" lon="-3.45626">
        <ele>1523.83</ele>
        <time>2014-04-27T06:38:20Z</time>
      </trkpt>
      <trkpt lat="41.10681" lon="-3.4562">
        <ele>1525.27</ele>
        <time>2014-04-27T06:38:25Z</time>
      </trkpt>
      <trkpt lat="41.10681" lon="-3.45611">
        <ele>1526.23</ele>
        <time>2014-04-27T06:38:30Z</time>
      </trkpt>
      <trkpt lat="41.10681" lon="-3.45608">
        <ele>1526.71</ele>
        <time>2014-04-27T06:38:32Z</time>
      </trkpt>
      <trkpt lat="41.10677" lon="-3.45602">
        <ele>1528.15</ele>
        <time>2014-04-27T06:38:38Z</time>
      </trkpt>
      <trkpt lat="41.10663" lon="-3.45589">
        <ele>1530.08</ele>
        <time>2014-04-27T06:38:53Z</time>
      </trkpt>
      <trkpt lat="41.10661" lon="-3.45588">
        <ele>1530.56</ele>
        <time>2014-04-27T06:38:55Z</time>
      </trkpt>
      <trkpt lat="41.10656" lon="-3.45579">
        <ele>1532</ele>
        <time>2014-04-27T06:39:03Z</time>
      </trkpt>
      <trkpt lat="41.10645" lon="-3.45565">
        <ele>1534.4</ele>
        <time>2014-04-27T06:39:16Z</time>
      </trkpt>
      <trkpt lat="41.10641" lon="-3.4556">
        <ele>1535.36</ele>
        <time>2014-04-27T06:39:21Z</time>
      </trkpt>
      <trkpt lat="41.10646" lon="-3.4555">
        <ele>1537.77</ele>
        <time>2014-04-27T06:39:32Z</time>
      </trkpt>
      <trkpt lat="41.10656" lon="-3.45544">
        <ele>1540.65</ele>
        <time>2014-04-27T06:39:45Z</time>
      </trkpt>
      <trkpt lat="41.10668" lon="-3.45538">
        <ele>1542.57</ele>
        <time>2014-04-27T06:39:59Z</time>
      </trkpt>
      <trkpt lat="41.10681" lon="-3.45531">
        <ele>1544.5</ele>
        <time>2014-04-27T06:40:13Z</time>
      </trkpt>
      <trkpt lat="41.10686" lon="-3.4553">
        <ele>1546.42</ele>
        <time>2014-04-27T06:40:19Z</time>
      </trkpt>
      <trkpt lat="41.10693" lon="-3.45529">
        <ele>1547.38</ele>
        <time>2014-04-27T06:40:26Z</time>
      </trkpt>
      <trkpt lat="41.10705" lon="-3.45528">
        <ele>1549.78</ele>
        <time>2014-04-27T06:40:39Z</time>
      </trkpt>
      <trkpt lat="41.10707" lon="-3.45528">
        <ele>1550.26</ele>
        <time>2014-04-27T06:40:41Z</time>
      </trkpt>
      <trkpt lat="41.1072" lon="-3.45527">
        <ele>1553.15</ele>
        <time>2014-04-27T06:40:53Z</time>
      </trkpt>
      <trkpt lat="41.10728" lon="-3.45528">
        <ele>1554.59</ele>
        <time>2014-04-27T06:41:02Z</time>
      </trkpt>
      <trkpt lat="41.10744" lon="-3.45531">
        <ele>1557.95</ele>
        <time>2014-04-27T06:41:16Z</time>
      </trkpt>
      <trkpt lat="41.10747" lon="-3.45532">
        <ele>1559.4</ele>
        <time>2014-04-27T06:41:19Z</time>
      </trkpt>
      <trkpt lat="41.10754" lon="-3.45532">
        <ele>1562.76</ele>
        <time>2014-04-27T06:41:25Z</time>
      </trkpt>
      <trkpt lat="41.10755" lon="-3.45532">
        <ele>1562.28</ele>
        <time>2014-04-27T06:41:26Z</time>
      </trkpt>
      <trkpt lat="41.10771" lon="-3.45535">
        <ele>1561.8</ele>
        <time>2014-04-27T06:41:40Z</time>
      </trkpt>
      <trkpt lat="41.10786" lon="-3.45539">
        <ele>1564.2</ele>
        <time>2014-04-27T06:41:54Z</time>
      </trkpt>
      <trkpt lat="41.10798" lon="-3.4554">
        <ele>1567.57</ele>
        <time>2014-04-27T06:42:04Z</time>
      </trkpt>
      <trkpt lat="41.10807" lon="-3.45542">
        <ele>1570.45</ele>
        <time>2014-04-27T06:42:13Z</time>
      </trkpt>
      <trkpt lat="41.10819" lon="-3.45544">
        <ele>1572.85</ele>
        <time>2014-04-27T06:42:26Z</time>
      </trkpt>
      <trkpt lat="41.10832" lon="-3.45544">
        <ele>1574.3</ele>
        <time>2014-04-27T06:42:38Z</time>
      </trkpt>
      <trkpt lat="41.10848" lon="-3.45548">
        <ele>1576.22</ele>
        <time>2014-04-27T06:42:52Z</time>
      </trkpt>
      <trkpt lat="41.10852" lon="-3.4555">
        <ele>1576.7</ele>
        <time>2014-04-27T06:42:56Z</time>
      </trkpt>
      <trkpt lat="41.10856" lon="-3.45551">
        <ele>1577.18</ele>
        <time>2014-04-27T06:43:00Z</time>
      </trkpt>
      <trkpt lat="41.10874" lon="-3.45555">
        <ele>1579.58</ele>
        <time>2014-04-27T06:43:17Z</time>
      </trkpt>
      <trkpt lat="41.10888" lon="-3.45558">
        <ele>1582.47</ele>
        <time>2014-04-27T06:43:32Z</time>
      </trkpt>
      <trkpt lat="41.109" lon="-3.45561">
        <ele>1584.87</ele>
        <time>2014-04-27T06:43:44Z</time>
      </trkpt>
      <trkpt lat="41.10902" lon="-3.45561">
        <ele>1585.35</ele>
        <time>2014-04-27T06:43:47Z</time>
      </trkpt>
      <trkpt lat="41.10916" lon="-3.45566">
        <ele>1588.72</ele>
        <time>2014-04-27T06:44:03Z</time>
      </trkpt>
      <trkpt lat="41.10928" lon="-3.45571">
        <ele>1590.64</ele>
        <time>2014-04-27T06:44:18Z</time>
      </trkpt>
      <trkpt lat="41.1094" lon="-3.45574">
        <ele>1593.52</ele>
        <time>2014-04-27T06:44:32Z</time>
      </trkpt>
      <trkpt lat="41.10941" lon="-3.45574">
        <ele>1593.52</ele>
        <time>2014-04-27T06:44:33Z</time>
      </trkpt>
      <trkpt lat="41.10946" lon="-3.45575">
        <ele>1594.96</ele>
        <time>2014-04-27T06:44:39Z</time>
      </trkpt>
      <trkpt lat="41.10958" lon="-3.45578">
        <ele>1597.37</ele>
        <time>2014-04-27T06:44:51Z</time>
      </trkpt>
      <trkpt lat="41.10959" lon="-3.45579">
        <ele>1597.37</ele>
        <time>2014-04-27T06:44:52Z</time>
      </trkpt>
      <trkpt lat="41.10973" lon="-3.45584">
        <ele>1598.81</ele>
        <time>2014-04-27T06:45:06Z</time>
      </trkpt>
      <trkpt lat="41.10975" lon="-3.45586">
        <ele>1600.73</ele>
        <time>2014-04-27T06:45:09Z</time>
      </trkpt>
      <trkpt lat="41.10977" lon="-3.45587">
        <ele>1600.73</ele>
        <time>2014-04-27T06:45:11Z</time>
      </trkpt>
      <trkpt lat="41.10983" lon="-3.45593">
        <ele>1604.1</ele>
        <time>2014-04-27T06:45:20Z</time>
      </trkpt>
      <trkpt lat="41.10993" lon="-3.45598">
        <ele>1605.06</ele>
        <time>2014-04-27T06:45:32Z</time>
      </trkpt>
      <trkpt lat="41.11006" lon="-3.45605">
        <ele>1607.46</ele>
        <time>2014-04-27T06:45:46Z</time>
      </trkpt>
      <trkpt lat="41.11012" lon="-3.45606">
        <ele>1608.9</ele>
        <time>2014-04-27T06:45:53Z</time>
      </trkpt>
      <trkpt lat="41.11017" lon="-3.4561">
        <ele>1609.38</ele>
        <time>2014-04-27T06:45:58Z</time>
      </trkpt>
      <trkpt lat="41.11023" lon="-3.45611">
        <ele>1610.35</ele>
        <time>2014-04-27T06:46:03Z</time>
      </trkpt>
      <trkpt lat="41.11037" lon="-3.45616">
        <ele>1613.71</ele>
        <time>2014-04-27T06:46:17Z</time>
      </trkpt>
      <trkpt lat="41.11044" lon="-3.45618">
        <ele>1616.59</ele>
        <time>2014-04-27T06:46:25Z</time>
      </trkpt>
      <trkpt lat="41.11049" lon="-3.4562">
        <ele>1617.07</ele>
        <time>2014-04-27T06:46:32Z</time>
      </trkpt>
      <trkpt lat="41.11056" lon="-3.45623">
        <ele>1619</ele>
        <time>2014-04-27T06:46:40Z</time>
      </trkpt>
      <trkpt lat="41.11068" lon="-3.45627">
        <ele>1620.44</ele>
        <time>2014-04-27T06:46:54Z</time>
      </trkpt>
      <trkpt lat="41.1107" lon="-3.45627">
        <ele>1621.88</ele>
        <time>2014-04-27T06:46:57Z</time>
      </trkpt>
      <trkpt lat="41.11087" lon="-3.45632">
        <ele>1624.28</ele>
        <time>2014-04-27T06:47:15Z</time>
      </trkpt>
      <trkpt lat="41.11089" lon="-3.45633">
        <ele>1624.77</ele>
        <time>2014-04-27T06:47:17Z</time>
      </trkpt>
      <trkpt lat="41.11097" lon="-3.45637">
        <ele>1626.21</ele>
        <time>2014-04-27T06:47:28Z</time>
      </trkpt>
      <trkpt lat="41.1111" lon="-3.45637">
        <ele>1629.09</ele>
        <time>2014-04-27T06:47:43Z</time>
      </trkpt>
      <trkpt lat="41.11111" lon="-3.45636">
        <ele>1629.57</ele>
        <time>2014-04-27T06:47:44Z</time>
      </trkpt>
      <trkpt lat="41.11113" lon="-3.45634">
        <ele>1629.57</ele>
        <time>2014-04-27T06:47:46Z</time>
      </trkpt>
      <trkpt lat="41.11115" lon="-3.45618">
        <ele>1631.01</ele>
        <time>2014-04-27T06:47:59Z</time>
      </trkpt>
      <trkpt lat="41.11115" lon="-3.45614">
        <ele>1632.46</ele>
        <time>2014-04-27T06:48:03Z</time>
      </trkpt>
      <trkpt lat="41.11114" lon="-3.45609">
        <ele>1633.9</ele>
        <time>2014-04-27T06:48:07Z</time>
      </trkpt>
      <trkpt lat="41.11113" lon="-3.45606">
        <ele>1634.38</ele>
        <time>2014-04-27T06:48:10Z</time>
      </trkpt>
      <trkpt lat="41.11113" lon="-3.45599">
        <ele>1634.86</ele>
        <time>2014-04-27T06:48:16Z</time>
      </trkpt>
      <trkpt lat="41.11112" lon="-3.45588">
        <ele>1637.74</ele>
        <time>2014-04-27T06:48:26Z</time>
      </trkpt>
      <trkpt lat="41.11114" lon="-3.45573">
        <ele>1640.15</ele>
        <time>2014-04-27T06:48:39Z</time>
      </trkpt>
      <trkpt lat="41.11113" lon="-3.45551">
        <ele>1642.55</ele>
        <time>2014-04-27T06:48:53Z</time>
      </trkpt>
      <trkpt lat="41.11113" lon="-3.45542">
        <ele>1644.47</ele>
        <time>2014-04-27T06:49:00Z</time>
      </trkpt>
      <trkpt lat="41.11113" lon="-3.45539">
        <ele>1644.95</ele>
        <time>2014-04-27T06:49:02Z</time>
      </trkpt>
      <trkpt lat="41.11119" lon="-3.45524">
        <ele>1646.4</ele>
        <time>2014-04-27T06:49:16Z</time>
      </trkpt>
      <trkpt lat="41.1112" lon="-3.45522">
        <ele>1646.88</ele>
        <time>2014-04-27T06:49:18Z</time>
      </trkpt>
      <trkpt lat="41.11122" lon="-3.45518">
        <ele>1648.32</ele>
        <time>2014-04-27T06:49:22Z</time>
      </trkpt>
      <trkpt lat="41.11127" lon="-3.45506">
        <ele>1649.28</ele>
        <time>2014-04-27T06:49:30Z</time>
      </trkpt>
      <trkpt lat="41.11133" lon="-3.45492">
        <ele>1653.12</ele>
        <time>2014-04-27T06:49:40Z</time>
      </trkpt>
      <trkpt lat="41.11141" lon="-3.45479">
        <ele>1654.09</ele>
        <time>2014-04-27T06:49:51Z</time>
      </trkpt>
      <trkpt lat="41.11148" lon="-3.45469">
        <ele>1654.57</ele>
        <time>2014-04-27T06:50:00Z</time>
      </trkpt>
      <trkpt lat="41.11151" lon="-3.45464">
        <ele>1655.53</ele>
        <time>2014-04-27T06:50:04Z</time>
      </trkpt>
      <trkpt lat="41.11156" lon="-3.45461">
        <ele>1656.49</ele>
        <time>2014-04-27T06:50:09Z</time>
      </trkpt>
      <trkpt lat="41.11156" lon="-3.45458">
        <ele>1656.97</ele>
        <time>2014-04-27T06:50:11Z</time>
      </trkpt>
      <trkpt lat="41.11164" lon="-3.45457">
        <ele>1658.89</ele>
        <time>2014-04-27T06:50:23Z</time>
      </trkpt>
      <trkpt lat="41.11165" lon="-3.4546">
        <ele>1659.85</ele>
        <time>2014-04-27T06:50:26Z</time>
      </trkpt>
      <trkpt lat="41.11166" lon="-3.45461">
        <ele>1660.33</ele>
        <time>2014-04-27T06:50:28Z</time>
      </trkpt>
      <trkpt lat="41.11167" lon="-3.45467">
        <ele>1662.26</ele>
        <time>2014-04-27T06:50:33Z</time>
      </trkpt>
      <trkpt lat="41.11168" lon="-3.45481">
        <ele>1664.66</ele>
        <time>2014-04-27T06:50:46Z</time>
      </trkpt>
      <trkpt lat="41.11169" lon="-3.45484">
        <ele>1664.18</ele>
        <time>2014-04-27T06:50:49Z</time>
      </trkpt>
      <trkpt lat="41.11168" lon="-3.45486">
        <ele>1664.18</ele>
        <time>2014-04-27T06:50:51Z</time>
      </trkpt>
      <trkpt lat="41.11168" lon="-3.45492">
        <ele>1666.58</ele>
        <time>2014-04-27T06:50:55Z</time>
      </trkpt>
      <trkpt lat="41.1117" lon="-3.45501">
        <ele>1668.02</ele>
        <time>2014-04-27T06:51:03Z</time>
      </trkpt>
      <trkpt lat="41.11171" lon="-3.45506">
        <ele>1667.06</ele>
        <time>2014-04-27T06:51:07Z</time>
      </trkpt>
      <trkpt lat="41.11175" lon="-3.45512">
        <ele>1668.02</ele>
        <time>2014-04-27T06:51:13Z</time>
      </trkpt>
      <trkpt lat="41.11181" lon="-3.45519">
        <ele>1669.95</ele>
        <time>2014-04-27T06:51:21Z</time>
      </trkpt>
      <trkpt lat="41.11186" lon="-3.45515">
        <ele>1671.39</ele>
        <time>2014-04-27T06:51:25Z</time>
      </trkpt>
      <trkpt lat="41.11194" lon="-3.45496">
        <ele>1673.79</ele>
        <time>2014-04-27T06:51:40Z</time>
      </trkpt>
      <trkpt lat="41.11204" lon="-3.4548">
        <ele>1675.23</ele>
        <time>2014-04-27T06:51:53Z</time>
      </trkpt>
      <trkpt lat="41.11215" lon="-3.4546">
        <ele>1678.12</ele>
        <time>2014-04-27T06:52:08Z</time>
      </trkpt>
      <trkpt lat="41.11224" lon="-3.45444">
        <ele>1679.56</ele>
        <time>2014-04-27T06:52:22Z</time>
      </trkpt>
      <trkpt lat="41.11228" lon="-3.4544">
        <ele>1680.04</ele>
        <time>2014-04-27T06:52:27Z</time>
      </trkpt>
      <trkpt lat="41.11235" lon="-3.45436">
        <ele>1681.96</ele>
        <time>2014-04-27T06:52:33Z</time>
      </trkpt>
      <trkpt lat="41.11242" lon="-3.45437">
        <ele>1682.93</ele>
        <time>2014-04-27T06:52:40Z</time>
      </trkpt>
      <trkpt lat="41.11244" lon="-3.45435">
        <ele>1683.41</ele>
        <time>2014-04-27T06:52:52Z</time>
      </trkpt>
      <trkpt lat="41.1124" lon="-3.45443">
        <ele>1682.93</ele>
        <time>2014-04-27T06:53:10Z</time>
      </trkpt>
      <trkpt lat="41.11241" lon="-3.45445">
        <ele>1683.89</ele>
        <time>2014-04-27T06:53:23Z</time>
      </trkpt>
      <trkpt lat="41.11242" lon="-3.45447">
        <ele>1683.41</ele>
        <time>2014-04-27T06:53:53Z</time>
      </trkpt>
      <trkpt lat="41.11241" lon="-3.45448">
        <ele>1683.41</ele>
        <time>2014-04-27T06:53:57Z</time>
      </trkpt>
      <trkpt lat="41.11247" lon="-3.45454">
        <ele>1683.41</ele>
        <time>2014-04-27T06:54:03Z</time>
      </trkpt>
      <trkpt lat="41.11247" lon="-3.45458">
        <ele>1683.89</ele>
        <time>2014-04-27T06:54:06Z</time>
      </trkpt>
      <trkpt lat="41.11247" lon="-3.45464">
        <ele>1684.37</ele>
        <time>2014-04-27T06:54:20Z</time>
      </trkpt>
      <trkpt lat="41.11247" lon="-3.45464">
        <ele>1684.37</ele>
        <time>2014-04-27T06:54:21Z</time>
      </trkpt>
      <trkpt lat="41.11249" lon="-3.4548">
        <ele>1687.25</ele>
        <time>2014-04-27T06:54:35Z</time>
      </trkpt>
      <trkpt lat="41.11251" lon="-3.45493">
        <ele>1689.17</ele>
        <time>2014-04-27T06:54:46Z</time>
      </trkpt>
      <trkpt lat="41.11254" lon="-3.45506">
        <ele>1688.21</ele>
        <time>2014-04-27T06:54:59Z</time>
      </trkpt>
      <trkpt lat="41.11255" lon="-3.45509">
        <ele>1691.1</ele>
        <time>2014-04-27T06:55:04Z</time>
      </trkpt>
      <trkpt lat="41.11254" lon="-3.45519">
        <ele>1694.46</ele>
        <time>2014-04-27T06:55:11Z</time>
      </trkpt>
      <trkpt lat="41.11254" lon="-3.45524">
        <ele>1695.42</ele>
        <time>2014-04-27T06:55:15Z</time>
      </trkpt>
      <trkpt lat="41.11253" lon="-3.45527">
        <ele>1694.46</ele>
        <time>2014-04-27T06:55:17Z</time>
      </trkpt>
      <trkpt lat="41.11254" lon="-3.45529">
        <ele>1693.5</ele>
        <time>2014-04-27T06:55:19Z</time>
      </trkpt>
      <trkpt lat="41.11257" lon="-3.45533">
        <ele>1696.38</ele>
        <time>2014-04-27T06:55:22Z</time>
      </trkpt>
      <trkpt lat="41.11258" lon="-3.45535">
        <ele>1697.83</ele>
        <time>2014-04-27T06:55:24Z</time>
      </trkpt>
      <trkpt lat="41.11265" lon="-3.45548">
        <ele>1699.27</ele>
        <time>2014-04-27T06:55:33Z</time>
      </trkpt>
      <trkpt lat="41.11275" lon="-3.45564">
        <ele>1702.15</ele>
        <time>2014-04-27T06:55:45Z</time>
      </trkpt>
      <trkpt lat="41.11281" lon="-3.45573">
        <ele>1702.15</ele>
        <time>2014-04-27T06:55:51Z</time>
      </trkpt>
      <trkpt lat="41.11299" lon="-3.45597">
        <ele>1701.19</ele>
        <time>2014-04-27T06:56:10Z</time>
      </trkpt>
      <trkpt lat="41.11311" lon="-3.45622">
        <ele>1701.67</ele>
        <time>2014-04-27T06:56:28Z</time>
      </trkpt>
      <trkpt lat="41.11312" lon="-3.45626">
        <ele>1701.67</ele>
        <time>2014-04-27T06:56:30Z</time>
      </trkpt>
      <trkpt lat="41.11318" lon="-3.45649">
        <ele>1702.63</ele>
        <time>2014-04-27T06:56:45Z</time>
      </trkpt>
      <trkpt lat="41.1132" lon="-3.45676">
        <ele>1699.75</ele>
        <time>2014-04-27T06:57:02Z</time>
      </trkpt>
      <trkpt lat="41.11318" lon="-3.45702">
        <ele>1699.27</ele>
        <time>2014-04-27T06:57:17Z</time>
      </trkpt>
      <trkpt lat="41.11317" lon="-3.4572">
        <ele>1702.63</ele>
        <time>2014-04-27T06:57:29Z</time>
      </trkpt>
      <trkpt lat="41.11319" lon="-3.4573">
        <ele>1704.55</ele>
        <time>2014-04-27T06:57:36Z</time>
      </trkpt>
      <trkpt lat="41.11322" lon="-3.45741">
        <ele>1705.52</ele>
        <time>2014-04-27T06:57:43Z</time>
      </trkpt>
      <trkpt lat="41.11326" lon="-3.45752">
        <ele>1705.04</ele>
        <time>2014-04-27T06:57:50Z</time>
      </trkpt>
      <trkpt lat="41.11328" lon="-3.45778">
        <ele>1707.92</ele>
        <time>2014-04-27T06:58:06Z</time>
      </trkpt>
      <trkpt lat="41.11328" lon="-3.45784">
        <ele>1708.88</ele>
        <time>2014-04-27T06:58:18Z</time>
      </trkpt>
      <trkpt lat="41.11327" lon="-3.45785">
        <ele>1708.4</ele>
        <time>2014-04-27T06:58:19Z</time>
      </trkpt>
      <trkpt lat="41.11324" lon="-3.45795">
        <ele>1706.96</ele>
        <time>2014-04-27T06:58:26Z</time>
      </trkpt>
      <trkpt lat="41.11324" lon="-3.45799">
        <ele>1707.92</ele>
        <time>2014-04-27T06:58:29Z</time>
      </trkpt>
      <trkpt lat="41.11321" lon="-3.45805">
        <ele>1709.36</ele>
        <time>2014-04-27T06:58:34Z</time>
      </trkpt>
      <trkpt lat="41.11321" lon="-3.45815">
        <ele>1709.36</ele>
        <time>2014-04-27T06:58:40Z</time>
      </trkpt>
      <trkpt lat="41.11323" lon="-3.45825">
        <ele>1709.84</ele>
        <time>2014-04-27T06:58:46Z</time>
      </trkpt>
      <trkpt lat="41.11341" lon="-3.45848">
        <ele>1711.76</ele>
        <time>2014-04-27T06:59:04Z</time>
      </trkpt>
      <trkpt lat="41.11361" lon="-3.45864">
        <ele>1713.69</ele>
        <time>2014-04-27T06:59:22Z</time>
      </trkpt>
      <trkpt lat="41.11365" lon="-3.45866">
        <ele>1715.13</ele>
        <time>2014-04-27T06:59:25Z</time>
      </trkpt>
      <trkpt lat="41.11372" lon="-3.4587">
        <ele>1715.13</ele>
        <time>2014-04-27T06:59:31Z</time>
      </trkpt>
      <trkpt lat="41.11384" lon="-3.45877">
        <ele>1718.49</ele>
        <time>2014-04-27T06:59:45Z</time>
      </trkpt>
      <trkpt lat="41.11389" lon="-3.45881">
        <ele>1719.94</ele>
        <time>2014-04-27T06:59:51Z</time>
      </trkpt>
      <trkpt lat="41.11391" lon="-3.45884">
        <ele>1720.42</ele>
        <time>2014-04-27T06:59:54Z</time>
      </trkpt>
      <trkpt lat="41.11393" lon="-3.45885">
        <ele>1720.9</ele>
        <time>2014-04-27T06:59:56Z</time>
      </trkpt>
      <trkpt lat="41.11402" lon="-3.45898">
        <ele>1723.78</ele>
        <time>2014-04-27T07:00:10Z</time>
      </trkpt>
      <trkpt lat="41.11409" lon="-3.45909">
        <ele>1725.22</ele>
        <time>2014-04-27T07:00:20Z</time>
      </trkpt>
      <trkpt lat="41.11413" lon="-3.45926">
        <ele>1727.15</ele>
        <time>2014-04-27T07:00:31Z</time>
      </trkpt>
      <trkpt lat="41.11414" lon="-3.45952">
        <ele>1730.03</ele>
        <time>2014-04-27T07:00:47Z</time>
      </trkpt>
      <trkpt lat="41.11421" lon="-3.45985">
        <ele>1728.59</ele>
        <time>2014-04-27T07:01:05Z</time>
      </trkpt>
      <trkpt lat="41.11429" lon="-3.46009">
        <ele>1729.07</ele>
        <time>2014-04-27T07:01:19Z</time>
      </trkpt>
      <trkpt lat="41.11444" lon="-3.46042">
        <ele>1730.99</ele>
        <time>2014-04-27T07:01:40Z</time>
      </trkpt>
      <trkpt lat="41.11458" lon="-3.46063">
        <ele>1731.95</ele>
        <time>2014-04-27T07:01:55Z</time>
      </trkpt>
      <trkpt lat="41.11466" lon="-3.46075">
        <ele>1732.91</ele>
        <time>2014-04-27T07:02:04Z</time>
      </trkpt>
      <trkpt lat="41.11468" lon="-3.46079">
        <ele>1733.39</ele>
        <time>2014-04-27T07:02:08Z</time>
      </trkpt>
      <trkpt lat="41.11474" lon="-3.46089">
        <ele>1734.36</ele>
        <time>2014-04-27T07:02:16Z</time>
      </trkpt>
      <trkpt lat="41.11481" lon="-3.461">
        <ele>1736.28</ele>
        <time>2014-04-27T07:02:25Z</time>
      </trkpt>
      <trkpt lat="41.11483" lon="-3.46103">
        <ele>1736.76</ele>
        <time>2014-04-27T07:02:27Z</time>
      </trkpt>
      <trkpt lat="41.11493" lon="-3.46119">
        <ele>1740.12</ele>
        <time>2014-04-27T07:02:40Z</time>
      </trkpt>
      <trkpt lat="41.11508" lon="-3.46134">
        <ele>1740.6</ele>
        <time>2014-04-27T07:02:54Z</time>
      </trkpt>
      <trkpt lat="41.11531" lon="-3.46152">
        <ele>1742.53</ele>
        <time>2014-04-27T07:03:13Z</time>
      </trkpt>
      <trkpt lat="41.11536" lon="-3.46155">
        <ele>1739.16</ele>
        <time>2014-04-27T07:03:17Z</time>
      </trkpt>
      <trkpt lat="41.1154" lon="-3.46159">
        <ele>1742.53</ele>
        <time>2014-04-27T07:03:20Z</time>
      </trkpt>
      <trkpt lat="41.11541" lon="-3.46159">
        <ele>1742.53</ele>
        <time>2014-04-27T07:03:21Z</time>
      </trkpt>
      <trkpt lat="41.11554" lon="-3.4617">
        <ele>1743.01</ele>
        <time>2014-04-27T07:03:33Z</time>
      </trkpt>
      <trkpt lat="41.11564" lon="-3.46177">
        <ele>1744.93</ele>
        <time>2014-04-27T07:03:42Z</time>
      </trkpt>
      <trkpt lat="41.1157" lon="-3.46184">
        <ele>1746.85</ele>
        <time>2014-04-27T07:03:48Z</time>
      </trkpt>
      <trkpt lat="41.11576" lon="-3.46187">
        <ele>1745.89</ele>
        <time>2014-04-27T07:03:53Z</time>
      </trkpt>
      <trkpt lat="41.11594" lon="-3.462">
        <ele>1747.33</ele>
        <time>2014-04-27T07:04:08Z</time>
      </trkpt>
      <trkpt lat="41.11598" lon="-3.46202">
        <ele>1749.26</ele>
        <time>2014-04-27T07:04:11Z</time>
      </trkpt>
      <trkpt lat="41.11604" lon="-3.46206">
        <ele>1752.14</ele>
        <time>2014-04-27T07:04:16Z</time>
      </trkpt>
      <trkpt lat="41.11627" lon="-3.46223">
        <ele>1754.06</ele>
        <time>2014-04-27T07:04:35Z</time>
      </trkpt>
      <trkpt lat="41.11636" lon="-3.46229">
        <ele>1750.7</ele>
        <time>2014-04-27T07:04:42Z</time>
      </trkpt>
      <trkpt lat="41.11638" lon="-3.4623">
        <ele>1750.7</ele>
        <time>2014-04-27T07:04:43Z</time>
      </trkpt>
      <trkpt lat="41.11665" lon="-3.46248">
        <ele>1749.74</ele>
        <time>2014-04-27T07:05:02Z</time>
      </trkpt>
      <trkpt lat="41.11687" lon="-3.46261">
        <ele>1750.22</ele>
        <time>2014-04-27T07:05:19Z</time>
      </trkpt>
      <trkpt lat="41.11706" lon="-3.46278">
        <ele>1749.26</ele>
        <time>2014-04-27T07:05:35Z</time>
      </trkpt>
      <trkpt lat="41.11717" lon="-3.46289">
        <ele>1749.74</ele>
        <time>2014-04-27T07:05:45Z</time>
      </trkpt>
      <trkpt lat="41.11722" lon="-3.46296">
        <ele>1748.78</ele>
        <time>2014-04-27T07:05:55Z</time>
      </trkpt>
      <trkpt lat="41.1174" lon="-3.46315">
        <ele>1748.29</ele>
        <time>2014-04-27T07:06:11Z</time>
      </trkpt>
      <trkpt lat="41.11758" lon="-3.46333">
        <ele>1748.78</ele>
        <time>2014-04-27T07:06:27Z</time>
      </trkpt>
      <trkpt lat="41.11781" lon="-3.46345">
        <ele>1748.78</ele>
        <time>2014-04-27T07:06:44Z</time>
      </trkpt>
      <trkpt lat="41.11791" lon="-3.46352">
        <ele>1750.7</ele>
        <time>2014-04-27T07:06:52Z</time>
      </trkpt>
      <trkpt lat="41.11798" lon="-3.46359">
        <ele>1752.14</ele>
        <time>2014-04-27T07:06:59Z</time>
      </trkpt>
      <trkpt lat="41.11803" lon="-3.46367">
        <ele>1753.1</ele>
        <time>2014-04-27T07:07:06Z</time>
      </trkpt>
      <trkpt lat="41.11812" lon="-3.46377">
        <ele>1754.54</ele>
        <time>2014-04-27T07:07:15Z</time>
      </trkpt>
      <trkpt lat="41.11829" lon="-3.4639">
        <ele>1756.95</ele>
        <time>2014-04-27T07:07:31Z</time>
      </trkpt>
      <trkpt lat="41.11839" lon="-3.46401">
        <ele>1759.83</ele>
        <time>2014-04-27T07:07:42Z</time>
      </trkpt>
      <trkpt lat="41.1184" lon="-3.46402">
        <ele>1759.83</ele>
        <time>2014-04-27T07:07:43Z</time>
      </trkpt>
      <trkpt lat="41.11855" lon="-3.46415">
        <ele>1762.71</ele>
        <time>2014-04-27T07:07:57Z</time>
      </trkpt>
      <trkpt lat="41.1186" lon="-3.46419">
        <ele>1763.2</ele>
        <time>2014-04-27T07:08:01Z</time>
      </trkpt>
      <trkpt lat="41.11866" lon="-3.4643">
        <ele>1764.64</ele>
        <time>2014-04-27T07:08:09Z</time>
      </trkpt>
      <trkpt lat="41.11876" lon="-3.46453">
        <ele>1766.08</ele>
        <time>2014-04-27T07:08:26Z</time>
      </trkpt>
      <trkpt lat="41.11895" lon="-3.46468">
        <ele>1766.56</ele>
        <time>2014-04-27T07:08:44Z</time>
      </trkpt>
      <trkpt lat="41.11913" lon="-3.4648">
        <ele>1766.56</ele>
        <time>2014-04-27T07:09:01Z</time>
      </trkpt>
      <trkpt lat="41.11919" lon="-3.46483">
        <ele>1770.89</ele>
        <time>2014-04-27T07:09:06Z</time>
      </trkpt>
      <trkpt lat="41.1192" lon="-3.46483">
        <ele>1770.89</ele>
        <time>2014-04-27T07:09:07Z</time>
      </trkpt>
      <trkpt lat="41.11924" lon="-3.46486">
        <ele>1772.33</ele>
        <time>2014-04-27T07:09:12Z</time>
      </trkpt>
      <trkpt lat="41.11931" lon="-3.46492">
        <ele>1773.77</ele>
        <time>2014-04-27T07:09:19Z</time>
      </trkpt>
      <trkpt lat="41.11955" lon="-3.46491">
        <ele>1774.73</ele>
        <time>2014-04-27T07:09:35Z</time>
      </trkpt>
      <trkpt lat="41.11977" lon="-3.46492">
        <ele>1775.69</ele>
        <time>2014-04-27T07:09:50Z</time>
      </trkpt>
      <trkpt lat="41.12001" lon="-3.46491">
        <ele>1775.21</ele>
        <time>2014-04-27T07:10:06Z</time>
      </trkpt>
      <trkpt lat="41.12022" lon="-3.46489">
        <ele>1777.13</ele>
        <time>2014-04-27T07:10:21Z</time>
      </trkpt>
      <trkpt lat="41.12046" lon="-3.46486">
        <ele>1779.06</ele>
        <time>2014-04-27T07:10:38Z</time>
      </trkpt>
      <trkpt lat="41.12072" lon="-3.46486">
        <ele>1779.06</ele>
        <time>2014-04-27T07:10:56Z</time>
      </trkpt>
      <trkpt lat="41.12093" lon="-3.46485">
        <ele>1779.54</ele>
        <time>2014-04-27T07:11:10Z</time>
      </trkpt>
      <trkpt lat="41.12116" lon="-3.46484">
        <ele>1782.42</ele>
        <time>2014-04-27T07:11:25Z</time>
      </trkpt>
      <trkpt lat="41.12137" lon="-3.46478">
        <ele>1784.34</ele>
        <time>2014-04-27T07:11:40Z</time>
      </trkpt>
      <trkpt lat="41.12142" lon="-3.46476">
        <ele>1784.34</ele>
        <time>2014-04-27T07:11:44Z</time>
      </trkpt>
      <trkpt lat="41.12167" lon="-3.4647">
        <ele>1787.23</ele>
        <time>2014-04-27T07:12:03Z</time>
      </trkpt>
      <trkpt lat="41.1219" lon="-3.46468">
        <ele>1788.67</ele>
        <time>2014-04-27T07:12:21Z</time>
      </trkpt>
      <trkpt lat="41.1221" lon="-3.46468">
        <ele>1790.11</ele>
        <time>2014-04-27T07:12:37Z</time>
      </trkpt>
      <trkpt lat="41.12218" lon="-3.46468">
        <ele>1791.07</ele>
        <time>2014-04-27T07:12:43Z</time>
      </trkpt>
      <trkpt lat="41.12238" lon="-3.4647">
        <ele>1792.52</ele>
        <time>2014-04-27T07:12:58Z</time>
      </trkpt>
      <trkpt lat="41.12263" lon="-3.46469">
        <ele>1792.52</ele>
        <time>2014-04-27T07:13:16Z</time>
      </trkpt>
      <trkpt lat="41.12285" lon="-3.46458">
        <ele>1792.52</ele>
        <time>2014-04-27T07:13:32Z</time>
      </trkpt>
      <trkpt lat="41.12311" lon="-3.46439">
        <ele>1793.96</ele>
        <time>2014-04-27T07:13:50Z</time>
      </trkpt>
      <trkpt lat="41.12326" lon="-3.46435">
        <ele>1796.36</ele>
        <time>2014-04-27T07:14:04Z</time>
      </trkpt>
      <trkpt lat="41.12347" lon="-3.46437">
        <ele>1799.24</ele>
        <time>2014-04-27T07:14:21Z</time>
      </trkpt>
      <trkpt lat="41.12363" lon="-3.46436">
        <ele>1802.61</ele>
        <time>2014-04-27T07:14:35Z</time>
      </trkpt>
      <trkpt lat="41.12368" lon="-3.46436">
        <ele>1803.57</ele>
        <time>2014-04-27T07:14:39Z</time>
      </trkpt>
      <trkpt lat="41.12388" lon="-3.46445">
        <ele>1805.01</ele>
        <time>2014-04-27T07:14:55Z</time>
      </trkpt>
      <trkpt lat="41.12411" lon="-3.46455">
        <ele>1806.94</ele>
        <time>2014-04-27T07:15:13Z</time>
      </trkpt>
      <trkpt lat="41.12413" lon="-3.46457">
        <ele>1807.42</ele>
        <time>2014-04-27T07:15:15Z</time>
      </trkpt>
      <trkpt lat="41.12441" lon="-3.46465">
        <ele>1805.97</ele>
        <time>2014-04-27T07:15:35Z</time>
      </trkpt>
      <trkpt lat="41.12451" lon="-3.46466">
        <ele>1808.86</ele>
        <time>2014-04-27T07:15:42Z</time>
      </trkpt>
      <trkpt lat="41.12454" lon="-3.46467">
        <ele>1810.3</ele>
        <time>2014-04-27T07:15:44Z</time>
      </trkpt>
      <trkpt lat="41.12474" lon="-3.46471">
        <ele>1807.42</ele>
        <time>2014-04-27T07:15:59Z</time>
      </trkpt>
      <trkpt lat="41.12499" lon="-3.46476">
        <ele>1809.82</ele>
        <time>2014-04-27T07:16:17Z</time>
      </trkpt>
      <trkpt lat="41.12523" lon="-3.4648">
        <ele>1812.22</ele>
        <time>2014-04-27T07:16:35Z</time>
      </trkpt>
      <trkpt lat="41.12543" lon="-3.46485">
        <ele>1814.63</ele>
        <time>2014-04-27T07:16:51Z</time>
      </trkpt>
      <trkpt lat="41.12549" lon="-3.46486">
        <ele>1816.55</ele>
        <time>2014-04-27T07:16:55Z</time>
      </trkpt>
      <trkpt lat="41.12557" lon="-3.4649">
        <ele>1816.55</ele>
        <time>2014-04-27T07:17:03Z</time>
      </trkpt>
      <trkpt lat="41.12576" lon="-3.46498">
        <ele>1820.39</ele>
        <time>2014-04-27T07:17:18Z</time>
      </trkpt>
      <trkpt lat="41.12583" lon="-3.46502">
        <ele>1819.91</ele>
        <time>2014-04-27T07:17:24Z</time>
      </trkpt>
      <trkpt lat="41.12596" lon="-3.46508">
        <ele>1819.91</ele>
        <time>2014-04-27T07:17:35Z</time>
      </trkpt>
      <trkpt lat="41.12604" lon="-3.46513">
        <ele>1822.8</ele>
        <time>2014-04-27T07:17:42Z</time>
      </trkpt>
      <trkpt lat="41.12622" lon="-3.4653">
        <ele>1823.28</ele>
        <time>2014-04-27T07:17:59Z</time>
      </trkpt>
      <trkpt lat="41.12623" lon="-3.46531">
        <ele>1825.2</ele>
        <time>2014-04-27T07:18:03Z</time>
      </trkpt>
      <trkpt lat="41.1263" lon="-3.46545">
        <ele>1824.72</ele>
        <time>2014-04-27T07:18:19Z</time>
      </trkpt>
      <trkpt lat="41.12635" lon="-3.46555">
        <ele>1826.16</ele>
        <time>2014-04-27T07:18:26Z</time>
      </trkpt>
      <trkpt lat="41.12648" lon="-3.46576">
        <ele>1826.64</ele>
        <time>2014-04-27T07:18:43Z</time>
      </trkpt>
      <trkpt lat="41.12658" lon="-3.46589">
        <ele>1827.12</ele>
        <time>2014-04-27T07:18:54Z</time>
      </trkpt>
      <trkpt lat="41.12658" lon="-3.46591">
        <ele>1826.64</ele>
        <time>2014-04-27T07:18:55Z</time>
      </trkpt>
      <trkpt lat="41.12662" lon="-3.46595">
        <ele>1828.08</ele>
        <time>2014-04-27T07:18:59Z</time>
      </trkpt>
      <trkpt lat="41.12669" lon="-3.46605">
        <ele>1829.53</ele>
        <time>2014-04-27T07:19:07Z</time>
      </trkpt>
      <trkpt lat="41.12685" lon="-3.46627">
        <ele>1830.49</ele>
        <time>2014-04-27T07:19:24Z</time>
      </trkpt>
      <trkpt lat="41.12702" lon="-3.46648">
        <ele>1832.41</ele>
        <time>2014-04-27T07:19:40Z</time>
      </trkpt>
      <trkpt lat="41.12717" lon="-3.46665">
        <ele>1832.41</ele>
        <time>2014-04-27T07:19:55Z</time>
      </trkpt>
      <trkpt lat="41.12735" lon="-3.46686">
        <ele>1834.81</ele>
        <time>2014-04-27T07:20:13Z</time>
      </trkpt>
      <trkpt lat="41.12736" lon="-3.46687">
        <ele>1835.29</ele>
        <time>2014-04-27T07:20:14Z</time>
      </trkpt>
      <trkpt lat="41.12751" lon="-3.4671">
        <ele>1835.77</ele>
        <time>2014-04-27T07:20:31Z</time>
      </trkpt>
      <trkpt lat="41.12771" lon="-3.46732">
        <ele>1837.22</ele>
        <time>2014-04-27T07:20:49Z</time>
      </trkpt>
      <trkpt lat="41.12771" lon="-3.46734">
        <ele>1837.22</ele>
        <time>2014-04-27T07:20:50Z</time>
      </trkpt>
      <trkpt lat="41.12785" lon="-3.46752">
        <ele>1839.14</ele>
        <time>2014-04-27T07:21:05Z</time>
      </trkpt>
      <trkpt lat="41.12796" lon="-3.46764">
        <ele>1842.5</ele>
        <time>2014-04-27T07:21:15Z</time>
      </trkpt>
      <trkpt lat="41.12797" lon="-3.46765">
        <ele>1842.98</ele>
        <time>2014-04-27T07:21:16Z</time>
      </trkpt>
      <trkpt lat="41.12819" lon="-3.4678">
        <ele>1842.02</ele>
        <time>2014-04-27T07:21:35Z</time>
      </trkpt>
      <trkpt lat="41.12833" lon="-3.46789">
        <ele>1845.39</ele>
        <time>2014-04-27T07:21:47Z</time>
      </trkpt>
      <trkpt lat="41.12835" lon="-3.46791">
        <ele>1846.83</ele>
        <time>2014-04-27T07:21:49Z</time>
      </trkpt>
      <trkpt lat="41.12838" lon="-3.46793">
        <ele>1845.87</ele>
        <time>2014-04-27T07:21:52Z</time>
      </trkpt>
      <trkpt lat="41.12854" lon="-3.46804">
        <ele>1847.79</ele>
        <time>2014-04-27T07:22:07Z</time>
      </trkpt>
      <trkpt lat="41.12875" lon="-3.46818">
        <ele>1850.19</ele>
        <time>2014-04-27T07:22:24Z</time>
      </trkpt>
      <trkpt lat="41.12887" lon="-3.46829">
        <ele>1850.68</ele>
        <time>2014-04-27T07:22:37Z</time>
      </trkpt>
      <trkpt lat="41.12896" lon="-3.4684">
        <ele>1854.04</ele>
        <time>2014-04-27T07:22:48Z</time>
      </trkpt>
      <trkpt lat="41.12896" lon="-3.46841">
        <ele>1853.56</ele>
        <time>2014-04-27T07:22:49Z</time>
      </trkpt>
      <trkpt lat="41.12899" lon="-3.46847">
        <ele>1854.04</ele>
        <time>2014-04-27T07:22:55Z</time>
      </trkpt>
      <trkpt lat="41.129" lon="-3.46849">
        <ele>1854.52</ele>
        <time>2014-04-27T07:22:58Z</time>
      </trkpt>
      <trkpt lat="41.12901" lon="-3.46851">
        <ele>1854.04</ele>
        <time>2014-04-27T07:23:00Z</time>
      </trkpt>
      <trkpt lat="41.12902" lon="-3.46853">
        <ele>1855</ele>
        <time>2014-04-27T07:23:02Z</time>
      </trkpt>
      <trkpt lat="41.12915" lon="-3.46862">
        <ele>1857.89</ele>
        <time>2014-04-27T07:23:16Z</time>
      </trkpt>
      <trkpt lat="41.12916" lon="-3.46863">
        <ele>1857.4</ele>
        <time>2014-04-27T07:23:17Z</time>
      </trkpt>
      <trkpt lat="41.1293" lon="-3.46878">
        <ele>1859.81</ele>
        <time>2014-04-27T07:23:34Z</time>
      </trkpt>
      <trkpt lat="41.12942" lon="-3.46887">
        <ele>1862.69</ele>
        <time>2014-04-27T07:23:46Z</time>
      </trkpt>
      <trkpt lat="41.12951" lon="-3.46892">
        <ele>1863.17</ele>
        <time>2014-04-27T07:23:54Z</time>
      </trkpt>
      <trkpt lat="41.12952" lon="-3.46894">
        <ele>1864.61</ele>
        <time>2014-04-27T07:24:02Z</time>
      </trkpt>
      <trkpt lat="41.12957" lon="-3.46898">
        <ele>1863.65</ele>
        <time>2014-04-27T07:24:07Z</time>
      </trkpt>
      <trkpt lat="41.12974" lon="-3.46908">
        <ele>1865.58</ele>
        <time>2014-04-27T07:24:22Z</time>
      </trkpt>
      <trkpt lat="41.12979" lon="-3.46908">
        <ele>1864.13</ele>
        <time>2014-04-27T07:24:26Z</time>
      </trkpt>
      <trkpt lat="41.1299" lon="-3.46907">
        <ele>1865.58</ele>
        <time>2014-04-27T07:24:34Z</time>
      </trkpt>
      <trkpt lat="41.12996" lon="-3.46906">
        <ele>1860.29</ele>
        <time>2014-04-27T07:24:38Z</time>
      </trkpt>
      <trkpt lat="41.13005" lon="-3.4691">
        <ele>1862.69</ele>
        <time>2014-04-27T07:24:45Z</time>
      </trkpt>
      <trkpt lat="41.13012" lon="-3.46912">
        <ele>1861.25</ele>
        <time>2014-04-27T07:24:50Z</time>
      </trkpt>
      <trkpt lat="41.13019" lon="-3.46913">
        <ele>1861.25</ele>
        <time>2014-04-27T07:24:55Z</time>
      </trkpt>
      <trkpt lat="41.13043" lon="-3.46919">
        <ele>1859.81</ele>
        <time>2014-04-27T07:25:11Z</time>
      </trkpt>
      <trkpt lat="41.13057" lon="-3.4693">
        <ele>1861.25</ele>
        <time>2014-04-27T07:25:23Z</time>
      </trkpt>
      <trkpt lat="41.13069" lon="-3.46947">
        <ele>1861.25</ele>
        <time>2014-04-27T07:25:36Z</time>
      </trkpt>
      <trkpt lat="41.13079" lon="-3.46968">
        <ele>1864.13</ele>
        <time>2014-04-27T07:25:50Z</time>
      </trkpt>
      <trkpt lat="41.13089" lon="-3.46978">
        <ele>1865.58</ele>
        <time>2014-04-27T07:26:01Z</time>
      </trkpt>
      <trkpt lat="41.13095" lon="-3.46978">
        <ele>1866.54</ele>
        <time>2014-04-27T07:26:05Z</time>
      </trkpt>
      <trkpt lat="41.13103" lon="-3.4698">
        <ele>1867.5</ele>
        <time>2014-04-27T07:26:11Z</time>
      </trkpt>
      <trkpt lat="41.13126" lon="-3.46986">
        <ele>1867.02</ele>
        <time>2014-04-27T07:26:29Z</time>
      </trkpt>
      <trkpt lat="41.13127" lon="-3.46986">
        <ele>1864.61</ele>
        <time>2014-04-27T07:26:30Z</time>
      </trkpt>
      <trkpt lat="41.13132" lon="-3.46988">
        <ele>1867.02</ele>
        <time>2014-04-27T07:26:34Z</time>
      </trkpt>
      <trkpt lat="41.13133" lon="-3.46988">
        <ele>1867.02</ele>
        <time>2014-04-27T07:26:35Z</time>
      </trkpt>
      <trkpt lat="41.1314" lon="-3.4699">
        <ele>1869.42</ele>
        <time>2014-04-27T07:26:40Z</time>
      </trkpt>
      <trkpt lat="41.13162" lon="-3.46999">
        <ele>1869.42</ele>
        <time>2014-04-27T07:26:58Z</time>
      </trkpt>
      <trkpt lat="41.13176" lon="-3.47004">
        <ele>1876.15</ele>
        <time>2014-04-27T07:27:10Z</time>
      </trkpt>
      <trkpt lat="41.13177" lon="-3.47004">
        <ele>1874.71</ele>
        <time>2014-04-27T07:27:11Z</time>
      </trkpt>
      <trkpt lat="41.13182" lon="-3.47006">
        <ele>1871.34</ele>
        <time>2014-04-27T07:27:15Z</time>
      </trkpt>
      <trkpt lat="41.13188" lon="-3.47008">
        <ele>1872.79</ele>
        <time>2014-04-27T07:27:19Z</time>
      </trkpt>
      <trkpt lat="41.132" lon="-3.47012">
        <ele>1876.15</ele>
        <time>2014-04-27T07:27:29Z</time>
      </trkpt>
      <trkpt lat="41.13224" lon="-3.47015">
        <ele>1874.23</ele>
        <time>2014-04-27T07:27:47Z</time>
      </trkpt>
      <trkpt lat="41.13232" lon="-3.47017">
        <ele>1876.63</ele>
        <time>2014-04-27T07:27:52Z</time>
      </trkpt>
      <trkpt lat="41.13255" lon="-3.47025">
        <ele>1879.03</ele>
        <time>2014-04-27T07:28:10Z</time>
      </trkpt>
      <trkpt lat="41.13268" lon="-3.47024">
        <ele>1882.4</ele>
        <time>2014-04-27T07:28:19Z</time>
      </trkpt>
      <trkpt lat="41.1329" lon="-3.47022">
        <ele>1882.88</ele>
        <time>2014-04-27T07:28:36Z</time>
      </trkpt>
      <trkpt lat="41.13312" lon="-3.47018">
        <ele>1882.88</ele>
        <time>2014-04-27T07:28:52Z</time>
      </trkpt>
      <trkpt lat="41.13335" lon="-3.47012">
        <ele>1884.32</ele>
        <time>2014-04-27T07:29:08Z</time>
      </trkpt>
      <trkpt lat="41.1336" lon="-3.47007">
        <ele>1885.76</ele>
        <time>2014-04-27T07:29:26Z</time>
      </trkpt>
      <trkpt lat="41.13367" lon="-3.47005">
        <ele>1889.13</ele>
        <time>2014-04-27T07:29:31Z</time>
      </trkpt>
      <trkpt lat="41.13369" lon="-3.47005">
        <ele>1890.09</ele>
        <time>2014-04-27T07:29:33Z</time>
      </trkpt>
      <trkpt lat="41.1339" lon="-3.47002">
        <ele>1890.57</ele>
        <time>2014-04-27T07:29:48Z</time>
      </trkpt>
      <trkpt lat="41.13414" lon="-3.46997">
        <ele>1891.05</ele>
        <time>2014-04-27T07:30:05Z</time>
      </trkpt>
      <trkpt lat="41.13424" lon="-3.46997">
        <ele>1892.49</ele>
        <time>2014-04-27T07:30:13Z</time>
      </trkpt>
      <trkpt lat="41.13434" lon="-3.46996">
        <ele>1894.42</ele>
        <time>2014-04-27T07:30:21Z</time>
      </trkpt>
      <trkpt lat="41.13439" lon="-3.46994">
        <ele>1893.93</ele>
        <time>2014-04-27T07:30:25Z</time>
      </trkpt>
      <trkpt lat="41.13452" lon="-3.46992">
        <ele>1897.3</ele>
        <time>2014-04-27T07:30:35Z</time>
      </trkpt>
      <trkpt lat="41.13462" lon="-3.46995">
        <ele>1895.86</ele>
        <time>2014-04-27T07:30:43Z</time>
      </trkpt>
      <trkpt lat="41.13473" lon="-3.46995">
        <ele>1897.78</ele>
        <time>2014-04-27T07:30:52Z</time>
      </trkpt>
      <trkpt lat="41.13492" lon="-3.46992">
        <ele>1897.3</ele>
        <time>2014-04-27T07:31:09Z</time>
      </trkpt>
      <trkpt lat="41.13494" lon="-3.46992">
        <ele>1898.74</ele>
        <time>2014-04-27T07:31:11Z</time>
      </trkpt>
      <trkpt lat="41.135" lon="-3.46991">
        <ele>1900.18</ele>
        <time>2014-04-27T07:31:16Z</time>
      </trkpt>
      <trkpt lat="41.13516" lon="-3.46987">
        <ele>1901.63</ele>
        <time>2014-04-27T07:31:31Z</time>
      </trkpt>
      <trkpt lat="41.13518" lon="-3.46987">
        <ele>1901.63</ele>
        <time>2014-04-27T07:31:32Z</time>
      </trkpt>
      <trkpt lat="41.13527" lon="-3.46985">
        <ele>1900.66</ele>
        <time>2014-04-27T07:31:40Z</time>
      </trkpt>
      <trkpt lat="41.13541" lon="-3.46983">
        <ele>1903.07</ele>
        <time>2014-04-27T07:31:51Z</time>
      </trkpt>
      <trkpt lat="41.13548" lon="-3.46983">
        <ele>1904.03</ele>
        <time>2014-04-27T07:31:57Z</time>
      </trkpt>
      <trkpt lat="41.13559" lon="-3.46975">
        <ele>1904.51</ele>
        <time>2014-04-27T07:32:08Z</time>
      </trkpt>
      <trkpt lat="41.13563" lon="-3.46974">
        <ele>1904.51</ele>
        <time>2014-04-27T07:32:11Z</time>
      </trkpt>
      <trkpt lat="41.13575" lon="-3.46969">
        <ele>1905.47</ele>
        <time>2014-04-27T07:32:27Z</time>
      </trkpt>
      <trkpt lat="41.13576" lon="-3.46969">
        <ele>1904.99</ele>
        <time>2014-04-27T07:33:00Z</time>
      </trkpt>
      <trkpt lat="41.13586" lon="-3.46963">
        <ele>1907.87</ele>
        <time>2014-04-27T07:33:15Z</time>
      </trkpt>
      <trkpt lat="41.13601" lon="-3.46957">
        <ele>1907.39</ele>
        <time>2014-04-27T07:33:29Z</time>
      </trkpt>
      <trkpt lat="41.13603" lon="-3.46957">
        <ele>1914.12</ele>
        <time>2014-04-27T07:33:31Z</time>
      </trkpt>
      <trkpt lat="41.13604" lon="-3.46957">
        <ele>1913.16</ele>
        <time>2014-04-27T07:33:32Z</time>
      </trkpt>
      <trkpt lat="41.13605" lon="-3.46957">
        <ele>1912.68</ele>
        <time>2014-04-27T07:33:33Z</time>
      </trkpt>
      <trkpt lat="41.13621" lon="-3.4695">
        <ele>1910.76</ele>
        <time>2014-04-27T07:33:49Z</time>
      </trkpt>
      <trkpt lat="41.13627" lon="-3.46953">
        <ele>1914.6</ele>
        <time>2014-04-27T07:33:55Z</time>
      </trkpt>
      <trkpt lat="41.13628" lon="-3.46953">
        <ele>1914.6</ele>
        <time>2014-04-27T07:33:56Z</time>
      </trkpt>
      <trkpt lat="41.13644" lon="-3.46952">
        <ele>1917.01</ele>
        <time>2014-04-27T07:34:10Z</time>
      </trkpt>
      <trkpt lat="41.13655" lon="-3.46953">
        <ele>1919.89</ele>
        <time>2014-04-27T07:34:20Z</time>
      </trkpt>
      <trkpt lat="41.1367" lon="-3.46957">
        <ele>1921.81</ele>
        <time>2014-04-27T07:34:34Z</time>
      </trkpt>
      <trkpt lat="41.13676" lon="-3.46956">
        <ele>1922.77</ele>
        <time>2014-04-27T07:34:39Z</time>
      </trkpt>
      <trkpt lat="41.13693" lon="-3.46959">
        <ele>1925.66</ele>
        <time>2014-04-27T07:34:55Z</time>
      </trkpt>
      <trkpt lat="41.1371" lon="-3.46961">
        <ele>1925.66</ele>
        <time>2014-04-27T07:35:07Z</time>
      </trkpt>
      <trkpt lat="41.13731" lon="-3.46954">
        <ele>1926.14</ele>
        <time>2014-04-27T07:35:23Z</time>
      </trkpt>
      <trkpt lat="41.13735" lon="-3.4695">
        <ele>1924.7</ele>
        <time>2014-04-27T07:35:37Z</time>
      </trkpt>
      <trkpt lat="41.13735" lon="-3.4695">
        <ele>1921.33</ele>
        <time>2014-04-27T07:35:42Z</time>
      </trkpt>
      <trkpt lat="41.13735" lon="-3.4695">
        <ele>1921.33</ele>
        <time>2014-04-27T07:35:43Z</time>
      </trkpt>
      <trkpt lat="41.13736" lon="-3.46949">
        <ele>1924.22</ele>
        <time>2014-04-27T07:35:52Z</time>
      </trkpt>
      <trkpt lat="41.13736" lon="-3.4695">
        <ele>1923.25</ele>
        <time>2014-04-27T07:36:25Z</time>
      </trkpt>
      <trkpt lat="41.13736" lon="-3.46951">
        <ele>1920.37</ele>
        <time>2014-04-27T07:36:45Z</time>
      </trkpt>
      <trkpt lat="41.13736" lon="-3.46951">
        <ele>1922.29</ele>
        <time>2014-04-27T07:36:49Z</time>
      </trkpt>
      <trkpt lat="41.13735" lon="-3.46951">
        <ele>1923.25</ele>
        <time>2014-04-27T07:37:20Z</time>
      </trkpt>
      <trkpt lat="41.13735" lon="-3.4695">
        <ele>1922.29</ele>
        <time>2014-04-27T07:37:23Z</time>
      </trkpt>
      <trkpt lat="41.13736" lon="-3.46951">
        <ele>1921.33</ele>
        <time>2014-04-27T07:37:53Z</time>
      </trkpt>
      <trkpt lat="41.13736" lon="-3.46953">
        <ele>1921.33</ele>
        <time>2014-04-27T07:38:21Z</time>
      </trkpt>
      <trkpt lat="41.13736" lon="-3.46952">
        <ele>1922.29</ele>
        <time>2014-04-27T07:38:23Z</time>
      </trkpt>
      <trkpt lat="41.13737" lon="-3.46952">
        <ele>1924.7</ele>
        <time>2014-04-27T07:38:26Z</time>
      </trkpt>
      <trkpt lat="41.13738" lon="-3.46953">
        <ele>1924.7</ele>
        <time>2014-04-27T07:38:36Z</time>
      </trkpt>
      <trkpt lat="41.13738" lon="-3.46953">
        <ele>1922.77</ele>
        <time>2014-04-27T07:38:56Z</time>
      </trkpt>
      <trkpt lat="41.13738" lon="-3.46952">
        <ele>1922.29</ele>
        <time>2014-04-27T07:38:58Z</time>
      </trkpt>
      <trkpt lat="41.13744" lon="-3.46956">
        <ele>1920.37</ele>
        <time>2014-04-27T07:39:05Z</time>
      </trkpt>
      <trkpt lat="41.13752" lon="-3.46959">
        <ele>1921.81</ele>
        <time>2014-04-27T07:39:12Z</time>
      </trkpt>
      <trkpt lat="41.13769" lon="-3.46964">
        <ele>1923.74</ele>
        <time>2014-04-27T07:39:26Z</time>
      </trkpt>
      <trkpt lat="41.13772" lon="-3.46965">
        <ele>1922.77</ele>
        <time>2014-04-27T07:39:28Z</time>
      </trkpt>
      <trkpt lat="41.13789" lon="-3.46967">
        <ele>1923.74</ele>
        <time>2014-04-27T07:39:41Z</time>
      </trkpt>
      <trkpt lat="41.13796" lon="-3.46966">
        <ele>1922.29</ele>
        <time>2014-04-27T07:39:46Z</time>
      </trkpt>
      <trkpt lat="41.13802" lon="-3.46967">
        <ele>1926.62</ele>
        <time>2014-04-27T07:39:51Z</time>
      </trkpt>
      <trkpt lat="41.1381" lon="-3.46965">
        <ele>1928.54</ele>
        <time>2014-04-27T07:39:57Z</time>
      </trkpt>
      <trkpt lat="41.13814" lon="-3.46965">
        <ele>1927.1</ele>
        <time>2014-04-27T07:40:01Z</time>
      </trkpt>
      <trkpt lat="41.1382" lon="-3.46965">
        <ele>1928.54</ele>
        <time>2014-04-27T07:40:05Z</time>
      </trkpt>
      <trkpt lat="41.13842" lon="-3.46965">
        <ele>1929.5</ele>
        <time>2014-04-27T07:40:22Z</time>
      </trkpt>
      <trkpt lat="41.13852" lon="-3.46968">
        <ele>1929.98</ele>
        <time>2014-04-27T07:40:30Z</time>
      </trkpt>
      <trkpt lat="41.13872" lon="-3.46974">
        <ele>1933.35</ele>
        <time>2014-04-27T07:40:45Z</time>
      </trkpt>
      <trkpt lat="41.13874" lon="-3.46975">
        <ele>1934.31</ele>
        <time>2014-04-27T07:40:47Z</time>
      </trkpt>
      <trkpt lat="41.13895" lon="-3.46979">
        <ele>1936.71</ele>
        <time>2014-04-27T07:41:04Z</time>
      </trkpt>
      <trkpt lat="41.13899" lon="-3.46979">
        <ele>1936.71</ele>
        <time>2014-04-27T07:41:07Z</time>
      </trkpt>
      <trkpt lat="41.13907" lon="-3.4698">
        <ele>1937.19</ele>
        <time>2014-04-27T07:41:14Z</time>
      </trkpt>
      <trkpt lat="41.13919" lon="-3.4698">
        <ele>1939.6</ele>
        <time>2014-04-27T07:41:24Z</time>
      </trkpt>
      <trkpt lat="41.13929" lon="-3.4698">
        <ele>1939.6</ele>
        <time>2014-04-27T07:41:32Z</time>
      </trkpt>
      <trkpt lat="41.1394" lon="-3.46983">
        <ele>1942.48</ele>
        <time>2014-04-27T07:41:41Z</time>
      </trkpt>
      <trkpt lat="41.13941" lon="-3.46983">
        <ele>1942.48</ele>
        <time>2014-04-27T07:41:42Z</time>
      </trkpt>
      <trkpt lat="41.13959" lon="-3.46984">
        <ele>1944.88</ele>
        <time>2014-04-27T07:41:58Z</time>
      </trkpt>
      <trkpt lat="41.13976" lon="-3.46988">
        <ele>1946.33</ele>
        <time>2014-04-27T07:42:13Z</time>
      </trkpt>
      <trkpt lat="41.13982" lon="-3.46989">
        <ele>1947.77</ele>
        <time>2014-04-27T07:42:18Z</time>
      </trkpt>
      <trkpt lat="41.13994" lon="-3.46994">
        <ele>1947.29</ele>
        <time>2014-04-27T07:42:28Z</time>
      </trkpt>
      <trkpt lat="41.14007" lon="-3.46992">
        <ele>1946.81</ele>
        <time>2014-04-27T07:42:38Z</time>
      </trkpt>
      <trkpt lat="41.14012" lon="-3.46992">
        <ele>1949.21</ele>
        <time>2014-04-27T07:42:42Z</time>
      </trkpt>
      <trkpt lat="41.14024" lon="-3.46992">
        <ele>1949.69</ele>
        <time>2014-04-27T07:42:52Z</time>
      </trkpt>
      <trkpt lat="41.14026" lon="-3.46993">
        <ele>1951.13</ele>
        <time>2014-04-27T07:42:54Z</time>
      </trkpt>
      <trkpt lat="41.14033" lon="-3.46993">
        <ele>1953.54</ele>
        <time>2014-04-27T07:42:59Z</time>
      </trkpt>
      <trkpt lat="41.14051" lon="-3.46996">
        <ele>1954.98</ele>
        <time>2014-04-27T07:43:14Z</time>
      </trkpt>
      <trkpt lat="41.14065" lon="-3.47">
        <ele>1954.98</ele>
        <time>2014-04-27T07:43:27Z</time>
      </trkpt>
      <trkpt lat="41.14078" lon="-3.47002">
        <ele>1955.46</ele>
        <time>2014-04-27T07:43:39Z</time>
      </trkpt>
      <trkpt lat="41.1409" lon="-3.47006">
        <ele>1959.3</ele>
        <time>2014-04-27T07:43:50Z</time>
      </trkpt>
      <trkpt lat="41.14095" lon="-3.47006">
        <ele>1960.75</ele>
        <time>2014-04-27T07:43:54Z</time>
      </trkpt>
      <trkpt lat="41.14113" lon="-3.47013">
        <ele>1962.67</ele>
        <time>2014-04-27T07:44:09Z</time>
      </trkpt>
      <trkpt lat="41.14128" lon="-3.47021">
        <ele>1964.11</ele>
        <time>2014-04-27T07:44:23Z</time>
      </trkpt>
      <trkpt lat="41.14146" lon="-3.47035">
        <ele>1966.03</ele>
        <time>2014-04-27T07:44:40Z</time>
      </trkpt>
      <trkpt lat="41.14155" lon="-3.47043">
        <ele>1965.07</ele>
        <time>2014-04-27T07:44:50Z</time>
      </trkpt>
      <trkpt lat="41.14157" lon="-3.47044">
        <ele>1966.03</ele>
        <time>2014-04-27T07:44:52Z</time>
      </trkpt>
      <trkpt lat="41.1416" lon="-3.47047">
        <ele>1967.96</ele>
        <time>2014-04-27T07:44:56Z</time>
      </trkpt>
      <trkpt lat="41.14175" lon="-3.47062">
        <ele>1970.84</ele>
        <time>2014-04-27T07:45:12Z</time>
      </trkpt>
      <trkpt lat="41.14176" lon="-3.47062">
        <ele>1970.84</ele>
        <time>2014-04-27T07:45:13Z</time>
      </trkpt>
      <trkpt lat="41.14179" lon="-3.47064">
        <ele>1972.76</ele>
        <time>2014-04-27T07:45:16Z</time>
      </trkpt>
      <trkpt lat="41.14182" lon="-3.47067">
        <ele>1973.24</ele>
        <time>2014-04-27T07:45:20Z</time>
      </trkpt>
      <trkpt lat="41.14185" lon="-3.47069">
        <ele>1975.17</ele>
        <time>2014-04-27T07:45:23Z</time>
      </trkpt>
      <trkpt lat="41.14192" lon="-3.47073">
        <ele>1975.65</ele>
        <time>2014-04-27T07:45:30Z</time>
      </trkpt>
      <trkpt lat="41.14194" lon="-3.47075">
        <ele>1976.13</ele>
        <time>2014-04-27T07:45:32Z</time>
      </trkpt>
      <trkpt lat="41.14201" lon="-3.47081">
        <ele>1979.97</ele>
        <time>2014-04-27T07:45:41Z</time>
      </trkpt>
      <trkpt lat="41.14208" lon="-3.47086">
        <ele>1978.53</ele>
        <time>2014-04-27T07:45:48Z</time>
      </trkpt>
      <trkpt lat="41.1421" lon="-3.47087">
        <ele>1978.53</ele>
        <time>2014-04-27T07:45:51Z</time>
      </trkpt>
      <trkpt lat="41.14214" lon="-3.4709">
        <ele>1978.05</ele>
        <time>2014-04-27T07:45:56Z</time>
      </trkpt>
      <trkpt lat="41.14217" lon="-3.47092">
        <ele>1978.53</ele>
        <time>2014-04-27T07:45:59Z</time>
      </trkpt>
      <trkpt lat="41.14219" lon="-3.47093">
        <ele>1979.49</ele>
        <time>2014-04-27T07:46:01Z</time>
      </trkpt>
      <trkpt lat="41.14222" lon="-3.47096">
        <ele>1981.9</ele>
        <time>2014-04-27T07:46:05Z</time>
      </trkpt>
      <trkpt lat="41.14229" lon="-3.471">
        <ele>1984.78</ele>
        <time>2014-04-27T07:46:13Z</time>
      </trkpt>
      <trkpt lat="41.14231" lon="-3.47101">
        <ele>1985.74</ele>
        <time>2014-04-27T07:46:15Z</time>
      </trkpt>
      <trkpt lat="41.14238" lon="-3.47108">
        <ele>1985.26</ele>
        <time>2014-04-27T07:46:24Z</time>
      </trkpt>
      <trkpt lat="41.14242" lon="-3.47111">
        <ele>1986.22</ele>
        <time>2014-04-27T07:46:29Z</time>
      </trkpt>
      <trkpt lat="41.14248" lon="-3.47115">
        <ele>1986.7</ele>
        <time>2014-04-27T07:46:36Z</time>
      </trkpt>
      <trkpt lat="41.14251" lon="-3.47117">
        <ele>1987.18</ele>
        <time>2014-04-27T07:46:39Z</time>
      </trkpt>
      <trkpt lat="41.14263" lon="-3.47127">
        <ele>1989.59</ele>
        <time>2014-04-27T07:46:54Z</time>
      </trkpt>
      <trkpt lat="41.14269" lon="-3.47131">
        <ele>1990.55</ele>
        <time>2014-04-27T07:47:00Z</time>
      </trkpt>
      <trkpt lat="41.14276" lon="-3.47136">
        <ele>1993.91</ele>
        <time>2014-04-27T07:47:07Z</time>
      </trkpt>
      <trkpt lat="41.14277" lon="-3.47136">
        <ele>1992.47</ele>
        <time>2014-04-27T07:47:08Z</time>
      </trkpt>
      <trkpt lat="41.14279" lon="-3.47137">
        <ele>1991.99</ele>
        <time>2014-04-27T07:47:10Z</time>
      </trkpt>
      <trkpt lat="41.1428" lon="-3.47139">
        <ele>1994.39</ele>
        <time>2014-04-27T07:47:12Z</time>
      </trkpt>
      <trkpt lat="41.14282" lon="-3.4714">
        <ele>1994.39</ele>
        <time>2014-04-27T07:47:14Z</time>
      </trkpt>
      <trkpt lat="41.14291" lon="-3.47146">
        <ele>1996.32</ele>
        <time>2014-04-27T07:47:24Z</time>
      </trkpt>
      <trkpt lat="41.14293" lon="-3.47148">
        <ele>1995.83</ele>
        <time>2014-04-27T07:47:26Z</time>
      </trkpt>
      <trkpt lat="41.14308" lon="-3.47157">
        <ele>1996.32</ele>
        <time>2014-04-27T07:47:42Z</time>
      </trkpt>
      <trkpt lat="41.14319" lon="-3.47163">
        <ele>1997.28</ele>
        <time>2014-04-27T07:47:52Z</time>
      </trkpt>
      <trkpt lat="41.1432" lon="-3.47164">
        <ele>1998.24</ele>
        <time>2014-04-27T07:47:54Z</time>
      </trkpt>
      <trkpt lat="41.1433" lon="-3.47169">
        <ele>1998.24</ele>
        <time>2014-04-27T07:48:05Z</time>
      </trkpt>
      <trkpt lat="41.14334" lon="-3.47169">
        <ele>1999.2</ele>
        <time>2014-04-27T07:48:08Z</time>
      </trkpt>
      <trkpt lat="41.14336" lon="-3.47169">
        <ele>2000.16</ele>
        <time>2014-04-27T07:48:10Z</time>
      </trkpt>
      <trkpt lat="41.14337" lon="-3.4717">
        <ele>1999.68</ele>
        <time>2014-04-27T07:48:11Z</time>
      </trkpt>
      <trkpt lat="41.14346" lon="-3.4717">
        <ele>2002.56</ele>
        <time>2014-04-27T07:48:20Z</time>
      </trkpt>
      <trkpt lat="41.14351" lon="-3.47173">
        <ele>2005.45</ele>
        <time>2014-04-27T07:48:24Z</time>
      </trkpt>
      <trkpt lat="41.14356" lon="-3.47175">
        <ele>2008.81</ele>
        <time>2014-04-27T07:48:29Z</time>
      </trkpt>
      <trkpt lat="41.1436" lon="-3.47176">
        <ele>2005.93</ele>
        <time>2014-04-27T07:48:32Z</time>
      </trkpt>
      <trkpt lat="41.14368" lon="-3.47179">
        <ele>2005.93</ele>
        <time>2014-04-27T07:48:38Z</time>
      </trkpt>
      <trkpt lat="41.14382" lon="-3.47198">
        <ele>2004.49</ele>
        <time>2014-04-27T07:48:55Z</time>
      </trkpt>
      <trkpt lat="41.14388" lon="-3.47203">
        <ele>2004.97</ele>
        <time>2014-04-27T07:49:00Z</time>
      </trkpt>
      <trkpt lat="41.14406" lon="-3.47215">
        <ele>2007.37</ele>
        <time>2014-04-27T07:49:18Z</time>
      </trkpt>
      <trkpt lat="41.14413" lon="-3.47219">
        <ele>2005.93</ele>
        <time>2014-04-27T07:49:24Z</time>
      </trkpt>
      <trkpt lat="41.14431" lon="-3.47228">
        <ele>2005.93</ele>
        <time>2014-04-27T07:49:38Z</time>
      </trkpt>
      <trkpt lat="41.1445" lon="-3.47235">
        <ele>2003.52</ele>
        <time>2014-04-27T07:49:54Z</time>
      </trkpt>
      <trkpt lat="41.14452" lon="-3.47236">
        <ele>2004.01</ele>
        <time>2014-04-27T07:49:55Z</time>
      </trkpt>
      <trkpt lat="41.14461" lon="-3.4724">
        <ele>2008.81</ele>
        <time>2014-04-27T07:50:02Z</time>
      </trkpt>
      <trkpt lat="41.14462" lon="-3.4724">
        <ele>2008.81</ele>
        <time>2014-04-27T07:50:03Z</time>
      </trkpt>
      <trkpt lat="41.14469" lon="-3.47242">
        <ele>2010.25</ele>
        <time>2014-04-27T07:50:08Z</time>
      </trkpt>
      <trkpt lat="41.14488" lon="-3.47253">
        <ele>2009.29</ele>
        <time>2014-04-27T07:50:24Z</time>
      </trkpt>
      <trkpt lat="41.14504" lon="-3.47265">
        <ele>2012.18</ele>
        <time>2014-04-27T07:50:38Z</time>
      </trkpt>
      <trkpt lat="41.14511" lon="-3.47271">
        <ele>2013.14</ele>
        <time>2014-04-27T07:50:44Z</time>
      </trkpt>
      <trkpt lat="41.14527" lon="-3.47277">
        <ele>2013.14</ele>
        <time>2014-04-27T07:50:57Z</time>
      </trkpt>
      <trkpt lat="41.1455" lon="-3.47286">
        <ele>2013.14</ele>
        <time>2014-04-27T07:51:14Z</time>
      </trkpt>
      <trkpt lat="41.14563" lon="-3.47284">
        <ele>2013.62</ele>
        <time>2014-04-27T07:51:23Z</time>
      </trkpt>
      <trkpt lat="41.1457" lon="-3.47285">
        <ele>2014.58</ele>
        <time>2014-04-27T07:51:30Z</time>
      </trkpt>
      <trkpt lat="41.1458" lon="-3.47282">
        <ele>2015.06</ele>
        <time>2014-04-27T07:51:37Z</time>
      </trkpt>
      <trkpt lat="41.14586" lon="-3.47281">
        <ele>2016.02</ele>
        <time>2014-04-27T07:51:42Z</time>
      </trkpt>
      <trkpt lat="41.14589" lon="-3.47279">
        <ele>2017.46</ele>
        <time>2014-04-27T07:51:44Z</time>
      </trkpt>
      <trkpt lat="41.14606" lon="-3.47277">
        <ele>2019.39</ele>
        <time>2014-04-27T07:51:57Z</time>
      </trkpt>
      <trkpt lat="41.14616" lon="-3.47278">
        <ele>2018.91</ele>
        <time>2014-04-27T07:52:05Z</time>
      </trkpt>
      <trkpt lat="41.14637" lon="-3.47277">
        <ele>2019.39</ele>
        <time>2014-04-27T07:52:22Z</time>
      </trkpt>
      <trkpt lat="41.14651" lon="-3.47276">
        <ele>2023.23</ele>
        <time>2014-04-27T07:52:33Z</time>
      </trkpt>
      <trkpt lat="41.14659" lon="-3.47278">
        <ele>2026.12</ele>
        <time>2014-04-27T07:52:42Z</time>
      </trkpt>
      <trkpt lat="41.14658" lon="-3.4728">
        <ele>2027.56</ele>
        <time>2014-04-27T07:52:45Z</time>
      </trkpt>
      <trkpt lat="41.14657" lon="-3.47283">
        <ele>2028.52</ele>
        <time>2014-04-27T07:52:50Z</time>
      </trkpt>
      <trkpt lat="41.1465" lon="-3.47289">
        <ele>2028.52</ele>
        <time>2014-04-27T07:52:57Z</time>
      </trkpt>
      <trkpt lat="41.14645" lon="-3.47294">
        <ele>2028.04</ele>
        <time>2014-04-27T07:53:12Z</time>
      </trkpt>
      <trkpt lat="41.14645" lon="-3.47294">
        <ele>2028.04</ele>
        <time>2014-04-27T07:53:13Z</time>
      </trkpt>
      <trkpt lat="41.14636" lon="-3.47298">
        <ele>2029</ele>
        <time>2014-04-27T07:53:21Z</time>
      </trkpt>
      <trkpt lat="41.1463" lon="-3.47302">
        <ele>2029.48</ele>
        <time>2014-04-27T07:53:27Z</time>
      </trkpt>
      <trkpt lat="41.14625" lon="-3.47303">
        <ele>2029.48</ele>
        <time>2014-04-27T07:53:31Z</time>
      </trkpt>
      <trkpt lat="41.14616" lon="-3.47305">
        <ele>2028.04</ele>
        <time>2014-04-27T07:53:37Z</time>
      </trkpt>
      <trkpt lat="41.14604" lon="-3.4731">
        <ele>2029</ele>
        <time>2014-04-27T07:53:46Z</time>
      </trkpt>
      <trkpt lat="41.14597" lon="-3.47316">
        <ele>2030.92</ele>
        <time>2014-04-27T07:53:52Z</time>
      </trkpt>
      <trkpt lat="41.14589" lon="-3.47322">
        <ele>2033.81</ele>
        <time>2014-04-27T07:53:59Z</time>
      </trkpt>
      <trkpt lat="41.14577" lon="-3.47333">
        <ele>2033.81</ele>
        <time>2014-04-27T07:54:09Z</time>
      </trkpt>
      <trkpt lat="41.14557" lon="-3.47341">
        <ele>2032.84</ele>
        <time>2014-04-27T07:54:25Z</time>
      </trkpt>
      <trkpt lat="41.14546" lon="-3.47344">
        <ele>2032.84</ele>
        <time>2014-04-27T07:54:33Z</time>
      </trkpt>
      <trkpt lat="41.14524" lon="-3.47352">
        <ele>2033.81</ele>
        <time>2014-04-27T07:54:50Z</time>
      </trkpt>
      <trkpt lat="41.14505" lon="-3.47359">
        <ele>2034.29</ele>
        <time>2014-04-27T07:55:04Z</time>
      </trkpt>
      <trkpt lat="41.14482" lon="-3.47365">
        <ele>2037.17</ele>
        <time>2014-04-27T07:55:21Z</time>
      </trkpt>
      <trkpt lat="41.14463" lon="-3.47369">
        <ele>2036.21</ele>
        <time>2014-04-27T07:55:34Z</time>
      </trkpt>
      <trkpt lat="41.14439" lon="-3.47382">
        <ele>2036.69</ele>
        <time>2014-04-27T07:55:52Z</time>
      </trkpt>
      <trkpt lat="41.14432" lon="-3.47388">
        <ele>2036.69</ele>
        <time>2014-04-27T07:55:58Z</time>
      </trkpt>
      <trkpt lat="41.14429" lon="-3.47392">
        <ele>2037.65</ele>
        <time>2014-04-27T07:56:12Z</time>
      </trkpt>
      <trkpt lat="41.14429" lon="-3.47392">
        <ele>2036.69</ele>
        <time>2014-04-27T07:56:18Z</time>
      </trkpt>
      <trkpt lat="41.14408" lon="-3.47404">
        <ele>2034.29</ele>
        <time>2014-04-27T07:56:35Z</time>
      </trkpt>
      <trkpt lat="41.14405" lon="-3.47405">
        <ele>2032.84</ele>
        <time>2014-04-27T07:56:37Z</time>
      </trkpt>
      <trkpt lat="41.14398" lon="-3.47406">
        <ele>2029.96</ele>
        <time>2014-04-27T07:56:43Z</time>
      </trkpt>
      <trkpt lat="41.14395" lon="-3.47408">
        <ele>2031.88</ele>
        <time>2014-04-27T07:56:46Z</time>
      </trkpt>
      <trkpt lat="41.1439" lon="-3.47415">
        <ele>2029</ele>
        <time>2014-04-27T07:56:53Z</time>
      </trkpt>
      <trkpt lat="41.1439" lon="-3.47423">
        <ele>2028.52</ele>
        <time>2014-04-27T07:56:57Z</time>
      </trkpt>
      <trkpt lat="41.14396" lon="-3.4744">
        <ele>2024.67</ele>
        <time>2014-04-27T07:57:07Z</time>
      </trkpt>
      <trkpt lat="41.14409" lon="-3.47462">
        <ele>2023.71</ele>
        <time>2014-04-27T07:57:21Z</time>
      </trkpt>
      <trkpt lat="41.14413" lon="-3.47471">
        <ele>2022.27</ele>
        <time>2014-04-27T07:57:26Z</time>
      </trkpt>
      <trkpt lat="41.14416" lon="-3.47482">
        <ele>2026.12</ele>
        <time>2014-04-27T07:57:33Z</time>
      </trkpt>
      <trkpt lat="41.1442" lon="-3.47489">
        <ele>2022.75</ele>
        <time>2014-04-27T07:57:38Z</time>
      </trkpt>
      <trkpt lat="41.1442" lon="-3.4749">
        <ele>2024.19</ele>
        <time>2014-04-27T07:57:43Z</time>
      </trkpt>
      <trkpt lat="41.1442" lon="-3.47489">
        <ele>2020.35</ele>
        <time>2014-04-27T07:57:47Z</time>
      </trkpt>
      <trkpt lat="41.1442" lon="-3.47489">
        <ele>2021.31</ele>
        <time>2014-04-27T07:57:48Z</time>
      </trkpt>
      <trkpt lat="41.14421" lon="-3.47489">
        <ele>2025.64</ele>
        <time>2014-04-27T07:57:50Z</time>
      </trkpt>
      <trkpt lat="41.14422" lon="-3.47491">
        <ele>2022.75</ele>
        <time>2014-04-27T07:57:52Z</time>
      </trkpt>
      <trkpt lat="41.14424" lon="-3.47492">
        <ele>2024.67</ele>
        <time>2014-04-27T07:57:54Z</time>
      </trkpt>
      <trkpt lat="41.14426" lon="-3.47493">
        <ele>2021.79</ele>
        <time>2014-04-27T07:57:56Z</time>
      </trkpt>
      <trkpt lat="41.14427" lon="-3.47494">
        <ele>2017.46</ele>
        <time>2014-04-27T07:57:58Z</time>
      </trkpt>
      <trkpt lat="41.14429" lon="-3.47495">
        <ele>2018.43</ele>
        <time>2014-04-27T07:57:59Z</time>
      </trkpt>
      <trkpt lat="41.1443" lon="-3.47496">
        <ele>2018.91</ele>
        <time>2014-04-27T07:58:01Z</time>
      </trkpt>
      <trkpt lat="41.14438" lon="-3.47501">
        <ele>2016.02</ele>
        <time>2014-04-27T07:58:09Z</time>
      </trkpt>
      <trkpt lat="41.14438" lon="-3.47502">
        <ele>2016.5</ele>
        <time>2014-04-27T07:58:10Z</time>
      </trkpt>
      <trkpt lat="41.14442" lon="-3.47507">
        <ele>2014.58</ele>
        <time>2014-04-27T07:58:20Z</time>
      </trkpt>
      <trkpt lat="41.14449" lon="-3.47514">
        <ele>2011.22</ele>
        <time>2014-04-27T07:58:28Z</time>
      </trkpt>
      <trkpt lat="41.14469" lon="-3.47525">
        <ele>2007.37</ele>
        <time>2014-04-27T07:58:42Z</time>
      </trkpt>
      <trkpt lat="41.1447" lon="-3.47526">
        <ele>2007.37</ele>
        <time>2014-04-27T07:58:43Z</time>
      </trkpt>
      <trkpt lat="41.14481" lon="-3.47529">
        <ele>2004.97</ele>
        <time>2014-04-27T07:58:51Z</time>
      </trkpt>
      <trkpt lat="41.14488" lon="-3.47532">
        <ele>2005.45</ele>
        <time>2014-04-27T07:58:56Z</time>
      </trkpt>
      <trkpt lat="41.14516" lon="-3.47549">
        <ele>2004.01</ele>
        <time>2014-04-27T07:59:16Z</time>
      </trkpt>
      <trkpt lat="41.1453" lon="-3.47556">
        <ele>2004.01</ele>
        <time>2014-04-27T07:59:26Z</time>
      </trkpt>
      <trkpt lat="41.14552" lon="-3.47571">
        <ele>2003.04</ele>
        <time>2014-04-27T07:59:42Z</time>
      </trkpt>
      <trkpt lat="41.14574" lon="-3.47587">
        <ele>2002.56</ele>
        <time>2014-04-27T07:59:59Z</time>
      </trkpt>
      <trkpt lat="41.14585" lon="-3.47592">
        <ele>2000.16</ele>
        <time>2014-04-27T08:00:06Z</time>
      </trkpt>
      <trkpt lat="41.14612" lon="-3.47615">
        <ele>2001.6</ele>
        <time>2014-04-27T08:00:27Z</time>
      </trkpt>
      <trkpt lat="41.14618" lon="-3.47621">
        <ele>2001.6</ele>
        <time>2014-04-27T08:00:32Z</time>
      </trkpt>
      <trkpt lat="41.14628" lon="-3.47629">
        <ele>2000.16</ele>
        <time>2014-04-27T08:00:43Z</time>
      </trkpt>
      <trkpt lat="41.14633" lon="-3.47631">
        <ele>2001.6</ele>
        <time>2014-04-27T08:00:47Z</time>
      </trkpt>
      <trkpt lat="41.14654" lon="-3.47643">
        <ele>2000.64</ele>
        <time>2014-04-27T08:01:02Z</time>
      </trkpt>
      <trkpt lat="41.14681" lon="-3.47657">
        <ele>2001.12</ele>
        <time>2014-04-27T08:01:21Z</time>
      </trkpt>
      <trkpt lat="41.14702" lon="-3.47672">
        <ele>2001.6</ele>
        <time>2014-04-27T08:01:37Z</time>
      </trkpt>
      <trkpt lat="41.1471" lon="-3.47677">
        <ele>2001.6</ele>
        <time>2014-04-27T08:01:49Z</time>
      </trkpt>
      <trkpt lat="41.14723" lon="-3.47681">
        <ele>2004.01</ele>
        <time>2014-04-27T08:01:58Z</time>
      </trkpt>
      <trkpt lat="41.14725" lon="-3.47681">
        <ele>2000.64</ele>
        <time>2014-04-27T08:02:00Z</time>
      </trkpt>
      <trkpt lat="41.14733" lon="-3.47683">
        <ele>2000.64</ele>
        <time>2014-04-27T08:02:05Z</time>
      </trkpt>
      <trkpt lat="41.14742" lon="-3.47685">
        <ele>1997.28</ele>
        <time>2014-04-27T08:02:12Z</time>
      </trkpt>
      <trkpt lat="41.14746" lon="-3.47686">
        <ele>1998.72</ele>
        <time>2014-04-27T08:02:27Z</time>
      </trkpt>
      <trkpt lat="41.14747" lon="-3.47686">
        <ele>1994.39</ele>
        <time>2014-04-27T08:02:28Z</time>
      </trkpt>
      <trkpt lat="41.14749" lon="-3.47686">
        <ele>1994.39</ele>
        <time>2014-04-27T08:02:29Z</time>
      </trkpt>
      <trkpt lat="41.14763" lon="-3.47689">
        <ele>1997.28</ele>
        <time>2014-04-27T08:02:41Z</time>
      </trkpt>
      <trkpt lat="41.14766" lon="-3.47691">
        <ele>1995.83</ele>
        <time>2014-04-27T08:02:44Z</time>
      </trkpt>
      <trkpt lat="41.14765" lon="-3.47691">
        <ele>1999.68</ele>
        <time>2014-04-27T08:02:46Z</time>
      </trkpt>
      <trkpt lat="41.14765" lon="-3.47691">
        <ele>2000.64</ele>
        <time>2014-04-27T08:02:48Z</time>
      </trkpt>
      <trkpt lat="41.14766" lon="-3.47692">
        <ele>1999.68</ele>
        <time>2014-04-27T08:02:57Z</time>
      </trkpt>
      <trkpt lat="41.14768" lon="-3.47693">
        <ele>1997.76</ele>
        <time>2014-04-27T08:02:59Z</time>
      </trkpt>
      <trkpt lat="41.14775" lon="-3.47696">
        <ele>1997.76</ele>
        <time>2014-04-27T08:03:10Z</time>
      </trkpt>
      <trkpt lat="41.14786" lon="-3.47699">
        <ele>1997.28</ele>
        <time>2014-04-27T08:03:24Z</time>
      </trkpt>
      <trkpt lat="41.14798" lon="-3.47701">
        <ele>1997.28</ele>
        <time>2014-04-27T08:03:40Z</time>
      </trkpt>
      <trkpt lat="41.14814" lon="-3.47703">
        <ele>1993.91</ele>
        <time>2014-04-27T08:03:53Z</time>
      </trkpt>
      <trkpt lat="41.14815" lon="-3.47703">
        <ele>1994.39</ele>
        <time>2014-04-27T08:03:54Z</time>
      </trkpt>
      <trkpt lat="41.14815" lon="-3.47703">
        <ele>1995.35</ele>
        <time>2014-04-27T08:03:56Z</time>
      </trkpt>
      <trkpt lat="41.14817" lon="-3.47703">
        <ele>1995.35</ele>
        <time>2014-04-27T08:04:02Z</time>
      </trkpt>
      <trkpt lat="41.14836" lon="-3.47708">
        <ele>1994.39</ele>
        <time>2014-04-27T08:04:16Z</time>
      </trkpt>
      <trkpt lat="41.14856" lon="-3.47712">
        <ele>1991.51</ele>
        <time>2014-04-27T08:04:31Z</time>
      </trkpt>
      <trkpt lat="41.14881" lon="-3.47722">
        <ele>1991.03</ele>
        <time>2014-04-27T08:04:49Z</time>
      </trkpt>
      <trkpt lat="41.14908" lon="-3.47731">
        <ele>1990.55</ele>
        <time>2014-04-27T08:05:08Z</time>
      </trkpt>
      <trkpt lat="41.14922" lon="-3.47739">
        <ele>1987.18</ele>
        <time>2014-04-27T08:05:18Z</time>
      </trkpt>
      <trkpt lat="41.14941" lon="-3.47746">
        <ele>1986.22</ele>
        <time>2014-04-27T08:05:32Z</time>
      </trkpt>
      <trkpt lat="41.14943" lon="-3.47746">
        <ele>1985.74</ele>
        <time>2014-04-27T08:05:33Z</time>
      </trkpt>
      <trkpt lat="41.14956" lon="-3.47754">
        <ele>1987.18</ele>
        <time>2014-04-27T08:05:42Z</time>
      </trkpt>
      <trkpt lat="41.14968" lon="-3.47761">
        <ele>1985.26</ele>
        <time>2014-04-27T08:05:51Z</time>
      </trkpt>
      <trkpt lat="41.14993" lon="-3.47775">
        <ele>1983.82</ele>
        <time>2014-04-27T08:06:09Z</time>
      </trkpt>
      <trkpt lat="41.15012" lon="-3.47785">
        <ele>1982.86</ele>
        <time>2014-04-27T08:06:25Z</time>
      </trkpt>
      <trkpt lat="41.15013" lon="-3.47784">
        <ele>1983.34</ele>
        <time>2014-04-27T08:06:43Z</time>
      </trkpt>
      <trkpt lat="41.15013" lon="-3.47785">
        <ele>1983.82</ele>
        <time>2014-04-27T08:06:47Z</time>
      </trkpt>
      <trkpt lat="41.15014" lon="-3.47779">
        <ele>1983.82</ele>
        <time>2014-04-27T08:06:55Z</time>
      </trkpt>
      <trkpt lat="41.15013" lon="-3.47775">
        <ele>1985.74</ele>
        <time>2014-04-27T08:06:59Z</time>
      </trkpt>
      <trkpt lat="41.15014" lon="-3.47771">
        <ele>1988.14</ele>
        <time>2014-04-27T08:07:11Z</time>
      </trkpt>
      <trkpt lat="41.15015" lon="-3.47768">
        <ele>1990.07</ele>
        <time>2014-04-27T08:07:18Z</time>
      </trkpt>
      <trkpt lat="41.15015" lon="-3.47764">
        <ele>1991.51</ele>
        <time>2014-04-27T08:07:23Z</time>
      </trkpt>
      <trkpt lat="41.15017" lon="-3.47761">
        <ele>1993.43</ele>
        <time>2014-04-27T08:07:35Z</time>
      </trkpt>
      <trkpt lat="41.15021" lon="-3.47762">
        <ele>1993.43</ele>
        <time>2014-04-27T08:07:45Z</time>
      </trkpt>
      <trkpt lat="41.15022" lon="-3.47757">
        <ele>1995.35</ele>
        <time>2014-04-27T08:07:57Z</time>
      </trkpt>
      <trkpt lat="41.15022" lon="-3.47757">
        <ele>1995.83</ele>
        <time>2014-04-27T08:07:58Z</time>
      </trkpt>
      <trkpt lat="41.15018" lon="-3.47751">
        <ele>1997.28</ele>
        <time>2014-04-27T08:08:10Z</time>
      </trkpt>
      <trkpt lat="41.15022" lon="-3.47749">
        <ele>1998.72</ele>
        <time>2014-04-27T08:08:21Z</time>
      </trkpt>
      <trkpt lat="41.15023" lon="-3.4775">
        <ele>1997.28</ele>
        <time>2014-04-27T08:08:26Z</time>
      </trkpt>
      <trkpt lat="41.15025" lon="-3.47749">
        <ele>1998.72</ele>
        <time>2014-04-27T08:08:29Z</time>
      </trkpt>
      <trkpt lat="41.15027" lon="-3.47749">
        <ele>1999.68</ele>
        <time>2014-04-27T08:08:32Z</time>
      </trkpt>
      <trkpt lat="41.15027" lon="-3.47745">
        <ele>2002.08</ele>
        <time>2014-04-27T08:08:42Z</time>
      </trkpt>
      <trkpt lat="41.15027" lon="-3.47739">
        <ele>2003.52</ele>
        <time>2014-04-27T08:08:54Z</time>
      </trkpt>
      <trkpt lat="41.15026" lon="-3.47735">
        <ele>2004.97</ele>
        <time>2014-04-27T08:09:04Z</time>
      </trkpt>
      <trkpt lat="41.15025" lon="-3.47731">
        <ele>2006.89</ele>
        <time>2014-04-27T08:09:14Z</time>
      </trkpt>
      <trkpt lat="41.15022" lon="-3.47726">
        <ele>2008.81</ele>
        <time>2014-04-27T08:09:26Z</time>
      </trkpt>
      <trkpt lat="41.15023" lon="-3.47724">
        <ele>2010.25</ele>
        <time>2014-04-27T08:09:40Z</time>
      </trkpt>
      <trkpt lat="41.15023" lon="-3.4772">
        <ele>2013.62</ele>
        <time>2014-04-27T08:09:50Z</time>
      </trkpt>
      <trkpt lat="41.15023" lon="-3.4772">
        <ele>2012.18</ele>
        <time>2014-04-27T08:09:51Z</time>
      </trkpt>
      <trkpt lat="41.15023" lon="-3.47719">
        <ele>2013.14</ele>
        <time>2014-04-27T08:10:05Z</time>
      </trkpt>
      <trkpt lat="41.15022" lon="-3.47717">
        <ele>2014.1</ele>
        <time>2014-04-27T08:10:22Z</time>
      </trkpt>
      <trkpt lat="41.15026" lon="-3.47716">
        <ele>2014.1</ele>
        <time>2014-04-27T08:10:34Z</time>
      </trkpt>
      <trkpt lat="41.1503" lon="-3.47714">
        <ele>2016.5</ele>
        <time>2014-04-27T08:10:45Z</time>
      </trkpt>
      <trkpt lat="41.1503" lon="-3.47707">
        <ele>2019.87</ele>
        <time>2014-04-27T08:10:57Z</time>
      </trkpt>
      <trkpt lat="41.15032" lon="-3.47703">
        <ele>2020.35</ele>
        <time>2014-04-27T08:11:05Z</time>
      </trkpt>
      <trkpt lat="41.15036" lon="-3.47698">
        <ele>2024.19</ele>
        <time>2014-04-27T08:11:18Z</time>
      </trkpt>
      <trkpt lat="41.15035" lon="-3.47699">
        <ele>2024.67</ele>
        <time>2014-04-27T08:11:36Z</time>
      </trkpt>
      <trkpt lat="41.15038" lon="-3.47699">
        <ele>2023.71</ele>
        <time>2014-04-27T08:11:54Z</time>
      </trkpt>
      <trkpt lat="41.15037" lon="-3.477">
        <ele>2024.19</ele>
        <time>2014-04-27T08:12:00Z</time>
      </trkpt>
      <trkpt lat="41.15038" lon="-3.47704">
        <ele>2023.23</ele>
        <time>2014-04-27T08:12:11Z</time>
      </trkpt>
      <trkpt lat="41.15042" lon="-3.47704">
        <ele>2023.23</ele>
        <time>2014-04-27T08:12:21Z</time>
      </trkpt>
      <trkpt lat="41.15045" lon="-3.47703">
        <ele>2023.71</ele>
        <time>2014-04-27T08:12:32Z</time>
      </trkpt>
      <trkpt lat="41.15046" lon="-3.47704">
        <ele>2023.23</ele>
        <time>2014-04-27T08:12:34Z</time>
      </trkpt>
      <trkpt lat="41.1505" lon="-3.47704">
        <ele>2023.71</ele>
        <time>2014-04-27T08:12:46Z</time>
      </trkpt>
      <trkpt lat="41.15052" lon="-3.47705">
        <ele>2024.19</ele>
        <time>2014-04-27T08:12:59Z</time>
      </trkpt>
      <trkpt lat="41.15054" lon="-3.47704">
        <ele>2022.27</ele>
        <time>2014-04-27T08:13:12Z</time>
      </trkpt>
      <trkpt lat="41.15054" lon="-3.47705">
        <ele>2024.19</ele>
        <time>2014-04-27T08:13:15Z</time>
      </trkpt>
      <trkpt lat="41.15056" lon="-3.47705">
        <ele>2022.75</ele>
        <time>2014-04-27T08:13:24Z</time>
      </trkpt>
      <trkpt lat="41.15059" lon="-3.47704">
        <ele>2024.19</ele>
        <time>2014-04-27T08:13:27Z</time>
      </trkpt>
      <trkpt lat="41.1506" lon="-3.47707">
        <ele>2022.27</ele>
        <time>2014-04-27T08:13:38Z</time>
      </trkpt>
      <trkpt lat="41.15062" lon="-3.47709">
        <ele>2021.79</ele>
        <time>2014-04-27T08:13:45Z</time>
      </trkpt>
      <trkpt lat="41.15067" lon="-3.47709">
        <ele>2022.75</ele>
        <time>2014-04-27T08:13:54Z</time>
      </trkpt>
      <trkpt lat="41.1507" lon="-3.4771">
        <ele>2021.79</ele>
        <time>2014-04-27T08:13:58Z</time>
      </trkpt>
      <trkpt lat="41.15072" lon="-3.47711">
        <ele>2021.31</ele>
        <time>2014-04-27T08:14:02Z</time>
      </trkpt>
      <trkpt lat="41.15073" lon="-3.47712">
        <ele>2020.83</ele>
        <time>2014-04-27T08:14:10Z</time>
      </trkpt>
      <trkpt lat="41.15079" lon="-3.47717">
        <ele>2021.79</ele>
        <time>2014-04-27T08:14:22Z</time>
      </trkpt>
      <trkpt lat="41.15084" lon="-3.47714">
        <ele>2022.27</ele>
        <time>2014-04-27T08:14:31Z</time>
      </trkpt>
      <trkpt lat="41.15085" lon="-3.47709">
        <ele>2025.15</ele>
        <time>2014-04-27T08:14:41Z</time>
      </trkpt>
      <trkpt lat="41.15087" lon="-3.47707">
        <ele>2025.64</ele>
        <time>2014-04-27T08:14:52Z</time>
      </trkpt>
      <trkpt lat="41.15089" lon="-3.4771">
        <ele>2025.15</ele>
        <time>2014-04-27T08:15:02Z</time>
      </trkpt>
      <trkpt lat="41.15094" lon="-3.47712">
        <ele>2021.79</ele>
        <time>2014-04-27T08:15:11Z</time>
      </trkpt>
      <trkpt lat="41.15094" lon="-3.47712">
        <ele>2023.71</ele>
        <time>2014-04-27T08:15:12Z</time>
      </trkpt>
      <trkpt lat="41.15096" lon="-3.47711">
        <ele>2025.64</ele>
        <time>2014-04-27T08:15:16Z</time>
      </trkpt>
      <trkpt lat="41.15098" lon="-3.47712">
        <ele>2026.12</ele>
        <time>2014-04-27T08:15:19Z</time>
      </trkpt>
      <trkpt lat="41.151" lon="-3.47712">
        <ele>2025.64</ele>
        <time>2014-04-27T08:15:28Z</time>
      </trkpt>
      <trkpt lat="41.15102" lon="-3.47709">
        <ele>2028.04</ele>
        <time>2014-04-27T08:15:38Z</time>
      </trkpt>
      <trkpt lat="41.15104" lon="-3.47708">
        <ele>2030.44</ele>
        <time>2014-04-27T08:15:43Z</time>
      </trkpt>
      <trkpt lat="41.15107" lon="-3.4771">
        <ele>2029</ele>
        <time>2014-04-27T08:15:56Z</time>
      </trkpt>
      <trkpt lat="41.15109" lon="-3.47708">
        <ele>2029.96</ele>
        <time>2014-04-27T08:16:05Z</time>
      </trkpt>
      <trkpt lat="41.15115" lon="-3.47704">
        <ele>2031.4</ele>
        <time>2014-04-27T08:16:16Z</time>
      </trkpt>
      <trkpt lat="41.15117" lon="-3.47702">
        <ele>2032.36</ele>
        <time>2014-04-27T08:16:27Z</time>
      </trkpt>
      <trkpt lat="41.15118" lon="-3.47702">
        <ele>2032.84</ele>
        <time>2014-04-27T08:16:37Z</time>
      </trkpt>
      <trkpt lat="41.1512" lon="-3.47703">
        <ele>2032.84</ele>
        <time>2014-04-27T08:16:48Z</time>
      </trkpt>
      <trkpt lat="41.1512" lon="-3.47703">
        <ele>2032.84</ele>
        <time>2014-04-27T08:17:00Z</time>
      </trkpt>
      <trkpt lat="41.15121" lon="-3.47708">
        <ele>2031.4</ele>
        <time>2014-04-27T08:17:16Z</time>
      </trkpt>
      <trkpt lat="41.15122" lon="-3.4771">
        <ele>2031.4</ele>
        <time>2014-04-27T08:17:20Z</time>
      </trkpt>
      <trkpt lat="41.15123" lon="-3.47711">
        <ele>2030.92</ele>
        <time>2014-04-27T08:17:22Z</time>
      </trkpt>
      <trkpt lat="41.15125" lon="-3.4771">
        <ele>2029.48</ele>
        <time>2014-04-27T08:17:25Z</time>
      </trkpt>
      <trkpt lat="41.1513" lon="-3.4771">
        <ele>2030.44</ele>
        <time>2014-04-27T08:17:38Z</time>
      </trkpt>
      <trkpt lat="41.15135" lon="-3.47709">
        <ele>2032.84</ele>
        <time>2014-04-27T08:17:50Z</time>
      </trkpt>
      <trkpt lat="41.1514" lon="-3.47709">
        <ele>2033.33</ele>
        <time>2014-04-27T08:18:00Z</time>
      </trkpt>
      <trkpt lat="41.15146" lon="-3.47713">
        <ele>2032.36</ele>
        <time>2014-04-27T08:18:11Z</time>
      </trkpt>
      <trkpt lat="41.1515" lon="-3.47714">
        <ele>2031.4</ele>
        <time>2014-04-27T08:18:16Z</time>
      </trkpt>
      <trkpt lat="41.15158" lon="-3.4771">
        <ele>2033.81</ele>
        <time>2014-04-27T08:18:28Z</time>
      </trkpt>
      <trkpt lat="41.15163" lon="-3.4771">
        <ele>2033.81</ele>
        <time>2014-04-27T08:18:40Z</time>
      </trkpt>
      <trkpt lat="41.1517" lon="-3.47707">
        <ele>2037.17</ele>
        <time>2014-04-27T08:18:51Z</time>
      </trkpt>
      <trkpt lat="41.15171" lon="-3.47705">
        <ele>2037.65</ele>
        <time>2014-04-27T08:18:55Z</time>
      </trkpt>
      <trkpt lat="41.15175" lon="-3.47702">
        <ele>2038.61</ele>
        <time>2014-04-27T08:19:02Z</time>
      </trkpt>
      <trkpt lat="41.15177" lon="-3.47701">
        <ele>2039.57</ele>
        <time>2014-04-27T08:19:12Z</time>
      </trkpt>
      <trkpt lat="41.15178" lon="-3.47696">
        <ele>2042.46</ele>
        <time>2014-04-27T08:19:19Z</time>
      </trkpt>
      <trkpt lat="41.15178" lon="-3.47696">
        <ele>2042.46</ele>
        <time>2014-04-27T08:19:20Z</time>
      </trkpt>
      <trkpt lat="41.15181" lon="-3.47695">
        <ele>2043.9</ele>
        <time>2014-04-27T08:19:26Z</time>
      </trkpt>
      <trkpt lat="41.15185" lon="-3.47692">
        <ele>2044.38</ele>
        <time>2014-04-27T08:19:37Z</time>
      </trkpt>
      <trkpt lat="41.15186" lon="-3.47692">
        <ele>2045.82</ele>
        <time>2014-04-27T08:19:38Z</time>
      </trkpt>
      <trkpt lat="41.15188" lon="-3.47689">
        <ele>2046.3</ele>
        <time>2014-04-27T08:19:42Z</time>
      </trkpt>
      <trkpt lat="41.15188" lon="-3.47686">
        <ele>2048.23</ele>
        <time>2014-04-27T08:19:46Z</time>
      </trkpt>
      <trkpt lat="41.15194" lon="-3.47686">
        <ele>2050.15</ele>
        <time>2014-04-27T08:19:58Z</time>
      </trkpt>
      <trkpt lat="41.152" lon="-3.47683">
        <ele>2051.59</ele>
        <time>2014-04-27T08:20:08Z</time>
      </trkpt>
      <trkpt lat="41.15203" lon="-3.47681">
        <ele>2052.07</ele>
        <time>2014-04-27T08:20:17Z</time>
      </trkpt>
      <trkpt lat="41.15206" lon="-3.47675">
        <ele>2054.96</ele>
        <time>2014-04-27T08:20:25Z</time>
      </trkpt>
      <trkpt lat="41.15207" lon="-3.47675">
        <ele>2054.96</ele>
        <time>2014-04-27T08:20:35Z</time>
      </trkpt>
      <trkpt lat="41.1521" lon="-3.47673">
        <ele>2057.84</ele>
        <time>2014-04-27T08:20:45Z</time>
      </trkpt>
      <trkpt lat="41.15216" lon="-3.47671">
        <ele>2060.24</ele>
        <time>2014-04-27T08:20:57Z</time>
      </trkpt>
      <trkpt lat="41.1522" lon="-3.47666">
        <ele>2061.68</ele>
        <time>2014-04-27T08:21:08Z</time>
      </trkpt>
      <trkpt lat="41.15224" lon="-3.47665">
        <ele>2063.13</ele>
        <time>2014-04-27T08:21:14Z</time>
      </trkpt>
      <trkpt lat="41.15229" lon="-3.47665">
        <ele>2064.57</ele>
        <time>2014-04-27T08:21:23Z</time>
      </trkpt>
      <trkpt lat="41.1523" lon="-3.47665">
        <ele>2062.65</ele>
        <time>2014-04-27T08:21:25Z</time>
      </trkpt>
      <trkpt lat="41.15234" lon="-3.47666">
        <ele>2062.17</ele>
        <time>2014-04-27T08:21:31Z</time>
      </trkpt>
      <trkpt lat="41.15236" lon="-3.47665">
        <ele>2064.57</ele>
        <time>2014-04-27T08:21:35Z</time>
      </trkpt>
      <trkpt lat="41.15242" lon="-3.47662">
        <ele>2066.49</ele>
        <time>2014-04-27T08:21:47Z</time>
      </trkpt>
      <trkpt lat="41.15247" lon="-3.47659">
        <ele>2069.86</ele>
        <time>2014-04-27T08:21:55Z</time>
      </trkpt>
      <trkpt lat="41.15247" lon="-3.47659">
        <ele>2068.89</ele>
        <time>2014-04-27T08:21:56Z</time>
      </trkpt>
      <trkpt lat="41.15247" lon="-3.47659">
        <ele>2065.53</ele>
        <time>2014-04-27T08:22:01Z</time>
      </trkpt>
      <trkpt lat="41.15247" lon="-3.47659">
        <ele>2066.01</ele>
        <time>2014-04-27T08:22:02Z</time>
      </trkpt>
      <trkpt lat="41.15247" lon="-3.47659">
        <ele>2067.45</ele>
        <time>2014-04-27T08:22:04Z</time>
      </trkpt>
      <trkpt lat="41.15247" lon="-3.47656">
        <ele>2067.93</ele>
        <time>2014-04-27T08:22:15Z</time>
      </trkpt>
      <trkpt lat="41.15248" lon="-3.47656">
        <ele>2066.01</ele>
        <time>2014-04-27T08:22:24Z</time>
      </trkpt>
      <trkpt lat="41.15248" lon="-3.47659">
        <ele>2063.61</ele>
        <time>2014-04-27T08:22:34Z</time>
      </trkpt>
      <trkpt lat="41.15248" lon="-3.47659">
        <ele>2064.09</ele>
        <time>2014-04-27T08:22:35Z</time>
      </trkpt>
      <trkpt lat="41.15247" lon="-3.4766">
        <ele>2065.53</ele>
        <time>2014-04-27T08:22:37Z</time>
      </trkpt>
      <trkpt lat="41.15247" lon="-3.47659">
        <ele>2066.97</ele>
        <time>2014-04-27T08:22:40Z</time>
      </trkpt>
      <trkpt lat="41.15252" lon="-3.4766">
        <ele>2068.41</ele>
        <time>2014-04-27T08:22:52Z</time>
      </trkpt>
      <trkpt lat="41.15257" lon="-3.47657">
        <ele>2069.86</ele>
        <time>2014-04-27T08:23:01Z</time>
      </trkpt>
      <trkpt lat="41.15261" lon="-3.47656">
        <ele>2071.78</ele>
        <time>2014-04-27T08:23:09Z</time>
      </trkpt>
      <trkpt lat="41.15262" lon="-3.47653">
        <ele>2073.22</ele>
        <time>2014-04-27T08:23:12Z</time>
      </trkpt>
      <trkpt lat="41.15262" lon="-3.47651">
        <ele>2073.22</ele>
        <time>2014-04-27T08:23:15Z</time>
      </trkpt>
      <trkpt lat="41.15267" lon="-3.47646">
        <ele>2075.14</ele>
        <time>2014-04-27T08:23:26Z</time>
      </trkpt>
      <trkpt lat="41.15273" lon="-3.47645">
        <ele>2075.62</ele>
        <time>2014-04-27T08:23:37Z</time>
      </trkpt>
      <trkpt lat="41.15276" lon="-3.47646">
        <ele>2076.59</ele>
        <time>2014-04-27T08:23:41Z</time>
      </trkpt>
      <trkpt lat="41.1528" lon="-3.47645">
        <ele>2076.59</ele>
        <time>2014-04-27T08:23:52Z</time>
      </trkpt>
      <trkpt lat="41.1528" lon="-3.47645">
        <ele>2080.91</ele>
        <time>2014-04-27T08:23:56Z</time>
      </trkpt>
      <trkpt lat="41.1528" lon="-3.47646">
        <ele>2079.47</ele>
        <time>2014-04-27T08:23:57Z</time>
      </trkpt>
      <trkpt lat="41.15288" lon="-3.47642">
        <ele>2080.91</ele>
        <time>2014-04-27T08:24:09Z</time>
      </trkpt>
      <trkpt lat="41.15292" lon="-3.4764">
        <ele>2081.87</ele>
        <time>2014-04-27T08:24:16Z</time>
      </trkpt>
      <trkpt lat="41.15292" lon="-3.47638">
        <ele>2083.31</ele>
        <time>2014-04-27T08:24:18Z</time>
      </trkpt>
      <trkpt lat="41.15293" lon="-3.47638">
        <ele>2080.43</ele>
        <time>2014-04-27T08:24:21Z</time>
      </trkpt>
      <trkpt lat="41.15294" lon="-3.47638">
        <ele>2081.87</ele>
        <time>2014-04-27T08:24:23Z</time>
      </trkpt>
      <trkpt lat="41.15297" lon="-3.47639">
        <ele>2082.83</ele>
        <time>2014-04-27T08:24:27Z</time>
      </trkpt>
      <trkpt lat="41.15302" lon="-3.47638">
        <ele>2084.28</ele>
        <time>2014-04-27T08:24:34Z</time>
      </trkpt>
      <trkpt lat="41.15307" lon="-3.47636">
        <ele>2085.24</ele>
        <time>2014-04-27T08:24:45Z</time>
      </trkpt>
      <trkpt lat="41.15313" lon="-3.47635">
        <ele>2087.16</ele>
        <time>2014-04-27T08:24:56Z</time>
      </trkpt>
      <trkpt lat="41.15315" lon="-3.47631">
        <ele>2090.04</ele>
        <time>2014-04-27T08:25:08Z</time>
      </trkpt>
      <trkpt lat="41.15317" lon="-3.4763">
        <ele>2091.49</ele>
        <time>2014-04-27T08:25:15Z</time>
      </trkpt>
      <trkpt lat="41.15319" lon="-3.47626">
        <ele>2093.89</ele>
        <time>2014-04-27T08:25:25Z</time>
      </trkpt>
      <trkpt lat="41.1532" lon="-3.47624">
        <ele>2094.85</ele>
        <time>2014-04-27T08:25:29Z</time>
      </trkpt>
      <trkpt lat="41.15325" lon="-3.47623">
        <ele>2095.33</ele>
        <time>2014-04-27T08:25:40Z</time>
      </trkpt>
      <trkpt lat="41.15326" lon="-3.47624">
        <ele>2094.85</ele>
        <time>2014-04-27T08:25:42Z</time>
      </trkpt>
      <trkpt lat="41.15327" lon="-3.47623">
        <ele>2095.33</ele>
        <time>2014-04-27T08:25:43Z</time>
      </trkpt>
      <trkpt lat="41.15328" lon="-3.47621">
        <ele>2096.77</ele>
        <time>2014-04-27T08:25:46Z</time>
      </trkpt>
      <trkpt lat="41.15329" lon="-3.47618">
        <ele>2100.14</ele>
        <time>2014-04-27T08:25:58Z</time>
      </trkpt>
      <trkpt lat="41.15332" lon="-3.47615">
        <ele>2099.66</ele>
        <time>2014-04-27T08:26:10Z</time>
      </trkpt>
      <trkpt lat="41.15336" lon="-3.47613">
        <ele>2099.18</ele>
        <time>2014-04-27T08:26:21Z</time>
      </trkpt>
      <trkpt lat="41.15339" lon="-3.4761">
        <ele>2101.58</ele>
        <time>2014-04-27T08:26:25Z</time>
      </trkpt>
      <trkpt lat="41.1534" lon="-3.47611">
        <ele>2102.06</ele>
        <time>2014-04-27T08:26:42Z</time>
      </trkpt>
      <trkpt lat="41.15345" lon="-3.47611">
        <ele>2103.5</ele>
        <time>2014-04-27T08:26:54Z</time>
      </trkpt>
      <trkpt lat="41.15347" lon="-3.4761">
        <ele>2102.54</ele>
        <time>2014-04-27T08:26:58Z</time>
      </trkpt>
      <trkpt lat="41.15352" lon="-3.47607">
        <ele>2106.39</ele>
        <time>2014-04-27T08:27:06Z</time>
      </trkpt>
      <trkpt lat="41.15359" lon="-3.47604">
        <ele>2107.35</ele>
        <time>2014-04-27T08:27:20Z</time>
      </trkpt>
      <trkpt lat="41.15363" lon="-3.476">
        <ele>2109.27</ele>
        <time>2014-04-27T08:27:32Z</time>
      </trkpt>
      <trkpt lat="41.15364" lon="-3.47599">
        <ele>2112.63</ele>
        <time>2014-04-27T08:27:34Z</time>
      </trkpt>
      <trkpt lat="41.15364" lon="-3.47598">
        <ele>2111.67</ele>
        <time>2014-04-27T08:27:35Z</time>
      </trkpt>
      <trkpt lat="41.15366" lon="-3.47596">
        <ele>2113.12</ele>
        <time>2014-04-27T08:27:47Z</time>
      </trkpt>
      <trkpt lat="41.15367" lon="-3.47596">
        <ele>2111.19</ele>
        <time>2014-04-27T08:27:49Z</time>
      </trkpt>
      <trkpt lat="41.1537" lon="-3.47591">
        <ele>2115.52</ele>
        <time>2014-04-27T08:27:59Z</time>
      </trkpt>
      <trkpt lat="41.1537" lon="-3.47592">
        <ele>2114.56</ele>
        <time>2014-04-27T08:28:00Z</time>
      </trkpt>
      <trkpt lat="41.15374" lon="-3.47589">
        <ele>2115.52</ele>
        <time>2014-04-27T08:28:13Z</time>
      </trkpt>
      <trkpt lat="41.15374" lon="-3.47587">
        <ele>2116.96</ele>
        <time>2014-04-27T08:28:18Z</time>
      </trkpt>
      <trkpt lat="41.15378" lon="-3.47582">
        <ele>2118.88</ele>
        <time>2014-04-27T08:28:31Z</time>
      </trkpt>
      <trkpt lat="41.1538" lon="-3.47581">
        <ele>2118.4</ele>
        <time>2014-04-27T08:28:42Z</time>
      </trkpt>
      <trkpt lat="41.1538" lon="-3.47581">
        <ele>2119.84</ele>
        <time>2014-04-27T08:28:45Z</time>
      </trkpt>
      <trkpt lat="41.1538" lon="-3.47581">
        <ele>2118.88</ele>
        <time>2014-04-27T08:28:47Z</time>
      </trkpt>
      <trkpt lat="41.1538" lon="-3.4758">
        <ele>2120.32</ele>
        <time>2014-04-27T08:28:53Z</time>
      </trkpt>
      <trkpt lat="41.1538" lon="-3.47576">
        <ele>2123.69</ele>
        <time>2014-04-27T08:29:03Z</time>
      </trkpt>
      <trkpt lat="41.1538" lon="-3.47576">
        <ele>2122.73</ele>
        <time>2014-04-27T08:29:04Z</time>
      </trkpt>
      <trkpt lat="41.15381" lon="-3.47575">
        <ele>2121.29</ele>
        <time>2014-04-27T08:29:24Z</time>
      </trkpt>
      <trkpt lat="41.15382" lon="-3.47576">
        <ele>2123.21</ele>
        <time>2014-04-27T08:29:49Z</time>
      </trkpt>
      <trkpt lat="41.1538" lon="-3.47578">
        <ele>2121.77</ele>
        <time>2014-04-27T08:30:15Z</time>
      </trkpt>
      <trkpt lat="41.1538" lon="-3.47577">
        <ele>2121.77</ele>
        <time>2014-04-27T08:30:34Z</time>
      </trkpt>
      <trkpt lat="41.15385" lon="-3.47578">
        <ele>2122.25</ele>
        <time>2014-04-27T08:30:45Z</time>
      </trkpt>
      <trkpt lat="41.15389" lon="-3.47576">
        <ele>2124.17</ele>
        <time>2014-04-27T08:31:00Z</time>
      </trkpt>
      <trkpt lat="41.15394" lon="-3.47575">
        <ele>2125.13</ele>
        <time>2014-04-27T08:31:14Z</time>
      </trkpt>
      <trkpt lat="41.15397" lon="-3.47571">
        <ele>2127.05</ele>
        <time>2014-04-27T08:31:26Z</time>
      </trkpt>
      <trkpt lat="41.15399" lon="-3.47572">
        <ele>2127.53</ele>
        <time>2014-04-27T08:31:42Z</time>
      </trkpt>
      <trkpt lat="41.15399" lon="-3.47571">
        <ele>2124.65</ele>
        <time>2014-04-27T08:31:56Z</time>
      </trkpt>
      <trkpt lat="41.15398" lon="-3.47571">
        <ele>2128.02</ele>
        <time>2014-04-27T08:32:00Z</time>
      </trkpt>
      <trkpt lat="41.15399" lon="-3.47571">
        <ele>2124.17</ele>
        <time>2014-04-27T08:32:08Z</time>
      </trkpt>
      <trkpt lat="41.15399" lon="-3.4757">
        <ele>2127.53</ele>
        <time>2014-04-27T08:32:09Z</time>
      </trkpt>
      <trkpt lat="41.15399" lon="-3.47569">
        <ele>2127.53</ele>
        <time>2014-04-27T08:32:10Z</time>
      </trkpt>
      <trkpt lat="41.154" lon="-3.47567">
        <ele>2128.5</ele>
        <time>2014-04-27T08:32:28Z</time>
      </trkpt>
      <trkpt lat="41.154" lon="-3.47569">
        <ele>2128.02</ele>
        <time>2014-04-27T08:32:42Z</time>
      </trkpt>
      <trkpt lat="41.15402" lon="-3.47564">
        <ele>2130.42</ele>
        <time>2014-04-27T08:32:57Z</time>
      </trkpt>
      <trkpt lat="41.15402" lon="-3.47564">
        <ele>2129.94</ele>
        <time>2014-04-27T08:32:58Z</time>
      </trkpt>
      <trkpt lat="41.15402" lon="-3.4756">
        <ele>2132.82</ele>
        <time>2014-04-27T08:33:12Z</time>
      </trkpt>
      <trkpt lat="41.15402" lon="-3.47553">
        <ele>2135.23</ele>
        <time>2014-04-27T08:33:25Z</time>
      </trkpt>
      <trkpt lat="41.15403" lon="-3.47553">
        <ele>2135.71</ele>
        <time>2014-04-27T08:33:29Z</time>
      </trkpt>
      <trkpt lat="41.15406" lon="-3.47549">
        <ele>2139.55</ele>
        <time>2014-04-27T08:33:40Z</time>
      </trkpt>
      <trkpt lat="41.15407" lon="-3.47546">
        <ele>2136.67</ele>
        <time>2014-04-27T08:33:45Z</time>
      </trkpt>
      <trkpt lat="41.1541" lon="-3.47544">
        <ele>2139.55</ele>
        <time>2014-04-27T08:33:55Z</time>
      </trkpt>
      <trkpt lat="41.15412" lon="-3.47544">
        <ele>2139.55</ele>
        <time>2014-04-27T08:34:00Z</time>
      </trkpt>
      <trkpt lat="41.15414" lon="-3.47541">
        <ele>2142.44</ele>
        <time>2014-04-27T08:34:05Z</time>
      </trkpt>
      <trkpt lat="41.15416" lon="-3.47538">
        <ele>2143.88</ele>
        <time>2014-04-27T08:34:11Z</time>
      </trkpt>
      <trkpt lat="41.15417" lon="-3.47538">
        <ele>2144.36</ele>
        <time>2014-04-27T08:34:14Z</time>
      </trkpt>
      <trkpt lat="41.15419" lon="-3.47532">
        <ele>2144.84</ele>
        <time>2014-04-27T08:34:25Z</time>
      </trkpt>
      <trkpt lat="41.15423" lon="-3.4753">
        <ele>2148.2</ele>
        <time>2014-04-27T08:34:32Z</time>
      </trkpt>
      <trkpt lat="41.15428" lon="-3.47524">
        <ele>2150.13</ele>
        <time>2014-04-27T08:34:45Z</time>
      </trkpt>
      <trkpt lat="41.15428" lon="-3.47525">
        <ele>2150.13</ele>
        <time>2014-04-27T08:35:03Z</time>
      </trkpt>
      <trkpt lat="41.1543" lon="-3.47525">
        <ele>2153.49</ele>
        <time>2014-04-27T08:35:08Z</time>
      </trkpt>
      <trkpt lat="41.1543" lon="-3.47525">
        <ele>2153.49</ele>
        <time>2014-04-27T08:35:09Z</time>
      </trkpt>
      <trkpt lat="41.1543" lon="-3.47527">
        <ele>2151.57</ele>
        <time>2014-04-27T08:35:32Z</time>
      </trkpt>
      <trkpt lat="41.1543" lon="-3.47527">
        <ele>2152.05</ele>
        <time>2014-04-27T08:35:36Z</time>
      </trkpt>
      <trkpt lat="41.15431" lon="-3.47524">
        <ele>2152.53</ele>
        <time>2014-04-27T08:35:52Z</time>
      </trkpt>
      <trkpt lat="41.15429" lon="-3.47522">
        <ele>2153.01</ele>
        <time>2014-04-27T08:36:15Z</time>
      </trkpt>
      <trkpt lat="41.15429" lon="-3.47525">
        <ele>2152.53</ele>
        <time>2014-04-27T08:36:39Z</time>
      </trkpt>
      <trkpt lat="41.15429" lon="-3.47523">
        <ele>2151.57</ele>
        <time>2014-04-27T08:36:47Z</time>
      </trkpt>
      <trkpt lat="41.15431" lon="-3.47521">
        <ele>2153.01</ele>
        <time>2014-04-27T08:37:06Z</time>
      </trkpt>
      <trkpt lat="41.1543" lon="-3.47515">
        <ele>2155.89</ele>
        <time>2014-04-27T08:37:15Z</time>
      </trkpt>
      <trkpt lat="41.15429" lon="-3.47509">
        <ele>2155.89</ele>
        <time>2014-04-27T08:37:30Z</time>
      </trkpt>
      <trkpt lat="41.15429" lon="-3.47506">
        <ele>2157.34</ele>
        <time>2014-04-27T08:37:34Z</time>
      </trkpt>
      <trkpt lat="41.1543" lon="-3.47501">
        <ele>2158.78</ele>
        <time>2014-04-27T08:37:45Z</time>
      </trkpt>
      <trkpt lat="41.15433" lon="-3.47496">
        <ele>2161.18</ele>
        <time>2014-04-27T08:37:56Z</time>
      </trkpt>
      <trkpt lat="41.15434" lon="-3.47491">
        <ele>2164.06</ele>
        <time>2014-04-27T08:38:09Z</time>
      </trkpt>
      <trkpt lat="41.15433" lon="-3.47486">
        <ele>2164.06</ele>
        <time>2014-04-27T08:38:21Z</time>
      </trkpt>
      <trkpt lat="41.15433" lon="-3.47482">
        <ele>2166.95</ele>
        <time>2014-04-27T08:38:34Z</time>
      </trkpt>
      <trkpt lat="41.15431" lon="-3.47478">
        <ele>2167.91</ele>
        <time>2014-04-27T08:38:46Z</time>
      </trkpt>
      <trkpt lat="41.1543" lon="-3.47475">
        <ele>2171.27</ele>
        <time>2014-04-27T08:38:54Z</time>
      </trkpt>
      <trkpt lat="41.1543" lon="-3.47475">
        <ele>2169.83</ele>
        <time>2014-04-27T08:38:55Z</time>
      </trkpt>
      <trkpt lat="41.15429" lon="-3.47473">
        <ele>2172.24</ele>
        <time>2014-04-27T08:39:07Z</time>
      </trkpt>
      <trkpt lat="41.15428" lon="-3.47466">
        <ele>2174.16</ele>
        <time>2014-04-27T08:39:20Z</time>
      </trkpt>
      <trkpt lat="41.15429" lon="-3.47464">
        <ele>2176.08</ele>
        <time>2014-04-27T08:39:30Z</time>
      </trkpt>
      <trkpt lat="41.1543" lon="-3.47461">
        <ele>2177.52</ele>
        <time>2014-04-27T08:39:43Z</time>
      </trkpt>
      <trkpt lat="41.15431" lon="-3.47458">
        <ele>2178.97</ele>
        <time>2014-04-27T08:39:57Z</time>
      </trkpt>
      <trkpt lat="41.1543" lon="-3.4746">
        <ele>2175.6</ele>
        <time>2014-04-27T08:40:05Z</time>
      </trkpt>
      <trkpt lat="41.15431" lon="-3.47458">
        <ele>2178.48</ele>
        <time>2014-04-27T08:40:07Z</time>
      </trkpt>
      <trkpt lat="41.15431" lon="-3.47457">
        <ele>2179.93</ele>
        <time>2014-04-27T08:40:09Z</time>
      </trkpt>
      <trkpt lat="41.15433" lon="-3.47457">
        <ele>2176.56</ele>
        <time>2014-04-27T08:40:15Z</time>
      </trkpt>
      <trkpt lat="41.15434" lon="-3.47455">
        <ele>2180.41</ele>
        <time>2014-04-27T08:40:18Z</time>
      </trkpt>
      <trkpt lat="41.15435" lon="-3.47453">
        <ele>2180.89</ele>
        <time>2014-04-27T08:40:22Z</time>
      </trkpt>
      <trkpt lat="41.15435" lon="-3.47451">
        <ele>2178.48</ele>
        <time>2014-04-27T08:40:27Z</time>
      </trkpt>
      <trkpt lat="41.15436" lon="-3.47449">
        <ele>2181.85</ele>
        <time>2014-04-27T08:40:30Z</time>
      </trkpt>
      <trkpt lat="41.15435" lon="-3.47446">
        <ele>2181.37</ele>
        <time>2014-04-27T08:40:41Z</time>
      </trkpt>
      <trkpt lat="41.15435" lon="-3.47446">
        <ele>2183.77</ele>
        <time>2014-04-27T08:40:44Z</time>
      </trkpt>
      <trkpt lat="41.15434" lon="-3.47445">
        <ele>2186.18</ele>
        <time>2014-04-27T08:40:47Z</time>
      </trkpt>
      <trkpt lat="41.15432" lon="-3.47444">
        <ele>2184.73</ele>
        <time>2014-04-27T08:41:03Z</time>
      </trkpt>
      <trkpt lat="41.1543" lon="-3.47446">
        <ele>2185.21</ele>
        <time>2014-04-27T08:41:23Z</time>
      </trkpt>
      <trkpt lat="41.15431" lon="-3.47445">
        <ele>2184.73</ele>
        <time>2014-04-27T08:41:37Z</time>
      </trkpt>
      <trkpt lat="41.1543" lon="-3.47445">
        <ele>2183.29</ele>
        <time>2014-04-27T08:41:42Z</time>
      </trkpt>
      <trkpt lat="41.1543" lon="-3.47444">
        <ele>2186.18</ele>
        <time>2014-04-27T08:41:51Z</time>
      </trkpt>
      <trkpt lat="41.15429" lon="-3.47443">
        <ele>2188.1</ele>
        <time>2014-04-27T08:41:56Z</time>
      </trkpt>
      <trkpt lat="41.15433" lon="-3.47441">
        <ele>2188.1</ele>
        <time>2014-04-27T08:42:05Z</time>
      </trkpt>
      <trkpt lat="41.15434" lon="-3.47439">
        <ele>2190.02</ele>
        <time>2014-04-27T08:42:08Z</time>
      </trkpt>
      <trkpt lat="41.15434" lon="-3.47439">
        <ele>2190.5</ele>
        <time>2014-04-27T08:42:14Z</time>
      </trkpt>
      <trkpt lat="41.15431" lon="-3.47439">
        <ele>2193.87</ele>
        <time>2014-04-27T08:42:18Z</time>
      </trkpt>
      <trkpt lat="41.15431" lon="-3.47438">
        <ele>2193.87</ele>
        <time>2014-04-27T08:42:19Z</time>
      </trkpt>
      <trkpt lat="41.15428" lon="-3.47435">
        <ele>2194.35</ele>
        <time>2014-04-27T08:42:32Z</time>
      </trkpt>
      <trkpt lat="41.15427" lon="-3.47435">
        <ele>2198.19</ele>
        <time>2014-04-27T08:42:34Z</time>
      </trkpt>
      <trkpt lat="41.15427" lon="-3.47435">
        <ele>2198.19</ele>
        <time>2014-04-27T08:42:35Z</time>
      </trkpt>
      <trkpt lat="41.15422" lon="-3.47436">
        <ele>2199.15</ele>
        <time>2014-04-27T08:42:43Z</time>
      </trkpt>
      <trkpt lat="41.15423" lon="-3.47438">
        <ele>2195.79</ele>
        <time>2014-04-27T08:42:52Z</time>
      </trkpt>
      <trkpt lat="41.15423" lon="-3.47437">
        <ele>2196.75</ele>
        <time>2014-04-27T08:42:53Z</time>
      </trkpt>
      <trkpt lat="41.15423" lon="-3.47436">
        <ele>2201.08</ele>
        <time>2014-04-27T08:42:54Z</time>
      </trkpt>
      <trkpt lat="41.15424" lon="-3.47434">
        <ele>2202.04</ele>
        <time>2014-04-27T08:42:56Z</time>
      </trkpt>
      <trkpt lat="41.15423" lon="-3.47434">
        <ele>2203.48</ele>
        <time>2014-04-27T08:42:58Z</time>
      </trkpt>
      <trkpt lat="41.15421" lon="-3.47434">
        <ele>2205.88</ele>
        <time>2014-04-27T08:43:03Z</time>
      </trkpt>
      <trkpt lat="41.15422" lon="-3.47431">
        <ele>2209.73</ele>
        <time>2014-04-27T08:43:08Z</time>
      </trkpt>
      <trkpt lat="41.15422" lon="-3.47431">
        <ele>2208.77</ele>
        <time>2014-04-27T08:43:09Z</time>
      </trkpt>
      <trkpt lat="41.15421" lon="-3.4743">
        <ele>2205.4</ele>
        <time>2014-04-27T08:43:11Z</time>
      </trkpt>
      <trkpt lat="41.15418" lon="-3.47428">
        <ele>2208.29</ele>
        <time>2014-04-27T08:43:22Z</time>
      </trkpt>
      <trkpt lat="41.15416" lon="-3.47428">
        <ele>2209.73</ele>
        <time>2014-04-27T08:43:24Z</time>
      </trkpt>
      <trkpt lat="41.1541" lon="-3.47427">
        <ele>2209.73</ele>
        <time>2014-04-27T08:43:35Z</time>
      </trkpt>
      <trkpt lat="41.15409" lon="-3.47428">
        <ele>2214.53</ele>
        <time>2014-04-27T08:43:37Z</time>
      </trkpt>
      <trkpt lat="41.15408" lon="-3.47428">
        <ele>2213.57</ele>
        <time>2014-04-27T08:43:38Z</time>
      </trkpt>
      <trkpt lat="41.15406" lon="-3.47427">
        <ele>2217.42</ele>
        <time>2014-04-27T08:43:44Z</time>
      </trkpt>
      <trkpt lat="41.15406" lon="-3.47426">
        <ele>2216.94</ele>
        <time>2014-04-27T08:43:45Z</time>
      </trkpt>
      <trkpt lat="41.15403" lon="-3.47426">
        <ele>2216.94</ele>
        <time>2014-04-27T08:43:53Z</time>
      </trkpt>
      <trkpt lat="41.15402" lon="-3.47426">
        <ele>2216.46</ele>
        <time>2014-04-27T08:43:57Z</time>
      </trkpt>
      <trkpt lat="41.15401" lon="-3.47427">
        <ele>2216.94</ele>
        <time>2014-04-27T08:43:59Z</time>
      </trkpt>
      <trkpt lat="41.154" lon="-3.47426">
        <ele>2220.3</ele>
        <time>2014-04-27T08:44:04Z</time>
      </trkpt>
      <trkpt lat="41.154" lon="-3.47426">
        <ele>2221.74</ele>
        <time>2014-04-27T08:44:12Z</time>
      </trkpt>
      <trkpt lat="41.15401" lon="-3.47425">
        <ele>2221.74</ele>
        <time>2014-04-27T08:44:20Z</time>
      </trkpt>
      <trkpt lat="41.15401" lon="-3.47423">
        <ele>2218.38</ele>
        <time>2014-04-27T08:44:27Z</time>
      </trkpt>
      <trkpt lat="41.15401" lon="-3.47422">
        <ele>2220.3</ele>
        <time>2014-04-27T08:44:35Z</time>
      </trkpt>
      <trkpt lat="41.15401" lon="-3.47423">
        <ele>2221.26</ele>
        <time>2014-04-27T08:44:37Z</time>
      </trkpt>
      <trkpt lat="41.15391" lon="-3.47423">
        <ele>2216.94</ele>
        <time>2014-04-27T08:44:50Z</time>
      </trkpt>
      <trkpt lat="41.1539" lon="-3.47423">
        <ele>2212.61</ele>
        <time>2014-04-27T08:44:53Z</time>
      </trkpt>
      <trkpt lat="41.15386" lon="-3.47419">
        <ele>2212.61</ele>
        <time>2014-04-27T08:45:01Z</time>
      </trkpt>
      <trkpt lat="41.1538" lon="-3.47409">
        <ele>2212.13</ele>
        <time>2014-04-27T08:45:14Z</time>
      </trkpt>
      <trkpt lat="41.1538" lon="-3.47409">
        <ele>2215.98</ele>
        <time>2014-04-27T08:45:15Z</time>
      </trkpt>
      <trkpt lat="41.15379" lon="-3.47409">
        <ele>2212.61</ele>
        <time>2014-04-27T08:45:17Z</time>
      </trkpt>
      <trkpt lat="41.15376" lon="-3.47412">
        <ele>2218.38</ele>
        <time>2014-04-27T08:45:31Z</time>
      </trkpt>
      <trkpt lat="41.15375" lon="-3.47411">
        <ele>2215.01</ele>
        <time>2014-04-27T08:45:39Z</time>
      </trkpt>
      <trkpt lat="41.15375" lon="-3.47409">
        <ele>2212.13</ele>
        <time>2014-04-27T08:45:56Z</time>
      </trkpt>
      <trkpt lat="41.15375" lon="-3.47409">
        <ele>2212.13</ele>
        <time>2014-04-27T08:45:57Z</time>
      </trkpt>
      <trkpt lat="41.15375" lon="-3.47407">
        <ele>2211.17</ele>
        <time>2014-04-27T08:46:01Z</time>
      </trkpt>
      <trkpt lat="41.15375" lon="-3.47407">
        <ele>2212.61</ele>
        <time>2014-04-27T08:46:03Z</time>
      </trkpt>
      <trkpt lat="41.15375" lon="-3.47407">
        <ele>2215.98</ele>
        <time>2014-04-27T08:46:28Z</time>
      </trkpt>
      <trkpt lat="41.15374" lon="-3.47408">
        <ele>2215.01</ele>
        <time>2014-04-27T08:46:32Z</time>
      </trkpt>
      <trkpt lat="41.15374" lon="-3.4741">
        <ele>2213.57</ele>
        <time>2014-04-27T08:46:34Z</time>
      </trkpt>
      <trkpt lat="41.15375" lon="-3.47411">
        <ele>2215.5</ele>
        <time>2014-04-27T08:46:36Z</time>
      </trkpt>
      <trkpt lat="41.15376" lon="-3.47413">
        <ele>2211.65</ele>
        <time>2014-04-27T08:46:40Z</time>
      </trkpt>
      <trkpt lat="41.15376" lon="-3.47411">
        <ele>2215.98</ele>
        <time>2014-04-27T08:46:49Z</time>
      </trkpt>
      <trkpt lat="41.15376" lon="-3.47411">
        <ele>2215.5</ele>
        <time>2014-04-27T08:46:50Z</time>
      </trkpt>
      <trkpt lat="41.15376" lon="-3.47411">
        <ele>2217.9</ele>
        <time>2014-04-27T08:46:55Z</time>
      </trkpt>
      <trkpt lat="41.15377" lon="-3.47412">
        <ele>2213.09</ele>
        <time>2014-04-27T08:47:09Z</time>
      </trkpt>
      <trkpt lat="41.15377" lon="-3.47412">
        <ele>2214.05</ele>
        <time>2014-04-27T08:47:10Z</time>
      </trkpt>
      <trkpt lat="41.15376" lon="-3.47412">
        <ele>2217.42</ele>
        <time>2014-04-27T08:47:16Z</time>
      </trkpt>
      <trkpt lat="41.15375" lon="-3.47412">
        <ele>2214.05</ele>
        <time>2014-04-27T08:47:18Z</time>
      </trkpt>
      <trkpt lat="41.15375" lon="-3.47412">
        <ele>2210.69</ele>
        <time>2014-04-27T08:47:19Z</time>
      </trkpt>
      <trkpt lat="41.15375" lon="-3.47412">
        <ele>2213.09</ele>
        <time>2014-04-27T08:47:20Z</time>
      </trkpt>
      <trkpt lat="41.15375" lon="-3.47411">
        <ele>2216.94</ele>
        <time>2014-04-27T08:47:22Z</time>
      </trkpt>
      <trkpt lat="41.15375" lon="-3.47412">
        <ele>2215.98</ele>
        <time>2014-04-27T08:47:23Z</time>
      </trkpt>
      <trkpt lat="41.15374" lon="-3.47411">
        <ele>2213.57</ele>
        <time>2014-04-27T08:47:26Z</time>
      </trkpt>
      <trkpt lat="41.15374" lon="-3.4741">
        <ele>2218.86</ele>
        <time>2014-04-27T08:47:32Z</time>
      </trkpt>
      <trkpt lat="41.15375" lon="-3.4741">
        <ele>2216.46</ele>
        <time>2014-04-27T08:47:33Z</time>
      </trkpt>
      <trkpt lat="41.15374" lon="-3.47409">
        <ele>2211.65</ele>
        <time>2014-04-27T08:47:35Z</time>
      </trkpt>
      <trkpt lat="41.15374" lon="-3.47411">
        <ele>2211.65</ele>
        <time>2014-04-27T08:47:40Z</time>
      </trkpt>
      <trkpt lat="41.15374" lon="-3.47411">
        <ele>2216.94</ele>
        <time>2014-04-27T08:47:41Z</time>
      </trkpt>
      <trkpt lat="41.15373" lon="-3.47411">
        <ele>2210.21</ele>
        <time>2014-04-27T08:47:42Z</time>
      </trkpt>
      <trkpt lat="41.15373" lon="-3.47412">
        <ele>2214.05</ele>
        <time>2014-04-27T08:47:43Z</time>
      </trkpt>
      <trkpt lat="41.15373" lon="-3.47413">
        <ele>2212.61</ele>
        <time>2014-04-27T08:47:47Z</time>
      </trkpt>
      <trkpt lat="41.15373" lon="-3.47412">
        <ele>2209.73</ele>
        <time>2014-04-27T08:47:50Z</time>
      </trkpt>
      <trkpt lat="41.15373" lon="-3.47412">
        <ele>2211.65</ele>
        <time>2014-04-27T08:47:53Z</time>
      </trkpt>
      <trkpt lat="41.15372" lon="-3.47413">
        <ele>2212.13</ele>
        <time>2014-04-27T08:48:07Z</time>
      </trkpt>
      <trkpt lat="41.15373" lon="-3.47413">
        <ele>2212.13</ele>
        <time>2014-04-27T08:48:21Z</time>
      </trkpt>
      <trkpt lat="41.15375" lon="-3.47413">
        <ele>2213.57</ele>
        <time>2014-04-27T08:48:25Z</time>
      </trkpt>
      <trkpt lat="41.15375" lon="-3.47414">
        <ele>2215.01</ele>
        <time>2014-04-27T08:48:27Z</time>
      </trkpt>
      <trkpt lat="41.15374" lon="-3.47413">
        <ele>2213.57</ele>
        <time>2014-04-27T08:48:29Z</time>
      </trkpt>
      <trkpt lat="41.15374" lon="-3.4741">
        <ele>2215.5</ele>
        <time>2014-04-27T08:48:33Z</time>
      </trkpt>
      <trkpt lat="41.15372" lon="-3.47411">
        <ele>2210.21</ele>
        <time>2014-04-27T08:48:37Z</time>
      </trkpt>
      <trkpt lat="41.15372" lon="-3.47411">
        <ele>2210.69</ele>
        <time>2014-04-27T08:48:38Z</time>
      </trkpt>
      <trkpt lat="41.15373" lon="-3.47412">
        <ele>2214.05</ele>
        <time>2014-04-27T08:48:45Z</time>
      </trkpt>
      <trkpt lat="41.15373" lon="-3.47412">
        <ele>2214.53</ele>
        <time>2014-04-27T08:48:46Z</time>
      </trkpt>
      <trkpt lat="41.15373" lon="-3.47413">
        <ele>2210.69</ele>
        <time>2014-04-27T08:48:53Z</time>
      </trkpt>
      <trkpt lat="41.15373" lon="-3.47413">
        <ele>2212.61</ele>
        <time>2014-04-27T08:48:58Z</time>
      </trkpt>
      <trkpt lat="41.15372" lon="-3.47413">
        <ele>2211.17</ele>
        <time>2014-04-27T08:49:03Z</time>
      </trkpt>
      <trkpt lat="41.15371" lon="-3.47413">
        <ele>2215.01</ele>
        <time>2014-04-27T08:49:23Z</time>
      </trkpt>
      <trkpt lat="41.15373" lon="-3.47414">
        <ele>2211.17</ele>
        <time>2014-04-27T08:49:30Z</time>
      </trkpt>
      <trkpt lat="41.15374" lon="-3.47413">
        <ele>2207.32</ele>
        <time>2014-04-27T08:49:46Z</time>
      </trkpt>
      <trkpt lat="41.15375" lon="-3.47414">
        <ele>2207.81</ele>
        <time>2014-04-27T08:49:47Z</time>
      </trkpt>
      <trkpt lat="41.15375" lon="-3.47413">
        <ele>2210.69</ele>
        <time>2014-04-27T08:49:51Z</time>
      </trkpt>
      <trkpt lat="41.15375" lon="-3.4741">
        <ele>2214.05</ele>
        <time>2014-04-27T08:49:57Z</time>
      </trkpt>
      <trkpt lat="41.15374" lon="-3.4741">
        <ele>2209.25</ele>
        <time>2014-04-27T08:50:00Z</time>
      </trkpt>
      <trkpt lat="41.15375" lon="-3.4741">
        <ele>2203.96</ele>
        <time>2014-04-27T08:50:01Z</time>
      </trkpt>
      <trkpt lat="41.15375" lon="-3.47411">
        <ele>2204.44</ele>
        <time>2014-04-27T08:50:02Z</time>
      </trkpt>
      <trkpt lat="41.15375" lon="-3.47411">
        <ele>2206.84</ele>
        <time>2014-04-27T08:50:04Z</time>
      </trkpt>
      <trkpt lat="41.15375" lon="-3.47411">
        <ele>2209.73</ele>
        <time>2014-04-27T08:50:06Z</time>
      </trkpt>
      <trkpt lat="41.15375" lon="-3.47412">
        <ele>2206.36</ele>
        <time>2014-04-27T08:50:09Z</time>
      </trkpt>
      <trkpt lat="41.15374" lon="-3.47414">
        <ele>2208.29</ele>
        <time>2014-04-27T08:50:15Z</time>
      </trkpt>
      <trkpt lat="41.15374" lon="-3.47414">
        <ele>2204.92</ele>
        <time>2014-04-27T08:50:17Z</time>
      </trkpt>
      <trkpt lat="41.15374" lon="-3.47414">
        <ele>2200.59</ele>
        <time>2014-04-27T08:50:18Z</time>
      </trkpt>
      <trkpt lat="41.15374" lon="-3.47413">
        <ele>2205.4</ele>
        <time>2014-04-27T08:50:19Z</time>
      </trkpt>
      <trkpt lat="41.15374" lon="-3.47413">
        <ele>2212.13</ele>
        <time>2014-04-27T08:50:20Z</time>
      </trkpt>
      <trkpt lat="41.15374" lon="-3.47413">
        <ele>2213.09</ele>
        <time>2014-04-27T08:50:28Z</time>
      </trkpt>
      <trkpt lat="41.15373" lon="-3.47413">
        <ele>2209.73</ele>
        <time>2014-04-27T08:50:30Z</time>
      </trkpt>
      <trkpt lat="41.15374" lon="-3.47413">
        <ele>2214.05</ele>
        <time>2014-04-27T08:50:37Z</time>
      </trkpt>
      <trkpt lat="41.15374" lon="-3.47413">
        <ele>2209.73</ele>
        <time>2014-04-27T08:50:39Z</time>
      </trkpt>
      <trkpt lat="41.15374" lon="-3.47413">
        <ele>2213.57</ele>
        <time>2014-04-27T08:50:40Z</time>
      </trkpt>
      <trkpt lat="41.15374" lon="-3.47413">
        <ele>2219.34</ele>
        <time>2014-04-27T08:50:41Z</time>
      </trkpt>
      <trkpt lat="41.15373" lon="-3.47413">
        <ele>2215.98</ele>
        <time>2014-04-27T08:50:44Z</time>
      </trkpt>
      <trkpt lat="41.15373" lon="-3.47413">
        <ele>2212.13</ele>
        <time>2014-04-27T08:50:46Z</time>
      </trkpt>
      <trkpt lat="41.15373" lon="-3.47413">
        <ele>2215.98</ele>
        <time>2014-04-27T08:50:47Z</time>
      </trkpt>
      <trkpt lat="41.15372" lon="-3.47413">
        <ele>2215.5</ele>
        <time>2014-04-27T08:50:56Z</time>
      </trkpt>
      <trkpt lat="41.15372" lon="-3.47413">
        <ele>2213.57</ele>
        <time>2014-04-27T08:50:58Z</time>
      </trkpt>
      <trkpt lat="41.15372" lon="-3.47413">
        <ele>2210.21</ele>
        <time>2014-04-27T08:51:00Z</time>
      </trkpt>
      <trkpt lat="41.15372" lon="-3.47415">
        <ele>2204.92</ele>
        <time>2014-04-27T08:51:03Z</time>
      </trkpt>
      <trkpt lat="41.15372" lon="-3.47415">
        <ele>2204.92</ele>
        <time>2014-04-27T08:51:04Z</time>
      </trkpt>
      <trkpt lat="41.15372" lon="-3.47416">
        <ele>2201.56</ele>
        <time>2014-04-27T08:51:06Z</time>
      </trkpt>
      <trkpt lat="41.15373" lon="-3.47416">
        <ele>2206.84</ele>
        <time>2014-04-27T08:51:07Z</time>
      </trkpt>
      <trkpt lat="41.15374" lon="-3.47414">
        <ele>2215.01</ele>
        <time>2014-04-27T08:51:12Z</time>
      </trkpt>
      <trkpt lat="41.15374" lon="-3.47413">
        <ele>2214.53</ele>
        <time>2014-04-27T08:51:13Z</time>
      </trkpt>
      <trkpt lat="41.15375" lon="-3.47413">
        <ele>2210.69</ele>
        <time>2014-04-27T08:51:15Z</time>
      </trkpt>
      <trkpt lat="41.15376" lon="-3.47413">
        <ele>2204.44</ele>
        <time>2014-04-27T08:51:17Z</time>
      </trkpt>
      <trkpt lat="41.15377" lon="-3.47413">
        <ele>2212.13</ele>
        <time>2014-04-27T08:51:18Z</time>
      </trkpt>
      <trkpt lat="41.15377" lon="-3.47413">
        <ele>2210.69</ele>
        <time>2014-04-27T08:51:19Z</time>
      </trkpt>
      <trkpt lat="41.1538" lon="-3.47413">
        <ele>2207.32</ele>
        <time>2014-04-27T08:51:25Z</time>
      </trkpt>
      <trkpt lat="41.15383" lon="-3.47414">
        <ele>2206.36</ele>
        <time>2014-04-27T08:51:29Z</time>
      </trkpt>
      <trkpt lat="41.15384" lon="-3.47418">
        <ele>2207.81</ele>
        <time>2014-04-27T08:51:32Z</time>
      </trkpt>
      <trkpt lat="41.15384" lon="-3.47422">
        <ele>2208.77</ele>
        <time>2014-04-27T08:51:38Z</time>
      </trkpt>
      <trkpt lat="41.15385" lon="-3.47425">
        <ele>2209.73</ele>
        <time>2014-04-27T08:51:40Z</time>
      </trkpt>
      <trkpt lat="41.15389" lon="-3.47429">
        <ele>2209.73</ele>
        <time>2014-04-27T08:51:46Z</time>
      </trkpt>
      <trkpt lat="41.15396" lon="-3.47431">
        <ele>2209.73</ele>
        <time>2014-04-27T08:51:53Z</time>
      </trkpt>
      <trkpt lat="41.154" lon="-3.4743">
        <ele>2212.13</ele>
        <time>2014-04-27T08:51:56Z</time>
      </trkpt>
      <trkpt lat="41.15401" lon="-3.4743">
        <ele>2210.21</ele>
        <time>2014-04-27T08:51:57Z</time>
      </trkpt>
      <trkpt lat="41.15402" lon="-3.4743">
        <ele>2206.36</ele>
        <time>2014-04-27T08:51:58Z</time>
      </trkpt>
      <trkpt lat="41.15408" lon="-3.47428">
        <ele>2205.88</ele>
        <time>2014-04-27T08:52:05Z</time>
      </trkpt>
      <trkpt lat="41.1541" lon="-3.47428">
        <ele>2202.04</ele>
        <time>2014-04-27T08:52:07Z</time>
      </trkpt>
      <trkpt lat="41.15411" lon="-3.47428">
        <ele>2204.92</ele>
        <time>2014-04-27T08:52:08Z</time>
      </trkpt>
      <trkpt lat="41.15412" lon="-3.47428">
        <ele>2202.04</ele>
        <time>2014-04-27T08:52:09Z</time>
      </trkpt>
      <trkpt lat="41.15413" lon="-3.47427">
        <ele>2194.83</ele>
        <time>2014-04-27T08:52:11Z</time>
      </trkpt>
      <trkpt lat="41.15414" lon="-3.47427">
        <ele>2198.19</ele>
        <time>2014-04-27T08:52:13Z</time>
      </trkpt>
      <trkpt lat="41.15415" lon="-3.47426">
        <ele>2196.27</ele>
        <time>2014-04-27T08:52:14Z</time>
      </trkpt>
      <trkpt lat="41.1542" lon="-3.47426">
        <ele>2197.71</ele>
        <time>2014-04-27T08:52:22Z</time>
      </trkpt>
      <trkpt lat="41.15421" lon="-3.47427">
        <ele>2193.39</ele>
        <time>2014-04-27T08:52:25Z</time>
      </trkpt>
      <trkpt lat="41.15421" lon="-3.47427">
        <ele>2196.75</ele>
        <time>2014-04-27T08:52:26Z</time>
      </trkpt>
      <trkpt lat="41.15422" lon="-3.47428">
        <ele>2200.59</ele>
        <time>2014-04-27T08:52:27Z</time>
      </trkpt>
      <trkpt lat="41.15422" lon="-3.47429">
        <ele>2197.71</ele>
        <time>2014-04-27T08:52:28Z</time>
      </trkpt>
      <trkpt lat="41.15422" lon="-3.4743">
        <ele>2193.39</ele>
        <time>2014-04-27T08:52:29Z</time>
      </trkpt>
      <trkpt lat="41.15423" lon="-3.4743">
        <ele>2193.87</ele>
        <time>2014-04-27T08:52:30Z</time>
      </trkpt>
      <trkpt lat="41.15423" lon="-3.4743">
        <ele>2197.23</ele>
        <time>2014-04-27T08:52:31Z</time>
      </trkpt>
      <trkpt lat="41.15423" lon="-3.4743">
        <ele>2203.48</ele>
        <time>2014-04-27T08:52:32Z</time>
      </trkpt>
      <trkpt lat="41.15423" lon="-3.4743">
        <ele>2202.52</ele>
        <time>2014-04-27T08:52:33Z</time>
      </trkpt>
      <trkpt lat="41.15424" lon="-3.47429">
        <ele>2199.15</ele>
        <time>2014-04-27T08:52:41Z</time>
      </trkpt>
      <trkpt lat="41.15424" lon="-3.47429">
        <ele>2193.87</ele>
        <time>2014-04-27T08:52:42Z</time>
      </trkpt>
      <trkpt lat="41.15423" lon="-3.4743">
        <ele>2198.67</ele>
        <time>2014-04-27T08:52:43Z</time>
      </trkpt>
      <trkpt lat="41.15423" lon="-3.4743">
        <ele>2203.96</ele>
        <time>2014-04-27T08:52:44Z</time>
      </trkpt>
      <trkpt lat="41.15423" lon="-3.4743">
        <ele>2203</ele>
        <time>2014-04-27T08:52:45Z</time>
      </trkpt>
      <trkpt lat="41.15422" lon="-3.47433">
        <ele>2197.71</ele>
        <time>2014-04-27T08:52:54Z</time>
      </trkpt>
      <trkpt lat="41.15423" lon="-3.47434">
        <ele>2190.02</ele>
        <time>2014-04-27T08:52:56Z</time>
      </trkpt>
      <trkpt lat="41.15423" lon="-3.47434">
        <ele>2191.46</ele>
        <time>2014-04-27T08:52:57Z</time>
      </trkpt>
      <trkpt lat="41.15424" lon="-3.47434">
        <ele>2193.39</ele>
        <time>2014-04-27T08:53:02Z</time>
      </trkpt>
      <trkpt lat="41.15424" lon="-3.47434">
        <ele>2200.11</ele>
        <time>2014-04-27T08:53:03Z</time>
      </trkpt>
      <trkpt lat="41.15423" lon="-3.47434">
        <ele>2196.75</ele>
        <time>2014-04-27T08:53:06Z</time>
      </trkpt>
      <trkpt lat="41.15423" lon="-3.47434">
        <ele>2196.75</ele>
        <time>2014-04-27T08:53:07Z</time>
      </trkpt>
      <trkpt lat="41.15422" lon="-3.47435">
        <ele>2198.19</ele>
        <time>2014-04-27T08:53:09Z</time>
      </trkpt>
      <trkpt lat="41.15422" lon="-3.47435">
        <ele>2193.39</ele>
        <time>2014-04-27T08:53:12Z</time>
      </trkpt>
      <trkpt lat="41.15423" lon="-3.47437">
        <ele>2188.1</ele>
        <time>2014-04-27T08:53:16Z</time>
      </trkpt>
      <trkpt lat="41.15424" lon="-3.47437">
        <ele>2194.35</ele>
        <time>2014-04-27T08:53:17Z</time>
      </trkpt>
      <trkpt lat="41.15425" lon="-3.47437">
        <ele>2190.02</ele>
        <time>2014-04-27T08:53:19Z</time>
      </trkpt>
      <trkpt lat="41.15426" lon="-3.47438">
        <ele>2185.69</ele>
        <time>2014-04-27T08:53:22Z</time>
      </trkpt>
      <trkpt lat="41.15426" lon="-3.47438">
        <ele>2186.18</ele>
        <time>2014-04-27T08:53:23Z</time>
      </trkpt>
      <trkpt lat="41.15429" lon="-3.47441">
        <ele>2185.69</ele>
        <time>2014-04-27T08:53:32Z</time>
      </trkpt>
      <trkpt lat="41.15433" lon="-3.47441">
        <ele>2184.73</ele>
        <time>2014-04-27T08:53:42Z</time>
      </trkpt>
      <trkpt lat="41.15432" lon="-3.47443">
        <ele>2186.66</ele>
        <time>2014-04-27T08:53:53Z</time>
      </trkpt>
      <trkpt lat="41.15431" lon="-3.47443">
        <ele>2188.58</ele>
        <time>2014-04-27T08:53:56Z</time>
      </trkpt>
      <trkpt lat="41.1543" lon="-3.47442">
        <ele>2184.73</ele>
        <time>2014-04-27T08:54:05Z</time>
      </trkpt>
      <trkpt lat="41.1543" lon="-3.47444">
        <ele>2186.66</ele>
        <time>2014-04-27T08:54:10Z</time>
      </trkpt>
      <trkpt lat="41.1543" lon="-3.47445">
        <ele>2182.33</ele>
        <time>2014-04-27T08:54:15Z</time>
      </trkpt>
      <trkpt lat="41.15431" lon="-3.47445">
        <ele>2178.48</ele>
        <time>2014-04-27T08:54:17Z</time>
      </trkpt>
      <trkpt lat="41.15431" lon="-3.47446">
        <ele>2178.48</ele>
        <time>2014-04-27T08:54:18Z</time>
      </trkpt>
      <trkpt lat="41.15432" lon="-3.47446">
        <ele>2181.85</ele>
        <time>2014-04-27T08:54:22Z</time>
      </trkpt>
      <trkpt lat="41.15432" lon="-3.47446">
        <ele>2181.85</ele>
        <time>2014-04-27T08:54:23Z</time>
      </trkpt>
      <trkpt lat="41.15432" lon="-3.47446">
        <ele>2182.81</ele>
        <time>2014-04-27T08:54:28Z</time>
      </trkpt>
      <trkpt lat="41.15434" lon="-3.47447">
        <ele>2179.45</ele>
        <time>2014-04-27T08:54:35Z</time>
      </trkpt>
      <trkpt lat="41.15434" lon="-3.47447">
        <ele>2176.08</ele>
        <time>2014-04-27T08:54:36Z</time>
      </trkpt>
      <trkpt lat="41.15435" lon="-3.47447">
        <ele>2177.04</ele>
        <time>2014-04-27T08:54:37Z</time>
      </trkpt>
      <trkpt lat="41.15435" lon="-3.47448">
        <ele>2178.48</ele>
        <time>2014-04-27T08:54:43Z</time>
      </trkpt>
      <trkpt lat="41.15436" lon="-3.47449">
        <ele>2181.85</ele>
        <time>2014-04-27T08:54:46Z</time>
      </trkpt>
      <trkpt lat="41.15436" lon="-3.47449">
        <ele>2182.33</ele>
        <time>2014-04-27T08:54:48Z</time>
      </trkpt>
      <trkpt lat="41.15436" lon="-3.4745">
        <ele>2180.89</ele>
        <time>2014-04-27T08:54:50Z</time>
      </trkpt>
      <trkpt lat="41.15434" lon="-3.47453">
        <ele>2178</ele>
        <time>2014-04-27T08:54:57Z</time>
      </trkpt>
      <trkpt lat="41.15439" lon="-3.47453">
        <ele>2174.64</ele>
        <time>2014-04-27T08:55:05Z</time>
      </trkpt>
      <trkpt lat="41.1544" lon="-3.47453">
        <ele>2178.48</ele>
        <time>2014-04-27T08:55:09Z</time>
      </trkpt>
      <trkpt lat="41.1544" lon="-3.47453">
        <ele>2178.48</ele>
        <time>2014-04-27T08:55:10Z</time>
      </trkpt>
      <trkpt lat="41.15437" lon="-3.47462">
        <ele>2175.12</ele>
        <time>2014-04-27T08:55:22Z</time>
      </trkpt>
      <trkpt lat="41.15438" lon="-3.47463">
        <ele>2175.12</ele>
        <time>2014-04-27T08:55:23Z</time>
      </trkpt>
      <trkpt lat="41.15437" lon="-3.47466">
        <ele>2173.2</ele>
        <time>2014-04-27T08:55:36Z</time>
      </trkpt>
      <trkpt lat="41.15437" lon="-3.4747">
        <ele>2171.76</ele>
        <time>2014-04-27T08:55:47Z</time>
      </trkpt>
      <trkpt lat="41.15438" lon="-3.47472">
        <ele>2168.39</ele>
        <time>2014-04-27T08:55:58Z</time>
      </trkpt>
      <trkpt lat="41.15436" lon="-3.47476">
        <ele>2168.39</ele>
        <time>2014-04-27T08:56:11Z</time>
      </trkpt>
      <trkpt lat="41.15436" lon="-3.47478">
        <ele>2167.43</ele>
        <time>2014-04-27T08:56:22Z</time>
      </trkpt>
      <trkpt lat="41.15434" lon="-3.47483">
        <ele>2165.51</ele>
        <time>2014-04-27T08:56:36Z</time>
      </trkpt>
      <trkpt lat="41.15432" lon="-3.47487">
        <ele>2164.55</ele>
        <time>2014-04-27T08:56:44Z</time>
      </trkpt>
      <trkpt lat="41.1543" lon="-3.4749">
        <ele>2163.58</ele>
        <time>2014-04-27T08:56:55Z</time>
      </trkpt>
      <trkpt lat="41.15428" lon="-3.47494">
        <ele>2160.7</ele>
        <time>2014-04-27T08:57:05Z</time>
      </trkpt>
      <trkpt lat="41.15427" lon="-3.47498">
        <ele>2158.3</ele>
        <time>2014-04-27T08:57:17Z</time>
      </trkpt>
      <trkpt lat="41.15426" lon="-3.47503">
        <ele>2155.89</ele>
        <time>2014-04-27T08:57:30Z</time>
      </trkpt>
      <trkpt lat="41.15427" lon="-3.47508">
        <ele>2154.45</ele>
        <time>2014-04-27T08:57:40Z</time>
      </trkpt>
      <trkpt lat="41.15429" lon="-3.47514">
        <ele>2154.45</ele>
        <time>2014-04-27T08:57:47Z</time>
      </trkpt>
      <trkpt lat="41.15427" lon="-3.47519">
        <ele>2152.05</ele>
        <time>2014-04-27T08:57:58Z</time>
      </trkpt>
      <trkpt lat="41.15425" lon="-3.47525">
        <ele>2150.61</ele>
        <time>2014-04-27T08:58:08Z</time>
      </trkpt>
      <trkpt lat="41.15424" lon="-3.47526">
        <ele>2149.16</ele>
        <time>2014-04-27T08:58:13Z</time>
      </trkpt>
      <trkpt lat="41.15427" lon="-3.47527">
        <ele>2149.65</ele>
        <time>2014-04-27T08:58:18Z</time>
      </trkpt>
      <trkpt lat="41.15428" lon="-3.47525">
        <ele>2150.61</ele>
        <time>2014-04-27T08:58:32Z</time>
      </trkpt>
      <trkpt lat="41.15426" lon="-3.47524">
        <ele>2150.61</ele>
        <time>2014-04-27T08:58:55Z</time>
      </trkpt>
      <trkpt lat="41.15427" lon="-3.47526">
        <ele>2150.13</ele>
        <time>2014-04-27T08:59:18Z</time>
      </trkpt>
      <trkpt lat="41.15426" lon="-3.47526">
        <ele>2150.13</ele>
        <time>2014-04-27T08:59:36Z</time>
      </trkpt>
      <trkpt lat="41.15428" lon="-3.47523">
        <ele>2150.13</ele>
        <time>2014-04-27T08:59:54Z</time>
      </trkpt>
      <trkpt lat="41.15427" lon="-3.47523">
        <ele>2149.65</ele>
        <time>2014-04-27T09:00:13Z</time>
      </trkpt>
      <trkpt lat="41.15427" lon="-3.47526">
        <ele>2149.65</ele>
        <time>2014-04-27T09:00:39Z</time>
      </trkpt>
      <trkpt lat="41.15426" lon="-3.47524">
        <ele>2150.13</ele>
        <time>2014-04-27T09:00:58Z</time>
      </trkpt>
      <trkpt lat="41.15421" lon="-3.47522">
        <ele>2147.24</ele>
        <time>2014-04-27T09:01:09Z</time>
      </trkpt>
      <trkpt lat="41.15418" lon="-3.47523">
        <ele>2146.28</ele>
        <time>2014-04-27T09:01:13Z</time>
      </trkpt>
      <trkpt lat="41.15413" lon="-3.47529">
        <ele>2144.36</ele>
        <time>2014-04-27T09:01:27Z</time>
      </trkpt>
      <trkpt lat="41.15412" lon="-3.47536">
        <ele>2141.47</ele>
        <time>2014-04-27T09:01:40Z</time>
      </trkpt>
      <trkpt lat="41.15411" lon="-3.47543">
        <ele>2139.07</ele>
        <time>2014-04-27T09:01:49Z</time>
      </trkpt>
      <trkpt lat="41.15407" lon="-3.47544">
        <ele>2137.15</ele>
        <time>2014-04-27T09:01:58Z</time>
      </trkpt>
      <trkpt lat="41.154" lon="-3.47547">
        <ele>2134.26</ele>
        <time>2014-04-27T09:02:09Z</time>
      </trkpt>
      <trkpt lat="41.15395" lon="-3.47549">
        <ele>2133.3</ele>
        <time>2014-04-27T09:02:18Z</time>
      </trkpt>
      <trkpt lat="41.15392" lon="-3.47552">
        <ele>2131.86</ele>
        <time>2014-04-27T09:02:31Z</time>
      </trkpt>
      <trkpt lat="41.15385" lon="-3.47551">
        <ele>2129.46</ele>
        <time>2014-04-27T09:02:44Z</time>
      </trkpt>
      <trkpt lat="41.15381" lon="-3.47552">
        <ele>2129.94</ele>
        <time>2014-04-27T09:02:54Z</time>
      </trkpt>
      <trkpt lat="41.1538" lon="-3.47555">
        <ele>2128.02</ele>
        <time>2014-04-27T09:03:00Z</time>
      </trkpt>
      <trkpt lat="41.15377" lon="-3.47557">
        <ele>2125.61</ele>
        <time>2014-04-27T09:03:09Z</time>
      </trkpt>
      <trkpt lat="41.15375" lon="-3.47559">
        <ele>2124.65</ele>
        <time>2014-04-27T09:03:19Z</time>
      </trkpt>
      <trkpt lat="41.15371" lon="-3.47563">
        <ele>2123.21</ele>
        <time>2014-04-27T09:03:33Z</time>
      </trkpt>
      <trkpt lat="41.15368" lon="-3.47566">
        <ele>2121.29</ele>
        <time>2014-04-27T09:03:43Z</time>
      </trkpt>
      <trkpt lat="41.15367" lon="-3.47571">
        <ele>2120.32</ele>
        <time>2014-04-27T09:03:53Z</time>
      </trkpt>
      <trkpt lat="41.15367" lon="-3.47572">
        <ele>2119.84</ele>
        <time>2014-04-27T09:03:55Z</time>
      </trkpt>
      <trkpt lat="41.15367" lon="-3.47579">
        <ele>2117.44</ele>
        <time>2014-04-27T09:04:06Z</time>
      </trkpt>
      <trkpt lat="41.15366" lon="-3.47585">
        <ele>2114.56</ele>
        <time>2014-04-27T09:04:17Z</time>
      </trkpt>
      <trkpt lat="41.15367" lon="-3.47592">
        <ele>2113.12</ele>
        <time>2014-04-27T09:04:28Z</time>
      </trkpt>
      <trkpt lat="41.15367" lon="-3.47592">
        <ele>2111.67</ele>
        <time>2014-04-27T09:04:30Z</time>
      </trkpt>
      <trkpt lat="41.1536" lon="-3.47595">
        <ele>2108.79</ele>
        <time>2014-04-27T09:04:44Z</time>
      </trkpt>
      <trkpt lat="41.15355" lon="-3.47601">
        <ele>2106.39</ele>
        <time>2014-04-27T09:04:57Z</time>
      </trkpt>
      <trkpt lat="41.15357" lon="-3.47608">
        <ele>2103.02</ele>
        <time>2014-04-27T09:05:07Z</time>
      </trkpt>
      <trkpt lat="41.15354" lon="-3.47613">
        <ele>2100.62</ele>
        <time>2014-04-27T09:05:20Z</time>
      </trkpt>
      <trkpt lat="41.15352" lon="-3.47615">
        <ele>2098.7</ele>
        <time>2014-04-27T09:05:27Z</time>
      </trkpt>
      <trkpt lat="41.1535" lon="-3.47615">
        <ele>2098.21</ele>
        <time>2014-04-27T09:05:30Z</time>
      </trkpt>
      <trkpt lat="41.15343" lon="-3.47616">
        <ele>2096.29</ele>
        <time>2014-04-27T09:05:43Z</time>
      </trkpt>
      <trkpt lat="41.15337" lon="-3.47618">
        <ele>2095.33</ele>
        <time>2014-04-27T09:05:51Z</time>
      </trkpt>
      <trkpt lat="41.15335" lon="-3.47623">
        <ele>2093.89</ele>
        <time>2014-04-27T09:06:03Z</time>
      </trkpt>
      <trkpt lat="41.15335" lon="-3.47624">
        <ele>2093.89</ele>
        <time>2014-04-27T09:06:05Z</time>
      </trkpt>
      <trkpt lat="41.15337" lon="-3.47631">
        <ele>2090.52</ele>
        <time>2014-04-27T09:06:15Z</time>
      </trkpt>
      <trkpt lat="41.15338" lon="-3.47636">
        <ele>2088.6</ele>
        <time>2014-04-27T09:06:26Z</time>
      </trkpt>
      <trkpt lat="41.15333" lon="-3.47637">
        <ele>2087.64</ele>
        <time>2014-04-27T09:06:38Z</time>
      </trkpt>
      <trkpt lat="41.15332" lon="-3.47641">
        <ele>2085.72</ele>
        <time>2014-04-27T09:06:43Z</time>
      </trkpt>
      <trkpt lat="41.15332" lon="-3.47644">
        <ele>2083.79</ele>
        <time>2014-04-27T09:06:55Z</time>
      </trkpt>
      <trkpt lat="41.15331" lon="-3.47649">
        <ele>2082.35</ele>
        <time>2014-04-27T09:07:07Z</time>
      </trkpt>
      <trkpt lat="41.15333" lon="-3.47653">
        <ele>2081.87</ele>
        <time>2014-04-27T09:07:16Z</time>
      </trkpt>
      <trkpt lat="41.15331" lon="-3.47652">
        <ele>2081.39</ele>
        <time>2014-04-27T09:07:27Z</time>
      </trkpt>
      <trkpt lat="41.15326" lon="-3.47652">
        <ele>2080.43</ele>
        <time>2014-04-27T09:07:41Z</time>
      </trkpt>
      <trkpt lat="41.15322" lon="-3.47656">
        <ele>2078.03</ele>
        <time>2014-04-27T09:07:54Z</time>
      </trkpt>
      <trkpt lat="41.15321" lon="-3.47657">
        <ele>2077.55</ele>
        <time>2014-04-27T09:07:56Z</time>
      </trkpt>
      <trkpt lat="41.15318" lon="-3.47659">
        <ele>2075.62</ele>
        <time>2014-04-27T09:08:06Z</time>
      </trkpt>
      <trkpt lat="41.15314" lon="-3.47658">
        <ele>2074.18</ele>
        <time>2014-04-27T09:08:18Z</time>
      </trkpt>
      <trkpt lat="41.15309" lon="-3.4766">
        <ele>2073.22</ele>
        <time>2014-04-27T09:08:29Z</time>
      </trkpt>
      <trkpt lat="41.15304" lon="-3.47663">
        <ele>2071.3</ele>
        <time>2014-04-27T09:08:39Z</time>
      </trkpt>
      <trkpt lat="41.15299" lon="-3.47666">
        <ele>2068.89</ele>
        <time>2014-04-27T09:08:49Z</time>
      </trkpt>
      <trkpt lat="41.15294" lon="-3.47669">
        <ele>2067.93</ele>
        <time>2014-04-27T09:09:02Z</time>
      </trkpt>
      <trkpt lat="41.15289" lon="-3.4767">
        <ele>2066.01</ele>
        <time>2014-04-27T09:09:10Z</time>
      </trkpt>
      <trkpt lat="41.15286" lon="-3.4767">
        <ele>2066.01</ele>
        <time>2014-04-27T09:09:14Z</time>
      </trkpt>
      <trkpt lat="41.15282" lon="-3.47671">
        <ele>2065.05</ele>
        <time>2014-04-27T09:09:22Z</time>
      </trkpt>
      <trkpt lat="41.15275" lon="-3.47676">
        <ele>2062.17</ele>
        <time>2014-04-27T09:09:35Z</time>
      </trkpt>
      <trkpt lat="41.15272" lon="-3.47681">
        <ele>2059.28</ele>
        <time>2014-04-27T09:09:45Z</time>
      </trkpt>
      <trkpt lat="41.15268" lon="-3.47688">
        <ele>2056.4</ele>
        <time>2014-04-27T09:09:57Z</time>
      </trkpt>
      <trkpt lat="41.15268" lon="-3.47696">
        <ele>2053.03</ele>
        <time>2014-04-27T09:10:06Z</time>
      </trkpt>
      <trkpt lat="41.15265" lon="-3.47699">
        <ele>2050.63</ele>
        <time>2014-04-27T09:10:13Z</time>
      </trkpt>
      <trkpt lat="41.15265" lon="-3.4771">
        <ele>2048.71</ele>
        <time>2014-04-27T09:10:26Z</time>
      </trkpt>
      <trkpt lat="41.15259" lon="-3.47713">
        <ele>2045.34</ele>
        <time>2014-04-27T09:10:38Z</time>
      </trkpt>
      <trkpt lat="41.15258" lon="-3.47713">
        <ele>2044.86</ele>
        <time>2014-04-27T09:10:40Z</time>
      </trkpt>
      <trkpt lat="41.15255" lon="-3.47714">
        <ele>2043.9</ele>
        <time>2014-04-27T09:10:43Z</time>
      </trkpt>
      <trkpt lat="41.15254" lon="-3.47713">
        <ele>2042.94</ele>
        <time>2014-04-27T09:10:45Z</time>
      </trkpt>
      <trkpt lat="41.15248" lon="-3.47719">
        <ele>2041.02</ele>
        <time>2014-04-27T09:10:57Z</time>
      </trkpt>
      <trkpt lat="41.15247" lon="-3.47722">
        <ele>2041.5</ele>
        <time>2014-04-27T09:11:01Z</time>
      </trkpt>
      <trkpt lat="41.15246" lon="-3.47726">
        <ele>2038.61</ele>
        <time>2014-04-27T09:11:07Z</time>
      </trkpt>
      <trkpt lat="41.15243" lon="-3.4773">
        <ele>2036.21</ele>
        <time>2014-04-27T09:11:17Z</time>
      </trkpt>
      <trkpt lat="41.15239" lon="-3.47735">
        <ele>2032.84</ele>
        <time>2014-04-27T09:11:27Z</time>
      </trkpt>
      <trkpt lat="41.15233" lon="-3.47738">
        <ele>2030.44</ele>
        <time>2014-04-27T09:11:39Z</time>
      </trkpt>
      <trkpt lat="41.1523" lon="-3.47748">
        <ele>2027.56</ele>
        <time>2014-04-27T09:11:53Z</time>
      </trkpt>
      <trkpt lat="41.15229" lon="-3.47749">
        <ele>2027.08</ele>
        <time>2014-04-27T09:11:56Z</time>
      </trkpt>
      <trkpt lat="41.15225" lon="-3.47752">
        <ele>2024.67</ele>
        <time>2014-04-27T09:12:10Z</time>
      </trkpt>
      <trkpt lat="41.15222" lon="-3.47757">
        <ele>2023.23</ele>
        <time>2014-04-27T09:12:21Z</time>
      </trkpt>
      <trkpt lat="41.15219" lon="-3.47763">
        <ele>2019.87</ele>
        <time>2014-04-27T09:12:33Z</time>
      </trkpt>
      <trkpt lat="41.15211" lon="-3.47766">
        <ele>2016.98</ele>
        <time>2014-04-27T09:12:45Z</time>
      </trkpt>
      <trkpt lat="41.15208" lon="-3.47767">
        <ele>2016.98</ele>
        <time>2014-04-27T09:12:48Z</time>
      </trkpt>
      <trkpt lat="41.15201" lon="-3.47767">
        <ele>2015.06</ele>
        <time>2014-04-27T09:13:02Z</time>
      </trkpt>
      <trkpt lat="41.152" lon="-3.47774">
        <ele>2011.7</ele>
        <time>2014-04-27T09:13:15Z</time>
      </trkpt>
      <trkpt lat="41.15203" lon="-3.47782">
        <ele>2008.81</ele>
        <time>2014-04-27T09:13:24Z</time>
      </trkpt>
      <trkpt lat="41.15201" lon="-3.47789">
        <ele>2007.37</ele>
        <time>2014-04-27T09:13:36Z</time>
      </trkpt>
      <trkpt lat="41.15197" lon="-3.47796">
        <ele>2004.49</ele>
        <time>2014-04-27T09:13:50Z</time>
      </trkpt>
      <trkpt lat="41.15192" lon="-3.47801">
        <ele>2001.12</ele>
        <time>2014-04-27T09:14:01Z</time>
      </trkpt>
      <trkpt lat="41.1519" lon="-3.47801">
        <ele>1999.68</ele>
        <time>2014-04-27T09:14:04Z</time>
      </trkpt>
      <trkpt lat="41.15181" lon="-3.47805">
        <ele>1997.76</ele>
        <time>2014-04-27T09:14:17Z</time>
      </trkpt>
      <trkpt lat="41.1518" lon="-3.47804">
        <ele>1997.76</ele>
        <time>2014-04-27T09:14:18Z</time>
      </trkpt>
      <trkpt lat="41.15174" lon="-3.47804">
        <ele>1997.28</ele>
        <time>2014-04-27T09:14:30Z</time>
      </trkpt>
      <trkpt lat="41.15172" lon="-3.47803">
        <ele>1997.76</ele>
        <time>2014-04-27T09:14:42Z</time>
      </trkpt>
      <trkpt lat="41.15171" lon="-3.47805">
        <ele>1997.76</ele>
        <time>2014-04-27T09:15:01Z</time>
      </trkpt>
      <trkpt lat="41.15171" lon="-3.47804">
        <ele>1998.24</ele>
        <time>2014-04-27T09:15:14Z</time>
      </trkpt>
      <trkpt lat="41.15166" lon="-3.47809">
        <ele>1995.83</ele>
        <time>2014-04-27T09:15:25Z</time>
      </trkpt>
      <trkpt lat="41.15165" lon="-3.47812">
        <ele>1993.91</ele>
        <time>2014-04-27T09:15:31Z</time>
      </trkpt>
      <trkpt lat="41.15175" lon="-3.47821">
        <ele>1992.47</ele>
        <time>2014-04-27T09:15:43Z</time>
      </trkpt>
      <trkpt lat="41.15175" lon="-3.47822">
        <ele>1991.51</ele>
        <time>2014-04-27T09:15:45Z</time>
      </trkpt>
      <trkpt lat="41.15176" lon="-3.47827">
        <ele>1989.59</ele>
        <time>2014-04-27T09:15:51Z</time>
      </trkpt>
      <trkpt lat="41.15178" lon="-3.47829">
        <ele>1989.59</ele>
        <time>2014-04-27T09:15:53Z</time>
      </trkpt>
      <trkpt lat="41.15183" lon="-3.47839">
        <ele>1988.14</ele>
        <time>2014-04-27T09:16:06Z</time>
      </trkpt>
      <trkpt lat="41.15181" lon="-3.47846">
        <ele>1985.26</ele>
        <time>2014-04-27T09:16:17Z</time>
      </trkpt>
      <trkpt lat="41.15179" lon="-3.47849">
        <ele>1983.82</ele>
        <time>2014-04-27T09:16:23Z</time>
      </trkpt>
      <trkpt lat="41.15178" lon="-3.47852">
        <ele>1982.38</ele>
        <time>2014-04-27T09:16:27Z</time>
      </trkpt>
      <trkpt lat="41.15176" lon="-3.47853">
        <ele>1982.38</ele>
        <time>2014-04-27T09:16:29Z</time>
      </trkpt>
      <trkpt lat="41.15165" lon="-3.47853">
        <ele>1979.97</ele>
        <time>2014-04-27T09:16:43Z</time>
      </trkpt>
      <trkpt lat="41.15162" lon="-3.47855">
        <ele>1978.53</ele>
        <time>2014-04-27T09:16:49Z</time>
      </trkpt>
      <trkpt lat="41.15155" lon="-3.47858">
        <ele>1976.61</ele>
        <time>2014-04-27T09:17:00Z</time>
      </trkpt>
      <trkpt lat="41.15139" lon="-3.47858">
        <ele>1973.24</ele>
        <time>2014-04-27T09:17:16Z</time>
      </trkpt>
      <trkpt lat="41.15129" lon="-3.47861">
        <ele>1971.32</ele>
        <time>2014-04-27T09:17:29Z</time>
      </trkpt>
      <trkpt lat="41.15124" lon="-3.47861">
        <ele>1970.36</ele>
        <time>2014-04-27T09:17:44Z</time>
      </trkpt>
      <trkpt lat="41.15117" lon="-3.47857">
        <ele>1971.32</ele>
        <time>2014-04-27T09:17:51Z</time>
      </trkpt>
      <trkpt lat="41.15113" lon="-3.47854">
        <ele>1971.32</ele>
        <time>2014-04-27T09:17:55Z</time>
      </trkpt>
      <trkpt lat="41.15094" lon="-3.4784">
        <ele>1972.76</ele>
        <time>2014-04-27T09:18:12Z</time>
      </trkpt>
      <trkpt lat="41.15083" lon="-3.47834">
        <ele>1973.72</ele>
        <time>2014-04-27T09:18:20Z</time>
      </trkpt>
      <trkpt lat="41.15079" lon="-3.47829">
        <ele>1974.69</ele>
        <time>2014-04-27T09:18:24Z</time>
      </trkpt>
      <trkpt lat="41.15056" lon="-3.47813">
        <ele>1976.13</ele>
        <time>2014-04-27T09:18:43Z</time>
      </trkpt>
      <trkpt lat="41.15037" lon="-3.47797">
        <ele>1977.57</ele>
        <time>2014-04-27T09:19:01Z</time>
      </trkpt>
      <trkpt lat="41.15019" lon="-3.47788">
        <ele>1979.49</ele>
        <time>2014-04-27T09:19:15Z</time>
      </trkpt>
      <trkpt lat="41.15011" lon="-3.47783">
        <ele>1979.97</ele>
        <time>2014-04-27T09:19:22Z</time>
      </trkpt>
      <trkpt lat="41.15006" lon="-3.47782">
        <ele>1980.93</ele>
        <time>2014-04-27T09:19:26Z</time>
      </trkpt>
      <trkpt lat="41.14985" lon="-3.4777">
        <ele>1981.9</ele>
        <time>2014-04-27T09:19:43Z</time>
      </trkpt>
      <trkpt lat="41.14978" lon="-3.47768">
        <ele>1981.9</ele>
        <time>2014-04-27T09:19:49Z</time>
      </trkpt>
      <trkpt lat="41.14973" lon="-3.47765">
        <ele>1982.86</ele>
        <time>2014-04-27T09:20:04Z</time>
      </trkpt>
      <trkpt lat="41.14965" lon="-3.47759">
        <ele>1982.86</ele>
        <time>2014-04-27T09:20:12Z</time>
      </trkpt>
      <trkpt lat="41.14948" lon="-3.47748">
        <ele>1983.82</ele>
        <time>2014-04-27T09:20:27Z</time>
      </trkpt>
      <trkpt lat="41.14927" lon="-3.47741">
        <ele>1984.78</ele>
        <time>2014-04-27T09:20:43Z</time>
      </trkpt>
      <trkpt lat="41.14908" lon="-3.47731">
        <ele>1986.22</ele>
        <time>2014-04-27T09:20:57Z</time>
      </trkpt>
      <trkpt lat="41.1489" lon="-3.47724">
        <ele>1987.66</ele>
        <time>2014-04-27T09:21:11Z</time>
      </trkpt>
      <trkpt lat="41.14868" lon="-3.47715">
        <ele>1988.62</ele>
        <time>2014-04-27T09:21:27Z</time>
      </trkpt>
      <trkpt lat="41.14851" lon="-3.4771">
        <ele>1990.07</ele>
        <time>2014-04-27T09:21:40Z</time>
      </trkpt>
      <trkpt lat="41.14837" lon="-3.47707">
        <ele>1990.55</ele>
        <time>2014-04-27T09:21:56Z</time>
      </trkpt>
      <trkpt lat="41.14835" lon="-3.47705">
        <ele>1991.03</ele>
        <time>2014-04-27T09:22:07Z</time>
      </trkpt>
      <trkpt lat="41.14834" lon="-3.47706">
        <ele>1991.03</ele>
        <time>2014-04-27T09:22:15Z</time>
      </trkpt>
      <trkpt lat="41.14808" lon="-3.47701">
        <ele>1991.99</ele>
        <time>2014-04-27T09:22:34Z</time>
      </trkpt>
      <trkpt lat="41.14806" lon="-3.47701">
        <ele>1991.99</ele>
        <time>2014-04-27T09:22:36Z</time>
      </trkpt>
      <trkpt lat="41.14799" lon="-3.477">
        <ele>1992.47</ele>
        <time>2014-04-27T09:22:42Z</time>
      </trkpt>
      <trkpt lat="41.1478" lon="-3.477">
        <ele>1995.83</ele>
        <time>2014-04-27T09:22:56Z</time>
      </trkpt>
      <trkpt lat="41.14758" lon="-3.47689">
        <ele>1995.35</ele>
        <time>2014-04-27T09:23:13Z</time>
      </trkpt>
      <trkpt lat="41.14734" lon="-3.47683">
        <ele>1996.8</ele>
        <time>2014-04-27T09:23:30Z</time>
      </trkpt>
      <trkpt lat="41.14722" lon="-3.47681">
        <ele>1997.76</ele>
        <time>2014-04-27T09:23:39Z</time>
      </trkpt>
      <trkpt lat="41.14713" lon="-3.47678">
        <ele>1996.8</ele>
        <time>2014-04-27T09:23:45Z</time>
      </trkpt>
      <trkpt lat="41.14693" lon="-3.47663">
        <ele>1995.83</ele>
        <time>2014-04-27T09:24:00Z</time>
      </trkpt>
      <trkpt lat="41.14672" lon="-3.47657">
        <ele>1996.8</ele>
        <time>2014-04-27T09:24:15Z</time>
      </trkpt>
      <trkpt lat="41.14655" lon="-3.47645">
        <ele>1997.76</ele>
        <time>2014-04-27T09:24:29Z</time>
      </trkpt>
      <trkpt lat="41.14636" lon="-3.47629">
        <ele>1996.8</ele>
        <time>2014-04-27T09:24:45Z</time>
      </trkpt>
      <trkpt lat="41.14619" lon="-3.47618">
        <ele>1997.28</ele>
        <time>2014-04-27T09:25:00Z</time>
      </trkpt>
      <trkpt lat="41.146" lon="-3.47604">
        <ele>1997.28</ele>
        <time>2014-04-27T09:25:15Z</time>
      </trkpt>
      <trkpt lat="41.14587" lon="-3.47594">
        <ele>1997.76</ele>
        <time>2014-04-27T09:25:25Z</time>
      </trkpt>
      <trkpt lat="41.14564" lon="-3.47581">
        <ele>1998.72</ele>
        <time>2014-04-27T09:25:44Z</time>
      </trkpt>
      <trkpt lat="41.14545" lon="-3.47565">
        <ele>1998.24</ele>
        <time>2014-04-27T09:26:01Z</time>
      </trkpt>
      <trkpt lat="41.14542" lon="-3.47563">
        <ele>1998.72</ele>
        <time>2014-04-27T09:26:03Z</time>
      </trkpt>
      <trkpt lat="41.14513" lon="-3.47548">
        <ele>1999.2</ele>
        <time>2014-04-27T09:26:25Z</time>
      </trkpt>
      <trkpt lat="41.14491" lon="-3.47534">
        <ele>1999.68</ele>
        <time>2014-04-27T09:26:44Z</time>
      </trkpt>
      <trkpt lat="41.14475" lon="-3.47522">
        <ele>2002.08</ele>
        <time>2014-04-27T09:27:00Z</time>
      </trkpt>
      <trkpt lat="41.14461" lon="-3.47517">
        <ele>2004.97</ele>
        <time>2014-04-27T09:27:13Z</time>
      </trkpt>
      <trkpt lat="41.14452" lon="-3.47509">
        <ele>2007.85</ele>
        <time>2014-04-27T09:27:24Z</time>
      </trkpt>
      <trkpt lat="41.14451" lon="-3.47509">
        <ele>2007.85</ele>
        <time>2014-04-27T09:27:25Z</time>
      </trkpt>
      <trkpt lat="41.1445" lon="-3.47508">
        <ele>2007.85</ele>
        <time>2014-04-27T09:27:26Z</time>
      </trkpt>
      <trkpt lat="41.14442" lon="-3.475">
        <ele>2010.73</ele>
        <time>2014-04-27T09:27:39Z</time>
      </trkpt>
      <trkpt lat="41.14436" lon="-3.47495">
        <ele>2012.66</ele>
        <time>2014-04-27T09:27:49Z</time>
      </trkpt>
      <trkpt lat="41.14435" lon="-3.47495">
        <ele>2014.1</ele>
        <time>2014-04-27T09:27:52Z</time>
      </trkpt>
      <trkpt lat="41.14433" lon="-3.47493">
        <ele>2016.02</ele>
        <time>2014-04-27T09:27:55Z</time>
      </trkpt>
      <trkpt lat="41.14429" lon="-3.4749">
        <ele>2016.5</ele>
        <time>2014-04-27T09:28:00Z</time>
      </trkpt>
      <trkpt lat="41.14428" lon="-3.47489">
        <ele>2016.98</ele>
        <time>2014-04-27T09:28:01Z</time>
      </trkpt>
      <trkpt lat="41.14427" lon="-3.47489">
        <ele>2016.5</ele>
        <time>2014-04-27T09:28:02Z</time>
      </trkpt>
      <trkpt lat="41.14418" lon="-3.47477">
        <ele>2018.43</ele>
        <time>2014-04-27T09:28:15Z</time>
      </trkpt>
      <trkpt lat="41.14412" lon="-3.47458">
        <ele>2017.46</ele>
        <time>2014-04-27T09:28:28Z</time>
      </trkpt>
      <trkpt lat="41.14411" lon="-3.47457">
        <ele>2017.46</ele>
        <time>2014-04-27T09:28:29Z</time>
      </trkpt>
      <trkpt lat="41.1441" lon="-3.47456">
        <ele>2017.46</ele>
        <time>2014-04-27T09:28:30Z</time>
      </trkpt>
      <trkpt lat="41.14397" lon="-3.47436">
        <ele>2020.35</ele>
        <time>2014-04-27T09:28:47Z</time>
      </trkpt>
      <trkpt lat="41.14394" lon="-3.47433">
        <ele>2020.83</ele>
        <time>2014-04-27T09:28:51Z</time>
      </trkpt>
      <trkpt lat="41.14389" lon="-3.47425">
        <ele>2022.75</ele>
        <time>2014-04-27T09:29:02Z</time>
      </trkpt>
      <trkpt lat="41.1439" lon="-3.47426">
        <ele>2021.31</ele>
        <time>2014-04-27T09:29:21Z</time>
      </trkpt>
      <trkpt lat="41.1439" lon="-3.47423">
        <ele>2020.83</ele>
        <time>2014-04-27T09:29:25Z</time>
      </trkpt>
      <trkpt lat="41.14392" lon="-3.47416">
        <ele>2021.79</ele>
        <time>2014-04-27T09:29:30Z</time>
      </trkpt>
      <trkpt lat="41.14393" lon="-3.47413">
        <ele>2021.79</ele>
        <time>2014-04-27T09:29:32Z</time>
      </trkpt>
      <trkpt lat="41.14396" lon="-3.47405">
        <ele>2022.75</ele>
        <time>2014-04-27T09:29:40Z</time>
      </trkpt>
      <trkpt lat="41.14399" lon="-3.47403">
        <ele>2024.67</ele>
        <time>2014-04-27T09:29:44Z</time>
      </trkpt>
      <trkpt lat="41.14407" lon="-3.47401">
        <ele>2026.6</ele>
        <time>2014-04-27T09:29:53Z</time>
      </trkpt>
      <trkpt lat="41.1442" lon="-3.47396">
        <ele>2029.48</ele>
        <time>2014-04-27T09:30:06Z</time>
      </trkpt>
      <trkpt lat="41.14434" lon="-3.47386">
        <ele>2029</ele>
        <time>2014-04-27T09:30:20Z</time>
      </trkpt>
      <trkpt lat="41.14436" lon="-3.47385">
        <ele>2027.56</ele>
        <time>2014-04-27T09:30:22Z</time>
      </trkpt>
      <trkpt lat="41.14441" lon="-3.47382">
        <ele>2024.19</ele>
        <time>2014-04-27T09:30:27Z</time>
      </trkpt>
      <trkpt lat="41.14445" lon="-3.4738">
        <ele>2027.56</ele>
        <time>2014-04-27T09:30:31Z</time>
      </trkpt>
      <trkpt lat="41.1445" lon="-3.47378">
        <ele>2028.52</ele>
        <time>2014-04-27T09:30:36Z</time>
      </trkpt>
      <trkpt lat="41.14452" lon="-3.47376">
        <ele>2029</ele>
        <time>2014-04-27T09:30:38Z</time>
      </trkpt>
      <trkpt lat="41.14453" lon="-3.47376">
        <ele>2028.52</ele>
        <time>2014-04-27T09:30:39Z</time>
      </trkpt>
      <trkpt lat="41.14455" lon="-3.47375">
        <ele>2028.04</ele>
        <time>2014-04-27T09:30:41Z</time>
      </trkpt>
      <trkpt lat="41.14456" lon="-3.47374">
        <ele>2029.48</ele>
        <time>2014-04-27T09:30:42Z</time>
      </trkpt>
      <trkpt lat="41.14457" lon="-3.47374">
        <ele>2029</ele>
        <time>2014-04-27T09:30:43Z</time>
      </trkpt>
      <trkpt lat="41.14458" lon="-3.47373">
        <ele>2029.48</ele>
        <time>2014-04-27T09:30:44Z</time>
      </trkpt>
      <trkpt lat="41.14459" lon="-3.47373">
        <ele>2030.44</ele>
        <time>2014-04-27T09:30:45Z</time>
      </trkpt>
      <trkpt lat="41.1446" lon="-3.47372">
        <ele>2030.92</ele>
        <time>2014-04-27T09:30:46Z</time>
      </trkpt>
      <trkpt lat="41.14461" lon="-3.47371">
        <ele>2030.92</ele>
        <time>2014-04-27T09:30:47Z</time>
      </trkpt>
      <trkpt lat="41.14467" lon="-3.47369">
        <ele>2029.96</ele>
        <time>2014-04-27T09:30:52Z</time>
      </trkpt>
      <trkpt lat="41.14479" lon="-3.47364">
        <ele>2027.56</ele>
        <time>2014-04-27T09:31:03Z</time>
      </trkpt>
      <trkpt lat="41.14481" lon="-3.47364">
        <ele>2027.56</ele>
        <time>2014-04-27T09:31:04Z</time>
      </trkpt>
      <trkpt lat="41.14482" lon="-3.47363">
        <ele>2027.56</ele>
        <time>2014-04-27T09:31:05Z</time>
      </trkpt>
      <trkpt lat="41.14483" lon="-3.47362">
        <ele>2027.56</ele>
        <time>2014-04-27T09:31:06Z</time>
      </trkpt>
      <trkpt lat="41.14484" lon="-3.47362">
        <ele>2027.56</ele>
        <time>2014-04-27T09:31:07Z</time>
      </trkpt>
      <trkpt lat="41.14483" lon="-3.47364">
        <ele>2029.96</ele>
        <time>2014-04-27T09:31:16Z</time>
      </trkpt>
      <trkpt lat="41.14495" lon="-3.4736">
        <ele>2028.52</ele>
        <time>2014-04-27T09:31:30Z</time>
      </trkpt>
      <trkpt lat="41.14513" lon="-3.47358">
        <ele>2027.08</ele>
        <time>2014-04-27T09:31:47Z</time>
      </trkpt>
      <trkpt lat="41.14529" lon="-3.47354">
        <ele>2027.08</ele>
        <time>2014-04-27T09:32:00Z</time>
      </trkpt>
      <trkpt lat="41.14546" lon="-3.47349">
        <ele>2026.6</ele>
        <time>2014-04-27T09:32:17Z</time>
      </trkpt>
      <trkpt lat="41.14559" lon="-3.47343">
        <ele>2026.6</ele>
        <time>2014-04-27T09:32:31Z</time>
      </trkpt>
      <trkpt lat="41.14581" lon="-3.47331">
        <ele>2026.12</ele>
        <time>2014-04-27T09:32:49Z</time>
      </trkpt>
      <trkpt lat="41.14596" lon="-3.47321">
        <ele>2024.19</ele>
        <time>2014-04-27T09:33:02Z</time>
      </trkpt>
      <trkpt lat="41.14604" lon="-3.47318">
        <ele>2024.19</ele>
        <time>2014-04-27T09:33:08Z</time>
      </trkpt>
      <trkpt lat="41.14605" lon="-3.47314">
        <ele>2023.23</ele>
        <time>2014-04-27T09:33:22Z</time>
      </trkpt>
      <trkpt lat="41.14607" lon="-3.47313">
        <ele>2022.75</ele>
        <time>2014-04-27T09:33:23Z</time>
      </trkpt>
      <trkpt lat="41.14608" lon="-3.47313">
        <ele>2022.75</ele>
        <time>2014-04-27T09:33:24Z</time>
      </trkpt>
      <trkpt lat="41.14607" lon="-3.47317">
        <ele>2022.27</ele>
        <time>2014-04-27T09:33:33Z</time>
      </trkpt>
      <trkpt lat="41.14605" lon="-3.47318">
        <ele>2021.31</ele>
        <time>2014-04-27T09:33:57Z</time>
      </trkpt>
      <trkpt lat="41.14606" lon="-3.47318">
        <ele>2019.87</ele>
        <time>2014-04-27T09:34:15Z</time>
      </trkpt>
      <trkpt lat="41.14606" lon="-3.47317">
        <ele>2022.27</ele>
        <time>2014-04-27T09:34:44Z</time>
      </trkpt>
      <trkpt lat="41.14607" lon="-3.47317">
        <ele>2021.79</ele>
        <time>2014-04-27T09:35:00Z</time>
      </trkpt>
      <trkpt lat="41.14631" lon="-3.47305">
        <ele>2020.35</ele>
        <time>2014-04-27T09:35:18Z</time>
      </trkpt>
      <trkpt lat="41.14633" lon="-3.47304">
        <ele>2019.39</ele>
        <time>2014-04-27T09:35:20Z</time>
      </trkpt>
      <trkpt lat="41.14634" lon="-3.47303">
        <ele>2018.91</ele>
        <time>2014-04-27T09:35:21Z</time>
      </trkpt>
      <trkpt lat="41.14653" lon="-3.47288">
        <ele>2019.39</ele>
        <time>2014-04-27T09:35:37Z</time>
      </trkpt>
      <trkpt lat="41.1466" lon="-3.4728">
        <ele>2017.46</ele>
        <time>2014-04-27T09:35:45Z</time>
      </trkpt>
      <trkpt lat="41.14659" lon="-3.47276">
        <ele>2016.5</ele>
        <time>2014-04-27T09:35:47Z</time>
      </trkpt>
      <trkpt lat="41.14657" lon="-3.47275">
        <ele>2015.54</ele>
        <time>2014-04-27T09:35:49Z</time>
      </trkpt>
      <trkpt lat="41.14656" lon="-3.47275">
        <ele>2015.54</ele>
        <time>2014-04-27T09:35:50Z</time>
      </trkpt>
      <trkpt lat="41.14654" lon="-3.47275">
        <ele>2015.06</ele>
        <time>2014-04-27T09:35:51Z</time>
      </trkpt>
      <trkpt lat="41.14653" lon="-3.47276">
        <ele>2015.06</ele>
        <time>2014-04-27T09:35:52Z</time>
      </trkpt>
      <trkpt lat="41.14652" lon="-3.47276">
        <ele>2014.58</ele>
        <time>2014-04-27T09:35:53Z</time>
      </trkpt>
      <trkpt lat="41.1465" lon="-3.47276">
        <ele>2014.58</ele>
        <time>2014-04-27T09:35:54Z</time>
      </trkpt>
      <trkpt lat="41.14627" lon="-3.47276">
        <ele>2012.18</ele>
        <time>2014-04-27T09:36:11Z</time>
      </trkpt>
      <trkpt lat="41.14602" lon="-3.47276">
        <ele>2009.77</ele>
        <time>2014-04-27T09:36:29Z</time>
      </trkpt>
      <trkpt lat="41.14577" lon="-3.47281">
        <ele>2006.89</ele>
        <time>2014-04-27T09:36:48Z</time>
      </trkpt>
      <trkpt lat="41.14552" lon="-3.47283">
        <ele>2005.45</ele>
        <time>2014-04-27T09:37:06Z</time>
      </trkpt>
      <trkpt lat="41.14525" lon="-3.47273">
        <ele>2004.01</ele>
        <time>2014-04-27T09:37:27Z</time>
      </trkpt>
      <trkpt lat="41.14501" lon="-3.4726">
        <ele>2002.08</ele>
        <time>2014-04-27T09:37:47Z</time>
      </trkpt>
      <trkpt lat="41.14482" lon="-3.47247">
        <ele>2000.64</ele>
        <time>2014-04-27T09:38:02Z</time>
      </trkpt>
      <trkpt lat="41.14481" lon="-3.47247">
        <ele>2001.6</ele>
        <time>2014-04-27T09:38:03Z</time>
      </trkpt>
      <trkpt lat="41.14457" lon="-3.47241">
        <ele>2001.6</ele>
        <time>2014-04-27T09:38:22Z</time>
      </trkpt>
      <trkpt lat="41.14448" lon="-3.47239">
        <ele>1997.76</ele>
        <time>2014-04-27T09:38:30Z</time>
      </trkpt>
      <trkpt lat="41.14447" lon="-3.47238">
        <ele>1997.76</ele>
        <time>2014-04-27T09:38:31Z</time>
      </trkpt>
      <trkpt lat="41.1443" lon="-3.47229">
        <ele>1998.24</ele>
        <time>2014-04-27T09:38:50Z</time>
      </trkpt>
      <trkpt lat="41.14414" lon="-3.4722">
        <ele>1996.8</ele>
        <time>2014-04-27T09:39:08Z</time>
      </trkpt>
      <trkpt lat="41.14397" lon="-3.47212">
        <ele>1994.87</ele>
        <time>2014-04-27T09:39:26Z</time>
      </trkpt>
      <trkpt lat="41.14378" lon="-3.47198">
        <ele>1994.87</ele>
        <time>2014-04-27T09:39:45Z</time>
      </trkpt>
      <trkpt lat="41.14375" lon="-3.47195">
        <ele>1993.91</ele>
        <time>2014-04-27T09:39:49Z</time>
      </trkpt>
      <trkpt lat="41.14369" lon="-3.47184">
        <ele>1993.91</ele>
        <time>2014-04-27T09:40:00Z</time>
      </trkpt>
      <trkpt lat="41.14353" lon="-3.47171">
        <ele>1992.47</ele>
        <time>2014-04-27T09:40:15Z</time>
      </trkpt>
      <trkpt lat="41.14341" lon="-3.47171">
        <ele>1992.47</ele>
        <time>2014-04-27T09:40:24Z</time>
      </trkpt>
      <trkpt lat="41.14338" lon="-3.47172">
        <ele>1992.47</ele>
        <time>2014-04-27T09:40:35Z</time>
      </trkpt>
      <trkpt lat="41.14337" lon="-3.47171">
        <ele>1991.99</ele>
        <time>2014-04-27T09:40:36Z</time>
      </trkpt>
      <trkpt lat="41.14321" lon="-3.47165">
        <ele>1989.59</ele>
        <time>2014-04-27T09:40:48Z</time>
      </trkpt>
      <trkpt lat="41.14319" lon="-3.47164">
        <ele>1989.1</ele>
        <time>2014-04-27T09:40:49Z</time>
      </trkpt>
      <trkpt lat="41.14318" lon="-3.47163">
        <ele>1989.1</ele>
        <time>2014-04-27T09:40:50Z</time>
      </trkpt>
      <trkpt lat="41.14317" lon="-3.47162">
        <ele>1988.62</ele>
        <time>2014-04-27T09:40:51Z</time>
      </trkpt>
      <trkpt lat="41.14316" lon="-3.47161">
        <ele>1988.62</ele>
        <time>2014-04-27T09:40:52Z</time>
      </trkpt>
      <trkpt lat="41.14315" lon="-3.47161">
        <ele>1988.14</ele>
        <time>2014-04-27T09:40:53Z</time>
      </trkpt>
      <trkpt lat="41.14314" lon="-3.4716">
        <ele>1988.14</ele>
        <time>2014-04-27T09:40:54Z</time>
      </trkpt>
      <trkpt lat="41.14298" lon="-3.47149">
        <ele>1984.78</ele>
        <time>2014-04-27T09:41:07Z</time>
      </trkpt>
      <trkpt lat="41.14289" lon="-3.47141">
        <ele>1982.86</ele>
        <time>2014-04-27T09:41:15Z</time>
      </trkpt>
      <trkpt lat="41.14287" lon="-3.47139">
        <ele>1982.38</ele>
        <time>2014-04-27T09:41:17Z</time>
      </trkpt>
      <trkpt lat="41.14284" lon="-3.47138">
        <ele>1981.9</ele>
        <time>2014-04-27T09:41:31Z</time>
      </trkpt>
      <trkpt lat="41.14269" lon="-3.47127">
        <ele>1979.97</ele>
        <time>2014-04-27T09:41:45Z</time>
      </trkpt>
      <trkpt lat="41.14268" lon="-3.47126">
        <ele>1979.97</ele>
        <time>2014-04-27T09:41:46Z</time>
      </trkpt>
      <trkpt lat="41.14252" lon="-3.47111">
        <ele>1977.09</ele>
        <time>2014-04-27T09:42:01Z</time>
      </trkpt>
      <trkpt lat="41.14236" lon="-3.47099">
        <ele>1974.2</ele>
        <time>2014-04-27T09:42:14Z</time>
      </trkpt>
      <trkpt lat="41.14228" lon="-3.47094">
        <ele>1972.76</ele>
        <time>2014-04-27T09:42:20Z</time>
      </trkpt>
      <trkpt lat="41.14227" lon="-3.47093">
        <ele>1972.76</ele>
        <time>2014-04-27T09:42:21Z</time>
      </trkpt>
      <trkpt lat="41.14226" lon="-3.47091">
        <ele>1972.28</ele>
        <time>2014-04-27T09:42:22Z</time>
      </trkpt>
      <trkpt lat="41.14225" lon="-3.47091">
        <ele>1972.28</ele>
        <time>2014-04-27T09:42:23Z</time>
      </trkpt>
      <trkpt lat="41.14224" lon="-3.4709">
        <ele>1971.8</ele>
        <time>2014-04-27T09:42:24Z</time>
      </trkpt>
      <trkpt lat="41.14223" lon="-3.47089">
        <ele>1971.32</ele>
        <time>2014-04-27T09:42:25Z</time>
      </trkpt>
      <trkpt lat="41.14222" lon="-3.47088">
        <ele>1971.32</ele>
        <time>2014-04-27T09:42:26Z</time>
      </trkpt>
      <trkpt lat="41.14221" lon="-3.47088">
        <ele>1970.84</ele>
        <time>2014-04-27T09:42:27Z</time>
      </trkpt>
      <trkpt lat="41.14206" lon="-3.47078">
        <ele>1967.48</ele>
        <time>2014-04-27T09:42:38Z</time>
      </trkpt>
      <trkpt lat="41.14192" lon="-3.47065">
        <ele>1964.11</ele>
        <time>2014-04-27T09:42:51Z</time>
      </trkpt>
      <trkpt lat="41.14177" lon="-3.47055">
        <ele>1961.23</ele>
        <time>2014-04-27T09:43:04Z</time>
      </trkpt>
      <trkpt lat="41.14172" lon="-3.47051">
        <ele>1960.27</ele>
        <time>2014-04-27T09:43:09Z</time>
      </trkpt>
      <trkpt lat="41.14171" lon="-3.4705">
        <ele>1960.27</ele>
        <time>2014-04-27T09:43:10Z</time>
      </trkpt>
      <trkpt lat="41.14164" lon="-3.47042">
        <ele>1959.3</ele>
        <time>2014-04-27T09:43:16Z</time>
      </trkpt>
      <trkpt lat="41.14159" lon="-3.47041">
        <ele>1959.3</ele>
        <time>2014-04-27T09:43:20Z</time>
      </trkpt>
      <trkpt lat="41.14143" lon="-3.47024">
        <ele>1957.38</ele>
        <time>2014-04-27T09:43:34Z</time>
      </trkpt>
      <trkpt lat="41.14119" lon="-3.4701">
        <ele>1954.02</ele>
        <time>2014-04-27T09:43:52Z</time>
      </trkpt>
      <trkpt lat="41.14106" lon="-3.47005">
        <ele>1952.57</ele>
        <time>2014-04-27T09:44:02Z</time>
      </trkpt>
      <trkpt lat="41.14085" lon="-3.47">
        <ele>1950.17</ele>
        <time>2014-04-27T09:44:17Z</time>
      </trkpt>
      <trkpt lat="41.14082" lon="-3.47">
        <ele>1949.69</ele>
        <time>2014-04-27T09:44:19Z</time>
      </trkpt>
      <trkpt lat="41.14081" lon="-3.46999">
        <ele>1949.21</ele>
        <time>2014-04-27T09:44:20Z</time>
      </trkpt>
      <trkpt lat="41.14063" lon="-3.46993">
        <ele>1946.33</ele>
        <time>2014-04-27T09:44:33Z</time>
      </trkpt>
      <trkpt lat="41.14039" lon="-3.46991">
        <ele>1943.92</ele>
        <time>2014-04-27T09:44:50Z</time>
      </trkpt>
      <trkpt lat="41.14014" lon="-3.46987">
        <ele>1942</ele>
        <time>2014-04-27T09:45:08Z</time>
      </trkpt>
      <trkpt lat="41.13992" lon="-3.4699">
        <ele>1940.08</ele>
        <time>2014-04-27T09:45:24Z</time>
      </trkpt>
      <trkpt lat="41.13976" lon="-3.46981">
        <ele>1937.67</ele>
        <time>2014-04-27T09:45:37Z</time>
      </trkpt>
      <trkpt lat="41.13955" lon="-3.4698">
        <ele>1934.31</ele>
        <time>2014-04-27T09:45:53Z</time>
      </trkpt>
      <trkpt lat="41.13931" lon="-3.46978">
        <ele>1932.87</ele>
        <time>2014-04-27T09:46:10Z</time>
      </trkpt>
      <trkpt lat="41.13924" lon="-3.46976">
        <ele>1931.91</ele>
        <time>2014-04-27T09:46:15Z</time>
      </trkpt>
      <trkpt lat="41.13922" lon="-3.46975">
        <ele>1931.43</ele>
        <time>2014-04-27T09:46:16Z</time>
      </trkpt>
      <trkpt lat="41.13921" lon="-3.46975">
        <ele>1931.43</ele>
        <time>2014-04-27T09:46:17Z</time>
      </trkpt>
      <trkpt lat="41.13902" lon="-3.46976">
        <ele>1928.54</ele>
        <time>2014-04-27T09:46:32Z</time>
      </trkpt>
      <trkpt lat="41.13883" lon="-3.46975">
        <ele>1925.66</ele>
        <time>2014-04-27T09:46:46Z</time>
      </trkpt>
      <trkpt lat="41.13861" lon="-3.46966">
        <ele>1923.74</ele>
        <time>2014-04-27T09:47:01Z</time>
      </trkpt>
      <trkpt lat="41.13836" lon="-3.4696">
        <ele>1920.85</ele>
        <time>2014-04-27T09:47:19Z</time>
      </trkpt>
      <trkpt lat="41.13811" lon="-3.46962">
        <ele>1919.41</ele>
        <time>2014-04-27T09:47:36Z</time>
      </trkpt>
      <trkpt lat="41.13794" lon="-3.46963">
        <ele>1916.53</ele>
        <time>2014-04-27T09:47:49Z</time>
      </trkpt>
      <trkpt lat="41.13791" lon="-3.46963">
        <ele>1916.53</ele>
        <time>2014-04-27T09:47:51Z</time>
      </trkpt>
      <trkpt lat="41.1377" lon="-3.4696">
        <ele>1914.6</ele>
        <time>2014-04-27T09:48:06Z</time>
      </trkpt>
      <trkpt lat="41.13748" lon="-3.46954">
        <ele>1914.6</ele>
        <time>2014-04-27T09:48:22Z</time>
      </trkpt>
      <trkpt lat="41.13724" lon="-3.46957">
        <ele>1915.56</ele>
        <time>2014-04-27T09:48:39Z</time>
      </trkpt>
      <trkpt lat="41.13704" lon="-3.4696">
        <ele>1915.56</ele>
        <time>2014-04-27T09:48:55Z</time>
      </trkpt>
      <trkpt lat="41.13685" lon="-3.46956">
        <ele>1913.64</ele>
        <time>2014-04-27T09:49:09Z</time>
      </trkpt>
      <trkpt lat="41.13674" lon="-3.46955">
        <ele>1912.68</ele>
        <time>2014-04-27T09:49:16Z</time>
      </trkpt>
      <trkpt lat="41.13673" lon="-3.46956">
        <ele>1913.64</ele>
        <time>2014-04-27T09:49:17Z</time>
      </trkpt>
      <trkpt lat="41.13672" lon="-3.46956">
        <ele>1912.68</ele>
        <time>2014-04-27T09:49:18Z</time>
      </trkpt>
      <trkpt lat="41.13671" lon="-3.46955">
        <ele>1912.68</ele>
        <time>2014-04-27T09:49:19Z</time>
      </trkpt>
      <trkpt lat="41.13669" lon="-3.46955">
        <ele>1912.2</ele>
        <time>2014-04-27T09:49:20Z</time>
      </trkpt>
      <trkpt lat="41.13668" lon="-3.46955">
        <ele>1912.2</ele>
        <time>2014-04-27T09:49:21Z</time>
      </trkpt>
      <trkpt lat="41.13647" lon="-3.4695">
        <ele>1909.32</ele>
        <time>2014-04-27T09:49:37Z</time>
      </trkpt>
      <trkpt lat="41.13634" lon="-3.4695">
        <ele>1905.95</ele>
        <time>2014-04-27T09:49:46Z</time>
      </trkpt>
      <trkpt lat="41.13633" lon="-3.4695">
        <ele>1905.47</ele>
        <time>2014-04-27T09:49:47Z</time>
      </trkpt>
      <trkpt lat="41.13632" lon="-3.46951">
        <ele>1905.47</ele>
        <time>2014-04-27T09:49:48Z</time>
      </trkpt>
      <trkpt lat="41.1363" lon="-3.46951">
        <ele>1904.99</ele>
        <time>2014-04-27T09:49:49Z</time>
      </trkpt>
      <trkpt lat="41.13629" lon="-3.46951">
        <ele>1904.03</ele>
        <time>2014-04-27T09:49:50Z</time>
      </trkpt>
      <trkpt lat="41.13628" lon="-3.46951">
        <ele>1904.03</ele>
        <time>2014-04-27T09:49:51Z</time>
      </trkpt>
      <trkpt lat="41.13627" lon="-3.4695">
        <ele>1903.55</ele>
        <time>2014-04-27T09:49:52Z</time>
      </trkpt>
      <trkpt lat="41.13626" lon="-3.4695">
        <ele>1903.55</ele>
        <time>2014-04-27T09:49:53Z</time>
      </trkpt>
      <trkpt lat="41.13625" lon="-3.4695">
        <ele>1903.55</ele>
        <time>2014-04-27T09:49:54Z</time>
      </trkpt>
      <trkpt lat="41.13623" lon="-3.4695">
        <ele>1903.07</ele>
        <time>2014-04-27T09:49:55Z</time>
      </trkpt>
      <trkpt lat="41.13622" lon="-3.4695">
        <ele>1902.59</ele>
        <time>2014-04-27T09:49:56Z</time>
      </trkpt>
      <trkpt lat="41.13621" lon="-3.46949">
        <ele>1902.59</ele>
        <time>2014-04-27T09:49:57Z</time>
      </trkpt>
      <trkpt lat="41.13619" lon="-3.46949">
        <ele>1902.59</ele>
        <time>2014-04-27T09:49:58Z</time>
      </trkpt>
      <trkpt lat="41.13618" lon="-3.4695">
        <ele>1902.11</ele>
        <time>2014-04-27T09:49:59Z</time>
      </trkpt>
      <trkpt lat="41.13617" lon="-3.4695">
        <ele>1901.63</ele>
        <time>2014-04-27T09:50:00Z</time>
      </trkpt>
      <trkpt lat="41.13615" lon="-3.4695">
        <ele>1901.63</ele>
        <time>2014-04-27T09:50:01Z</time>
      </trkpt>
      <trkpt lat="41.13614" lon="-3.46951">
        <ele>1901.63</ele>
        <time>2014-04-27T09:50:02Z</time>
      </trkpt>
      <trkpt lat="41.13613" lon="-3.46952">
        <ele>1901.14</ele>
        <time>2014-04-27T09:50:03Z</time>
      </trkpt>
      <trkpt lat="41.13612" lon="-3.46953">
        <ele>1901.14</ele>
        <time>2014-04-27T09:50:04Z</time>
      </trkpt>
      <trkpt lat="41.13591" lon="-3.46961">
        <ele>1900.18</ele>
        <time>2014-04-27T09:50:19Z</time>
      </trkpt>
      <trkpt lat="41.13571" lon="-3.4697">
        <ele>1896.82</ele>
        <time>2014-04-27T09:50:34Z</time>
      </trkpt>
      <trkpt lat="41.13566" lon="-3.46973">
        <ele>1896.34</ele>
        <time>2014-04-27T09:50:39Z</time>
      </trkpt>
      <trkpt lat="41.13541" lon="-3.46981">
        <ele>1893.45</ele>
        <time>2014-04-27T09:50:57Z</time>
      </trkpt>
      <trkpt lat="41.13516" lon="-3.46987">
        <ele>1891.05</ele>
        <time>2014-04-27T09:51:15Z</time>
      </trkpt>
      <trkpt lat="41.13507" lon="-3.46988">
        <ele>1890.09</ele>
        <time>2014-04-27T09:51:21Z</time>
      </trkpt>
      <trkpt lat="41.13497" lon="-3.4699">
        <ele>1887.21</ele>
        <time>2014-04-27T09:51:29Z</time>
      </trkpt>
      <trkpt lat="41.13477" lon="-3.46991">
        <ele>1884.32</ele>
        <time>2014-04-27T09:51:43Z</time>
      </trkpt>
      <trkpt lat="41.13459" lon="-3.46993">
        <ele>1880.96</ele>
        <time>2014-04-27T09:51:56Z</time>
      </trkpt>
      <trkpt lat="41.13457" lon="-3.46993">
        <ele>1880.96</ele>
        <time>2014-04-27T09:51:57Z</time>
      </trkpt>
      <trkpt lat="41.13438" lon="-3.46996">
        <ele>1879.51</ele>
        <time>2014-04-27T09:52:11Z</time>
      </trkpt>
      <trkpt lat="41.1343" lon="-3.46997">
        <ele>1878.55</ele>
        <time>2014-04-27T09:52:20Z</time>
      </trkpt>
      <trkpt lat="41.13428" lon="-3.46997">
        <ele>1878.55</ele>
        <time>2014-04-27T09:52:21Z</time>
      </trkpt>
      <trkpt lat="41.13404" lon="-3.47">
        <ele>1876.63</ele>
        <time>2014-04-27T09:52:37Z</time>
      </trkpt>
      <trkpt lat="41.13377" lon="-3.47004">
        <ele>1874.71</ele>
        <time>2014-04-27T09:52:55Z</time>
      </trkpt>
      <trkpt lat="41.13348" lon="-3.4701">
        <ele>1872.79</ele>
        <time>2014-04-27T09:53:15Z</time>
      </trkpt>
      <trkpt lat="41.13322" lon="-3.47016">
        <ele>1871.82</ele>
        <time>2014-04-27T09:53:33Z</time>
      </trkpt>
      <trkpt lat="41.133" lon="-3.47021">
        <ele>1870.38</ele>
        <time>2014-04-27T09:53:51Z</time>
      </trkpt>
      <trkpt lat="41.13275" lon="-3.47023">
        <ele>1868.46</ele>
        <time>2014-04-27T09:54:09Z</time>
      </trkpt>
      <trkpt lat="41.13246" lon="-3.47023">
        <ele>1866.06</ele>
        <time>2014-04-27T09:54:29Z</time>
      </trkpt>
      <trkpt lat="41.13219" lon="-3.47017">
        <ele>1864.13</ele>
        <time>2014-04-27T09:54:50Z</time>
      </trkpt>
      <trkpt lat="41.13195" lon="-3.4701">
        <ele>1862.21</ele>
        <time>2014-04-27T09:55:07Z</time>
      </trkpt>
      <trkpt lat="41.13173" lon="-3.47001">
        <ele>1860.29</ele>
        <time>2014-04-27T09:55:24Z</time>
      </trkpt>
      <trkpt lat="41.13148" lon="-3.46991">
        <ele>1857.89</ele>
        <time>2014-04-27T09:55:42Z</time>
      </trkpt>
      <trkpt lat="41.13124" lon="-3.46985">
        <ele>1855.96</ele>
        <time>2014-04-27T09:55:59Z</time>
      </trkpt>
      <trkpt lat="41.13097" lon="-3.46977">
        <ele>1853.56</ele>
        <time>2014-04-27T09:56:18Z</time>
      </trkpt>
      <trkpt lat="41.13078" lon="-3.46958">
        <ele>1852.6</ele>
        <time>2014-04-27T09:56:36Z</time>
      </trkpt>
      <trkpt lat="41.13065" lon="-3.46934">
        <ele>1852.6</ele>
        <time>2014-04-27T09:56:51Z</time>
      </trkpt>
      <trkpt lat="41.13051" lon="-3.4692">
        <ele>1850.19</ele>
        <time>2014-04-27T09:57:04Z</time>
      </trkpt>
      <trkpt lat="41.13049" lon="-3.46919">
        <ele>1851.16</ele>
        <time>2014-04-27T09:57:18Z</time>
      </trkpt>
      <trkpt lat="41.13047" lon="-3.46918">
        <ele>1851.16</ele>
        <time>2014-04-27T09:57:20Z</time>
      </trkpt>
      <trkpt lat="41.13046" lon="-3.46917">
        <ele>1852.6</ele>
        <time>2014-04-27T09:57:21Z</time>
      </trkpt>
      <trkpt lat="41.13045" lon="-3.46916">
        <ele>1851.64</ele>
        <time>2014-04-27T09:57:22Z</time>
      </trkpt>
      <trkpt lat="41.13043" lon="-3.46915">
        <ele>1851.16</ele>
        <time>2014-04-27T09:57:23Z</time>
      </trkpt>
      <trkpt lat="41.13042" lon="-3.46915">
        <ele>1851.64</ele>
        <time>2014-04-27T09:57:24Z</time>
      </trkpt>
      <trkpt lat="41.1304" lon="-3.46915">
        <ele>1851.64</ele>
        <time>2014-04-27T09:57:25Z</time>
      </trkpt>
      <trkpt lat="41.13039" lon="-3.46915">
        <ele>1851.64</ele>
        <time>2014-04-27T09:57:26Z</time>
      </trkpt>
      <trkpt lat="41.13038" lon="-3.46914">
        <ele>1851.64</ele>
        <time>2014-04-27T09:57:27Z</time>
      </trkpt>
      <trkpt lat="41.13018" lon="-3.4691">
        <ele>1853.56</ele>
        <time>2014-04-27T09:57:43Z</time>
      </trkpt>
      <trkpt lat="41.13015" lon="-3.46909">
        <ele>1853.56</ele>
        <time>2014-04-27T09:57:45Z</time>
      </trkpt>
      <trkpt lat="41.1301" lon="-3.46911">
        <ele>1854.04</ele>
        <time>2014-04-27T09:57:53Z</time>
      </trkpt>
      <trkpt lat="41.13012" lon="-3.46916">
        <ele>1853.08</ele>
        <time>2014-04-27T09:57:57Z</time>
      </trkpt>
      <trkpt lat="41.13011" lon="-3.4692">
        <ele>1853.08</ele>
        <time>2014-04-27T09:58:00Z</time>
      </trkpt>
      <trkpt lat="41.13011" lon="-3.46923">
        <ele>1853.08</ele>
        <time>2014-04-27T09:58:02Z</time>
      </trkpt>
      <trkpt lat="41.1301" lon="-3.46929">
        <ele>1855.48</ele>
        <time>2014-04-27T09:58:06Z</time>
      </trkpt>
      <trkpt lat="41.13005" lon="-3.4693">
        <ele>1857.4</ele>
        <time>2014-04-27T09:58:11Z</time>
      </trkpt>
      <trkpt lat="41.12985" lon="-3.46931">
        <ele>1857.4</ele>
        <time>2014-04-27T09:58:26Z</time>
      </trkpt>
      <trkpt lat="41.12982" lon="-3.46931">
        <ele>1856.44</ele>
        <time>2014-04-27T09:58:28Z</time>
      </trkpt>
      <trkpt lat="41.12975" lon="-3.46927">
        <ele>1857.4</ele>
        <time>2014-04-27T09:58:34Z</time>
      </trkpt>
      <trkpt lat="41.12965" lon="-3.46924">
        <ele>1856.44</ele>
        <time>2014-04-27T09:58:42Z</time>
      </trkpt>
      <trkpt lat="41.1296" lon="-3.46922">
        <ele>1855.96</ele>
        <time>2014-04-27T09:58:46Z</time>
      </trkpt>
      <trkpt lat="41.12944" lon="-3.46922">
        <ele>1855.48</ele>
        <time>2014-04-27T09:58:57Z</time>
      </trkpt>
      <trkpt lat="41.12934" lon="-3.46925">
        <ele>1855</ele>
        <time>2014-04-27T09:59:04Z</time>
      </trkpt>
      <trkpt lat="41.12932" lon="-3.46924">
        <ele>1854.52</ele>
        <time>2014-04-27T09:59:06Z</time>
      </trkpt>
      <trkpt lat="41.12919" lon="-3.46915">
        <ele>1853.08</ele>
        <time>2014-04-27T09:59:16Z</time>
      </trkpt>
      <trkpt lat="41.12913" lon="-3.46918">
        <ele>1853.08</ele>
        <time>2014-04-27T09:59:20Z</time>
      </trkpt>
      <trkpt lat="41.12897" lon="-3.46914">
        <ele>1852.12</ele>
        <time>2014-04-27T09:59:31Z</time>
      </trkpt>
      <trkpt lat="41.12881" lon="-3.4691">
        <ele>1852.6</ele>
        <time>2014-04-27T09:59:43Z</time>
      </trkpt>
      <trkpt lat="41.12868" lon="-3.46907">
        <ele>1853.56</ele>
        <time>2014-04-27T09:59:53Z</time>
      </trkpt>
      <trkpt lat="41.12864" lon="-3.46908">
        <ele>1854.04</ele>
        <time>2014-04-27T09:59:56Z</time>
      </trkpt>
      <trkpt lat="41.12857" lon="-3.46901">
        <ele>1855</ele>
        <time>2014-04-27T10:00:05Z</time>
      </trkpt>
      <trkpt lat="41.12854" lon="-3.469">
        <ele>1855.48</ele>
        <time>2014-04-27T10:00:07Z</time>
      </trkpt>
      <trkpt lat="41.12841" lon="-3.469">
        <ele>1858.85</ele>
        <time>2014-04-27T10:00:18Z</time>
      </trkpt>
      <trkpt lat="41.12838" lon="-3.46901">
        <ele>1859.81</ele>
        <time>2014-04-27T10:00:21Z</time>
      </trkpt>
      <trkpt lat="41.1283" lon="-3.46899">
        <ele>1863.17</ele>
        <time>2014-04-27T10:00:33Z</time>
      </trkpt>
      <trkpt lat="41.12829" lon="-3.46898">
        <ele>1863.17</ele>
        <time>2014-04-27T10:00:34Z</time>
      </trkpt>
      <trkpt lat="41.12825" lon="-3.46899">
        <ele>1865.09</ele>
        <time>2014-04-27T10:00:38Z</time>
      </trkpt>
      <trkpt lat="41.12818" lon="-3.469">
        <ele>1867.5</ele>
        <time>2014-04-27T10:00:49Z</time>
      </trkpt>
      <trkpt lat="41.12814" lon="-3.46897">
        <ele>1869.9</ele>
        <time>2014-04-27T10:00:57Z</time>
      </trkpt>
      <trkpt lat="41.12809" lon="-3.46894">
        <ele>1871.82</ele>
        <time>2014-04-27T10:01:04Z</time>
      </trkpt>
      <trkpt lat="41.12805" lon="-3.46892">
        <ele>1872.79</ele>
        <time>2014-04-27T10:01:08Z</time>
      </trkpt>
      <trkpt lat="41.12803" lon="-3.46892">
        <ele>1873.27</ele>
        <time>2014-04-27T10:01:11Z</time>
      </trkpt>
      <trkpt lat="41.12798" lon="-3.46895">
        <ele>1874.71</ele>
        <time>2014-04-27T10:01:17Z</time>
      </trkpt>
      <trkpt lat="41.12789" lon="-3.46896">
        <ele>1877.11</ele>
        <time>2014-04-27T10:01:28Z</time>
      </trkpt>
      <trkpt lat="41.12787" lon="-3.46894">
        <ele>1878.07</ele>
        <time>2014-04-27T10:01:31Z</time>
      </trkpt>
      <trkpt lat="41.12781" lon="-3.46893">
        <ele>1881.44</ele>
        <time>2014-04-27T10:01:43Z</time>
      </trkpt>
      <trkpt lat="41.12781" lon="-3.46894">
        <ele>1881.44</ele>
        <time>2014-04-27T10:01:48Z</time>
      </trkpt>
      <trkpt lat="41.1278" lon="-3.46895">
        <ele>1880.96</ele>
        <time>2014-04-27T10:01:50Z</time>
      </trkpt>
      <trkpt lat="41.12779" lon="-3.46895">
        <ele>1880.96</ele>
        <time>2014-04-27T10:01:52Z</time>
      </trkpt>
      <trkpt lat="41.12773" lon="-3.46899">
        <ele>1882.88</ele>
        <time>2014-04-27T10:02:00Z</time>
      </trkpt>
      <trkpt lat="41.12772" lon="-3.46899">
        <ele>1883.36</ele>
        <time>2014-04-27T10:02:02Z</time>
      </trkpt>
      <trkpt lat="41.12767" lon="-3.46901">
        <ele>1883.84</ele>
        <time>2014-04-27T10:02:07Z</time>
      </trkpt>
      <trkpt lat="41.12756" lon="-3.46904">
        <ele>1885.76</ele>
        <time>2014-04-27T10:02:20Z</time>
      </trkpt>
      <trkpt lat="41.1275" lon="-3.46907">
        <ele>1887.69</ele>
        <time>2014-04-27T10:02:30Z</time>
      </trkpt>
      <trkpt lat="41.12745" lon="-3.46914">
        <ele>1890.57</ele>
        <time>2014-04-27T10:02:41Z</time>
      </trkpt>
      <trkpt lat="41.12738" lon="-3.4692">
        <ele>1893.45</ele>
        <time>2014-04-27T10:02:52Z</time>
      </trkpt>
      <trkpt lat="41.12729" lon="-3.46924">
        <ele>1895.38</ele>
        <time>2014-04-27T10:03:03Z</time>
      </trkpt>
      <trkpt lat="41.12722" lon="-3.46925">
        <ele>1896.34</ele>
        <time>2014-04-27T10:03:11Z</time>
      </trkpt>
      <trkpt lat="41.12715" lon="-3.46924">
        <ele>1896.34</ele>
        <time>2014-04-27T10:03:16Z</time>
      </trkpt>
      <trkpt lat="41.1271" lon="-3.46923">
        <ele>1895.86</ele>
        <time>2014-04-27T10:03:20Z</time>
      </trkpt>
      <trkpt lat="41.1269" lon="-3.46926">
        <ele>1896.82</ele>
        <time>2014-04-27T10:03:37Z</time>
      </trkpt>
      <trkpt lat="41.12689" lon="-3.46926">
        <ele>1896.82</ele>
        <time>2014-04-27T10:03:38Z</time>
      </trkpt>
      <trkpt lat="41.12674" lon="-3.46926">
        <ele>1898.74</ele>
        <time>2014-04-27T10:03:54Z</time>
      </trkpt>
      <trkpt lat="41.12661" lon="-3.46926">
        <ele>1898.26</ele>
        <time>2014-04-27T10:04:09Z</time>
      </trkpt>
      <trkpt lat="41.12643" lon="-3.46919">
        <ele>1899.22</ele>
        <time>2014-04-27T10:04:23Z</time>
      </trkpt>
      <trkpt lat="41.1264" lon="-3.46916">
        <ele>1898.74</ele>
        <time>2014-04-27T10:04:26Z</time>
      </trkpt>
      <trkpt lat="41.12636" lon="-3.46911">
        <ele>1897.78</ele>
        <time>2014-04-27T10:04:31Z</time>
      </trkpt>
      <trkpt lat="41.12624" lon="-3.46911">
        <ele>1898.26</ele>
        <time>2014-04-27T10:04:43Z</time>
      </trkpt>
      <trkpt lat="41.12608" lon="-3.46903">
        <ele>1898.26</ele>
        <time>2014-04-27T10:04:56Z</time>
      </trkpt>
      <trkpt lat="41.12595" lon="-3.46886">
        <ele>1899.22</ele>
        <time>2014-04-27T10:05:11Z</time>
      </trkpt>
      <trkpt lat="41.12593" lon="-3.46882">
        <ele>1900.66</ele>
        <time>2014-04-27T10:05:14Z</time>
      </trkpt>
      <trkpt lat="41.12591" lon="-3.46881">
        <ele>1901.14</ele>
        <time>2014-04-27T10:05:16Z</time>
      </trkpt>
      <trkpt lat="41.12587" lon="-3.46875">
        <ele>1904.03</ele>
        <time>2014-04-27T10:05:25Z</time>
      </trkpt>
      <trkpt lat="41.12582" lon="-3.46873">
        <ele>1904.51</ele>
        <time>2014-04-27T10:05:32Z</time>
      </trkpt>
      <trkpt lat="41.12574" lon="-3.46869">
        <ele>1906.91</ele>
        <time>2014-04-27T10:05:42Z</time>
      </trkpt>
      <trkpt lat="41.12571" lon="-3.46866">
        <ele>1908.35</ele>
        <time>2014-04-27T10:05:46Z</time>
      </trkpt>
      <trkpt lat="41.12567" lon="-3.46863">
        <ele>1910.76</ele>
        <time>2014-04-27T10:05:57Z</time>
      </trkpt>
      <trkpt lat="41.12566" lon="-3.46861">
        <ele>1912.2</ele>
        <time>2014-04-27T10:06:01Z</time>
      </trkpt>
      <trkpt lat="41.12568" lon="-3.46851">
        <ele>1914.6</ele>
        <time>2014-04-27T10:06:11Z</time>
      </trkpt>
      <trkpt lat="41.1256" lon="-3.46849">
        <ele>1916.53</ele>
        <time>2014-04-27T10:06:22Z</time>
      </trkpt>
      <trkpt lat="41.12554" lon="-3.46848">
        <ele>1917.49</ele>
        <time>2014-04-27T10:06:29Z</time>
      </trkpt>
      <trkpt lat="41.12548" lon="-3.46842">
        <ele>1919.41</ele>
        <time>2014-04-27T10:06:39Z</time>
      </trkpt>
      <trkpt lat="41.12546" lon="-3.46841">
        <ele>1919.41</ele>
        <time>2014-04-27T10:06:41Z</time>
      </trkpt>
      <trkpt lat="41.12541" lon="-3.46838">
        <ele>1921.33</ele>
        <time>2014-04-27T10:06:48Z</time>
      </trkpt>
      <trkpt lat="41.12539" lon="-3.46836">
        <ele>1921.33</ele>
        <time>2014-04-27T10:06:50Z</time>
      </trkpt>
      <trkpt lat="41.12538" lon="-3.46834">
        <ele>1922.29</ele>
        <time>2014-04-27T10:06:57Z</time>
      </trkpt>
      <trkpt lat="41.12533" lon="-3.46831">
        <ele>1925.66</ele>
        <time>2014-04-27T10:07:06Z</time>
      </trkpt>
      <trkpt lat="41.12533" lon="-3.4683">
        <ele>1925.66</ele>
        <time>2014-04-27T10:07:07Z</time>
      </trkpt>
      <trkpt lat="41.12524" lon="-3.46828">
        <ele>1928.06</ele>
        <time>2014-04-27T10:07:19Z</time>
      </trkpt>
      <trkpt lat="41.12523" lon="-3.46828">
        <ele>1928.06</ele>
        <time>2014-04-27T10:07:20Z</time>
      </trkpt>
      <trkpt lat="41.12519" lon="-3.46827">
        <ele>1928.54</ele>
        <time>2014-04-27T10:07:24Z</time>
      </trkpt>
      <trkpt lat="41.12516" lon="-3.46827">
        <ele>1929.98</ele>
        <time>2014-04-27T10:07:27Z</time>
      </trkpt>
      <trkpt lat="41.12508" lon="-3.46828">
        <ele>1927.1</ele>
        <time>2014-04-27T10:07:36Z</time>
      </trkpt>
      <trkpt lat="41.12504" lon="-3.46825">
        <ele>1929.98</ele>
        <time>2014-04-27T10:07:45Z</time>
      </trkpt>
      <trkpt lat="41.12504" lon="-3.46825">
        <ele>1929.98</ele>
        <time>2014-04-27T10:07:46Z</time>
      </trkpt>
      <trkpt lat="41.12501" lon="-3.46822">
        <ele>1926.62</ele>
        <time>2014-04-27T10:07:55Z</time>
      </trkpt>
      <trkpt lat="41.12501" lon="-3.46822">
        <ele>1926.62</ele>
        <time>2014-04-27T10:07:56Z</time>
      </trkpt>
      <trkpt lat="41.12495" lon="-3.46822">
        <ele>1928.54</ele>
        <time>2014-04-27T10:08:03Z</time>
      </trkpt>
      <trkpt lat="41.12483" lon="-3.4682">
        <ele>1928.54</ele>
        <time>2014-04-27T10:08:14Z</time>
      </trkpt>
      <trkpt lat="41.12476" lon="-3.46822">
        <ele>1927.58</ele>
        <time>2014-04-27T10:08:20Z</time>
      </trkpt>
      <trkpt lat="41.12456" lon="-3.46823">
        <ele>1926.14</ele>
        <time>2014-04-27T10:08:35Z</time>
      </trkpt>
      <trkpt lat="41.12454" lon="-3.46823">
        <ele>1926.14</ele>
        <time>2014-04-27T10:08:41Z</time>
      </trkpt>
      <trkpt lat="41.12438" lon="-3.46824">
        <ele>1926.14</ele>
        <time>2014-04-27T10:08:54Z</time>
      </trkpt>
      <trkpt lat="41.12415" lon="-3.46826">
        <ele>1925.66</ele>
        <time>2014-04-27T10:09:10Z</time>
      </trkpt>
      <trkpt lat="41.12397" lon="-3.46829">
        <ele>1925.66</ele>
        <time>2014-04-27T10:09:24Z</time>
      </trkpt>
      <trkpt lat="41.12392" lon="-3.46829">
        <ele>1926.14</ele>
        <time>2014-04-27T10:09:30Z</time>
      </trkpt>
      <trkpt lat="41.12388" lon="-3.46825">
        <ele>1923.74</ele>
        <time>2014-04-27T10:09:36Z</time>
      </trkpt>
      <trkpt lat="41.12379" lon="-3.46825">
        <ele>1921.33</ele>
        <time>2014-04-27T10:09:47Z</time>
      </trkpt>
      <trkpt lat="41.12372" lon="-3.46825">
        <ele>1920.37</ele>
        <time>2014-04-27T10:09:52Z</time>
      </trkpt>
      <trkpt lat="41.12357" lon="-3.46821">
        <ele>1917.97</ele>
        <time>2014-04-27T10:10:05Z</time>
      </trkpt>
      <trkpt lat="41.12353" lon="-3.46821">
        <ele>1917.01</ele>
        <time>2014-04-27T10:10:08Z</time>
      </trkpt>
      <trkpt lat="41.12338" lon="-3.46821">
        <ele>1915.56</ele>
        <time>2014-04-27T10:10:20Z</time>
      </trkpt>
      <trkpt lat="41.12335" lon="-3.46823">
        <ele>1916.53</ele>
        <time>2014-04-27T10:10:23Z</time>
      </trkpt>
      <trkpt lat="41.12332" lon="-3.46826">
        <ele>1917.49</ele>
        <time>2014-04-27T10:10:26Z</time>
      </trkpt>
      <trkpt lat="41.12326" lon="-3.46828">
        <ele>1918.93</ele>
        <time>2014-04-27T10:10:32Z</time>
      </trkpt>
      <trkpt lat="41.12323" lon="-3.46831">
        <ele>1919.41</ele>
        <time>2014-04-27T10:10:36Z</time>
      </trkpt>
      <trkpt lat="41.12317" lon="-3.46831">
        <ele>1918.45</ele>
        <time>2014-04-27T10:10:42Z</time>
      </trkpt>
      <trkpt lat="41.12314" lon="-3.46831">
        <ele>1917.97</ele>
        <time>2014-04-27T10:10:44Z</time>
      </trkpt>
      <trkpt lat="41.1231" lon="-3.46833">
        <ele>1917.49</ele>
        <time>2014-04-27T10:10:50Z</time>
      </trkpt>
      <trkpt lat="41.12308" lon="-3.46834">
        <ele>1917.01</ele>
        <time>2014-04-27T10:10:53Z</time>
      </trkpt>
      <trkpt lat="41.12305" lon="-3.46836">
        <ele>1917.97</ele>
        <time>2014-04-27T10:10:58Z</time>
      </trkpt>
      <trkpt lat="41.123" lon="-3.46833">
        <ele>1917.49</ele>
        <time>2014-04-27T10:11:05Z</time>
      </trkpt>
      <trkpt lat="41.12291" lon="-3.46832">
        <ele>1917.01</ele>
        <time>2014-04-27T10:11:13Z</time>
      </trkpt>
      <trkpt lat="41.12282" lon="-3.46837">
        <ele>1919.89</ele>
        <time>2014-04-27T10:11:25Z</time>
      </trkpt>
      <trkpt lat="41.12279" lon="-3.46839">
        <ele>1920.37</ele>
        <time>2014-04-27T10:11:28Z</time>
      </trkpt>
      <trkpt lat="41.12272" lon="-3.46844">
        <ele>1923.25</ele>
        <time>2014-04-27T10:11:38Z</time>
      </trkpt>
      <trkpt lat="41.12271" lon="-3.46845">
        <ele>1923.74</ele>
        <time>2014-04-27T10:11:40Z</time>
      </trkpt>
      <trkpt lat="41.12266" lon="-3.46845">
        <ele>1924.22</ele>
        <time>2014-04-27T10:11:44Z</time>
      </trkpt>
      <trkpt lat="41.1226" lon="-3.46846">
        <ele>1925.18</ele>
        <time>2014-04-27T10:11:56Z</time>
      </trkpt>
      <trkpt lat="41.12251" lon="-3.46849">
        <ele>1927.1</ele>
        <time>2014-04-27T10:12:08Z</time>
      </trkpt>
      <trkpt lat="41.12247" lon="-3.46854">
        <ele>1929.5</ele>
        <time>2014-04-27T10:12:16Z</time>
      </trkpt>
      <trkpt lat="41.12246" lon="-3.46855">
        <ele>1929.5</ele>
        <time>2014-04-27T10:12:26Z</time>
      </trkpt>
      <trkpt lat="41.12242" lon="-3.46855">
        <ele>1929.02</ele>
        <time>2014-04-27T10:12:30Z</time>
      </trkpt>
      <trkpt lat="41.12236" lon="-3.46858">
        <ele>1929.98</ele>
        <time>2014-04-27T10:12:43Z</time>
      </trkpt>
      <trkpt lat="41.12237" lon="-3.46856">
        <ele>1929.98</ele>
        <time>2014-04-27T10:13:04Z</time>
      </trkpt>
      <trkpt lat="41.12237" lon="-3.46856">
        <ele>1929.98</ele>
        <time>2014-04-27T10:13:23Z</time>
      </trkpt>
      <trkpt lat="41.12237" lon="-3.46858">
        <ele>1928.54</ele>
        <time>2014-04-27T10:13:40Z</time>
      </trkpt>
      <trkpt lat="41.12236" lon="-3.46858">
        <ele>1929.02</ele>
        <time>2014-04-27T10:14:00Z</time>
      </trkpt>
      <trkpt lat="41.12237" lon="-3.46858">
        <ele>1928.54</ele>
        <time>2014-04-27T10:14:25Z</time>
      </trkpt>
      <trkpt lat="41.12237" lon="-3.46858">
        <ele>1928.54</ele>
        <time>2014-04-27T10:14:48Z</time>
      </trkpt>
      <trkpt lat="41.12237" lon="-3.46857">
        <ele>1928.54</ele>
        <time>2014-04-27T10:15:26Z</time>
      </trkpt>
      <trkpt lat="41.12238" lon="-3.46857">
        <ele>1928.54</ele>
        <time>2014-04-27T10:15:57Z</time>
      </trkpt>
      <trkpt lat="41.12237" lon="-3.46857">
        <ele>1928.54</ele>
        <time>2014-04-27T10:16:29Z</time>
      </trkpt>
      <trkpt lat="41.12238" lon="-3.46857">
        <ele>1928.54</ele>
        <time>2014-04-27T10:17:02Z</time>
      </trkpt>
      <trkpt lat="41.12237" lon="-3.46856">
        <ele>1929.5</ele>
        <time>2014-04-27T10:17:26Z</time>
      </trkpt>
      <trkpt lat="41.12237" lon="-3.46855">
        <ele>1929.02</ele>
        <time>2014-04-27T10:18:09Z</time>
      </trkpt>
      <trkpt lat="41.12236" lon="-3.46856">
        <ele>1929.02</ele>
        <time>2014-04-27T10:18:45Z</time>
      </trkpt>
      <trkpt lat="41.12237" lon="-3.46855">
        <ele>1929.02</ele>
        <time>2014-04-27T10:19:20Z</time>
      </trkpt>
      <trkpt lat="41.12238" lon="-3.46855">
        <ele>1929.5</ele>
        <time>2014-04-27T10:19:54Z</time>
      </trkpt>
      <trkpt lat="41.12237" lon="-3.46856">
        <ele>1929.5</ele>
        <time>2014-04-27T10:20:35Z</time>
      </trkpt>
      <trkpt lat="41.12238" lon="-3.46855">
        <ele>1929.5</ele>
        <time>2014-04-27T10:21:11Z</time>
      </trkpt>
      <trkpt lat="41.12238" lon="-3.46856">
        <ele>1929.5</ele>
        <time>2014-04-27T10:21:54Z</time>
      </trkpt>
      <trkpt lat="41.12237" lon="-3.46855">
        <ele>1929.5</ele>
        <time>2014-04-27T10:22:19Z</time>
      </trkpt>
      <trkpt lat="41.12237" lon="-3.46855">
        <ele>1929.98</ele>
        <time>2014-04-27T10:22:57Z</time>
      </trkpt>
      <trkpt lat="41.12237" lon="-3.46856">
        <ele>1929.98</ele>
        <time>2014-04-27T10:23:24Z</time>
      </trkpt>
      <trkpt lat="41.12238" lon="-3.46856">
        <ele>1930.46</ele>
        <time>2014-04-27T10:24:02Z</time>
      </trkpt>
      <trkpt lat="41.12238" lon="-3.46857">
        <ele>1929.98</ele>
        <time>2014-04-27T10:24:43Z</time>
      </trkpt>
      <trkpt lat="41.12236" lon="-3.46856">
        <ele>1929.98</ele>
        <time>2014-04-27T10:25:11Z</time>
      </trkpt>
      <trkpt lat="41.12236" lon="-3.46856">
        <ele>1929.5</ele>
        <time>2014-04-27T10:25:42Z</time>
      </trkpt>
      <trkpt lat="41.12237" lon="-3.46855">
        <ele>1929.98</ele>
        <time>2014-04-27T10:26:19Z</time>
      </trkpt>
      <trkpt lat="41.12236" lon="-3.46855">
        <ele>1929.5</ele>
        <time>2014-04-27T10:26:51Z</time>
      </trkpt>
      <trkpt lat="41.12236" lon="-3.46855">
        <ele>1929.5</ele>
        <time>2014-04-27T10:27:24Z</time>
      </trkpt>
      <trkpt lat="41.12238" lon="-3.46856">
        <ele>1929.5</ele>
        <time>2014-04-27T10:27:47Z</time>
      </trkpt>
      <trkpt lat="41.12238" lon="-3.46856">
        <ele>1929.5</ele>
        <time>2014-04-27T10:28:14Z</time>
      </trkpt>
      <trkpt lat="41.12238" lon="-3.46856">
        <ele>1929.5</ele>
        <time>2014-04-27T10:28:46Z</time>
      </trkpt>
      <trkpt lat="41.12237" lon="-3.46856">
        <ele>1929.02</ele>
        <time>2014-04-27T10:29:13Z</time>
      </trkpt>
      <trkpt lat="41.12236" lon="-3.46856">
        <ele>1928.54</ele>
        <time>2014-04-27T10:29:58Z</time>
      </trkpt>
      <trkpt lat="41.12237" lon="-3.46856">
        <ele>1929.02</ele>
        <time>2014-04-27T10:30:23Z</time>
      </trkpt>
      <trkpt lat="41.12237" lon="-3.46855">
        <ele>1929.5</ele>
        <time>2014-04-27T10:30:35Z</time>
      </trkpt>
      <trkpt lat="41.12237" lon="-3.46856">
        <ele>1929.5</ele>
        <time>2014-04-27T10:30:42Z</time>
      </trkpt>
      <trkpt lat="41.12228" lon="-3.46852">
        <ele>1927.58</ele>
        <time>2014-04-27T10:30:55Z</time>
      </trkpt>
      <trkpt lat="41.12229" lon="-3.4685">
        <ele>1926.14</ele>
        <time>2014-04-27T10:31:12Z</time>
      </trkpt>
      <trkpt lat="41.12229" lon="-3.46847">
        <ele>1925.18</ele>
        <time>2014-04-27T10:31:23Z</time>
      </trkpt>
      <trkpt lat="41.12225" lon="-3.46846">
        <ele>1924.7</ele>
        <time>2014-04-27T10:31:39Z</time>
      </trkpt>
      <trkpt lat="41.12221" lon="-3.46847">
        <ele>1923.25</ele>
        <time>2014-04-27T10:31:52Z</time>
      </trkpt>
      <trkpt lat="41.12218" lon="-3.46845">
        <ele>1922.29</ele>
        <time>2014-04-27T10:32:03Z</time>
      </trkpt>
      <trkpt lat="41.12217" lon="-3.46844">
        <ele>1921.33</ele>
        <time>2014-04-27T10:32:17Z</time>
      </trkpt>
      <trkpt lat="41.12213" lon="-3.46844">
        <ele>1918.45</ele>
        <time>2014-04-27T10:32:29Z</time>
      </trkpt>
      <trkpt lat="41.1221" lon="-3.46844">
        <ele>1917.49</ele>
        <time>2014-04-27T10:32:39Z</time>
      </trkpt>
      <trkpt lat="41.1221" lon="-3.4684">
        <ele>1916.04</ele>
        <time>2014-04-27T10:32:51Z</time>
      </trkpt>
      <trkpt lat="41.12206" lon="-3.46839">
        <ele>1913.64</ele>
        <time>2014-04-27T10:33:01Z</time>
      </trkpt>
      <trkpt lat="41.12206" lon="-3.46837">
        <ele>1911.72</ele>
        <time>2014-04-27T10:33:12Z</time>
      </trkpt>
      <trkpt lat="41.12203" lon="-3.46832">
        <ele>1909.8</ele>
        <time>2014-04-27T10:33:24Z</time>
      </trkpt>
      <trkpt lat="41.12203" lon="-3.46829">
        <ele>1907.39</ele>
        <time>2014-04-27T10:33:37Z</time>
      </trkpt>
      <trkpt lat="41.12205" lon="-3.46824">
        <ele>1907.39</ele>
        <time>2014-04-27T10:33:50Z</time>
      </trkpt>
      <trkpt lat="41.12202" lon="-3.46822">
        <ele>1905.95</ele>
        <time>2014-04-27T10:34:01Z</time>
      </trkpt>
      <trkpt lat="41.12198" lon="-3.46821">
        <ele>1903.07</ele>
        <time>2014-04-27T10:34:13Z</time>
      </trkpt>
      <trkpt lat="41.12201" lon="-3.46819">
        <ele>1901.63</ele>
        <time>2014-04-27T10:34:25Z</time>
      </trkpt>
      <trkpt lat="41.12197" lon="-3.46817">
        <ele>1899.7</ele>
        <time>2014-04-27T10:34:37Z</time>
      </trkpt>
      <trkpt lat="41.12194" lon="-3.46813">
        <ele>1897.3</ele>
        <time>2014-04-27T10:34:48Z</time>
      </trkpt>
      <trkpt lat="41.12188" lon="-3.46811">
        <ele>1894.9</ele>
        <time>2014-04-27T10:34:56Z</time>
      </trkpt>
      <trkpt lat="41.12183" lon="-3.46808">
        <ele>1892.97</ele>
        <time>2014-04-27T10:35:02Z</time>
      </trkpt>
      <trkpt lat="41.12174" lon="-3.46803">
        <ele>1889.61</ele>
        <time>2014-04-27T10:35:13Z</time>
      </trkpt>
      <trkpt lat="41.12173" lon="-3.46795">
        <ele>1886.72</ele>
        <time>2014-04-27T10:35:22Z</time>
      </trkpt>
      <trkpt lat="41.12164" lon="-3.46792">
        <ele>1883.84</ele>
        <time>2014-04-27T10:35:35Z</time>
      </trkpt>
      <trkpt lat="41.12163" lon="-3.46792">
        <ele>1883.36</ele>
        <time>2014-04-27T10:35:36Z</time>
      </trkpt>
      <trkpt lat="41.12162" lon="-3.46788">
        <ele>1880.48</ele>
        <time>2014-04-27T10:35:46Z</time>
      </trkpt>
      <trkpt lat="41.12154" lon="-3.46786">
        <ele>1878.55</ele>
        <time>2014-04-27T10:35:56Z</time>
      </trkpt>
      <trkpt lat="41.1215" lon="-3.46785">
        <ele>1877.59</ele>
        <time>2014-04-27T10:36:02Z</time>
      </trkpt>
      <trkpt lat="41.12146" lon="-3.46785">
        <ele>1877.11</ele>
        <time>2014-04-27T10:36:11Z</time>
      </trkpt>
      <trkpt lat="41.12136" lon="-3.4678">
        <ele>1874.23</ele>
        <time>2014-04-27T10:36:25Z</time>
      </trkpt>
      <trkpt lat="41.12132" lon="-3.46776">
        <ele>1875.19</ele>
        <time>2014-04-27T10:36:34Z</time>
      </trkpt>
      <trkpt lat="41.12128" lon="-3.46773">
        <ele>1872.79</ele>
        <time>2014-04-27T10:36:41Z</time>
      </trkpt>
      <trkpt lat="41.12126" lon="-3.46771">
        <ele>1871.34</ele>
        <time>2014-04-27T10:36:45Z</time>
      </trkpt>
      <trkpt lat="41.12123" lon="-3.46771">
        <ele>1870.38</ele>
        <time>2014-04-27T10:36:47Z</time>
      </trkpt>
      <trkpt lat="41.12118" lon="-3.46768">
        <ele>1867.98</ele>
        <time>2014-04-27T10:36:55Z</time>
      </trkpt>
      <trkpt lat="41.12115" lon="-3.46766">
        <ele>1867.02</ele>
        <time>2014-04-27T10:36:59Z</time>
      </trkpt>
      <trkpt lat="41.12115" lon="-3.46763">
        <ele>1866.54</ele>
        <time>2014-04-27T10:37:01Z</time>
      </trkpt>
      <trkpt lat="41.12105" lon="-3.46759">
        <ele>1862.69</ele>
        <time>2014-04-27T10:37:14Z</time>
      </trkpt>
      <trkpt lat="41.12102" lon="-3.46759">
        <ele>1861.73</ele>
        <time>2014-04-27T10:37:17Z</time>
      </trkpt>
      <trkpt lat="41.12098" lon="-3.46754">
        <ele>1860.29</ele>
        <time>2014-04-27T10:37:25Z</time>
      </trkpt>
      <trkpt lat="41.12096" lon="-3.46752">
        <ele>1858.37</ele>
        <time>2014-04-27T10:37:28Z</time>
      </trkpt>
      <trkpt lat="41.12096" lon="-3.46752">
        <ele>1858.37</ele>
        <time>2014-04-27T10:37:29Z</time>
      </trkpt>
      <trkpt lat="41.12092" lon="-3.46742">
        <ele>1855</ele>
        <time>2014-04-27T10:37:39Z</time>
      </trkpt>
      <trkpt lat="41.12087" lon="-3.46736">
        <ele>1852.6</ele>
        <time>2014-04-27T10:37:48Z</time>
      </trkpt>
      <trkpt lat="41.12086" lon="-3.46724">
        <ele>1849.71</ele>
        <time>2014-04-27T10:38:00Z</time>
      </trkpt>
      <trkpt lat="41.12082" lon="-3.46715">
        <ele>1847.31</ele>
        <time>2014-04-27T10:38:10Z</time>
      </trkpt>
      <trkpt lat="41.12072" lon="-3.46709">
        <ele>1843.95</ele>
        <time>2014-04-27T10:38:22Z</time>
      </trkpt>
      <trkpt lat="41.12071" lon="-3.46704">
        <ele>1842.02</ele>
        <time>2014-04-27T10:38:28Z</time>
      </trkpt>
      <trkpt lat="41.12062" lon="-3.46695">
        <ele>1839.14</ele>
        <time>2014-04-27T10:38:40Z</time>
      </trkpt>
      <trkpt lat="41.12053" lon="-3.46686">
        <ele>1836.26</ele>
        <time>2014-04-27T10:38:53Z</time>
      </trkpt>
      <trkpt lat="41.12051" lon="-3.46681">
        <ele>1834.33</ele>
        <time>2014-04-27T10:39:04Z</time>
      </trkpt>
      <trkpt lat="41.1205" lon="-3.46678">
        <ele>1833.85</ele>
        <time>2014-04-27T10:39:08Z</time>
      </trkpt>
      <trkpt lat="41.12042" lon="-3.46676">
        <ele>1830.01</ele>
        <time>2014-04-27T10:39:20Z</time>
      </trkpt>
      <trkpt lat="41.12041" lon="-3.46676">
        <ele>1829.53</ele>
        <time>2014-04-27T10:39:22Z</time>
      </trkpt>
      <trkpt lat="41.12036" lon="-3.46673">
        <ele>1828.08</ele>
        <time>2014-04-27T10:39:28Z</time>
      </trkpt>
      <trkpt lat="41.12031" lon="-3.46669">
        <ele>1826.64</ele>
        <time>2014-04-27T10:39:34Z</time>
      </trkpt>
      <trkpt lat="41.1203" lon="-3.46668">
        <ele>1826.16</ele>
        <time>2014-04-27T10:39:36Z</time>
      </trkpt>
      <trkpt lat="41.12024" lon="-3.46659">
        <ele>1823.76</ele>
        <time>2014-04-27T10:39:49Z</time>
      </trkpt>
      <trkpt lat="41.12023" lon="-3.46656">
        <ele>1823.76</ele>
        <time>2014-04-27T10:39:51Z</time>
      </trkpt>
      <trkpt lat="41.12019" lon="-3.4665">
        <ele>1821.35</ele>
        <time>2014-04-27T10:40:03Z</time>
      </trkpt>
      <trkpt lat="41.12016" lon="-3.46648">
        <ele>1818.95</ele>
        <time>2014-04-27T10:40:08Z</time>
      </trkpt>
      <trkpt lat="41.12014" lon="-3.46648">
        <ele>1817.03</ele>
        <time>2014-04-27T10:40:12Z</time>
      </trkpt>
      <trkpt lat="41.12011" lon="-3.46648">
        <ele>1816.07</ele>
        <time>2014-04-27T10:40:17Z</time>
      </trkpt>
      <trkpt lat="41.12006" lon="-3.4665">
        <ele>1814.15</ele>
        <time>2014-04-27T10:40:23Z</time>
      </trkpt>
      <trkpt lat="41.11999" lon="-3.46647">
        <ele>1810.78</ele>
        <time>2014-04-27T10:40:33Z</time>
      </trkpt>
      <trkpt lat="41.11993" lon="-3.46645">
        <ele>1808.38</ele>
        <time>2014-04-27T10:40:42Z</time>
      </trkpt>
      <trkpt lat="41.1199" lon="-3.46641">
        <ele>1807.42</ele>
        <time>2014-04-27T10:40:46Z</time>
      </trkpt>
      <trkpt lat="41.11986" lon="-3.46637">
        <ele>1805.97</ele>
        <time>2014-04-27T10:40:52Z</time>
      </trkpt>
      <trkpt lat="41.11983" lon="-3.46635">
        <ele>1805.49</ele>
        <time>2014-04-27T10:40:56Z</time>
      </trkpt>
      <trkpt lat="41.11975" lon="-3.46627">
        <ele>1802.13</ele>
        <time>2014-04-27T10:41:08Z</time>
      </trkpt>
      <trkpt lat="41.11973" lon="-3.46626">
        <ele>1801.17</ele>
        <time>2014-04-27T10:41:16Z</time>
      </trkpt>
      <trkpt lat="41.11971" lon="-3.46619">
        <ele>1799.24</ele>
        <time>2014-04-27T10:41:27Z</time>
      </trkpt>
      <trkpt lat="41.11967" lon="-3.46615">
        <ele>1796.84</ele>
        <time>2014-04-27T10:41:39Z</time>
      </trkpt>
      <trkpt lat="41.11966" lon="-3.46614">
        <ele>1796.84</ele>
        <time>2014-04-27T10:41:41Z</time>
      </trkpt>
      <trkpt lat="41.11966" lon="-3.46612">
        <ele>1796.36</ele>
        <time>2014-04-27T10:41:43Z</time>
      </trkpt>
      <trkpt lat="41.11961" lon="-3.46605">
        <ele>1793.96</ele>
        <time>2014-04-27T10:41:52Z</time>
      </trkpt>
      <trkpt lat="41.11958" lon="-3.46601">
        <ele>1793</ele>
        <time>2014-04-27T10:41:58Z</time>
      </trkpt>
      <trkpt lat="41.11955" lon="-3.46598">
        <ele>1791.55</ele>
        <time>2014-04-27T10:42:03Z</time>
      </trkpt>
      <trkpt lat="41.11953" lon="-3.46597">
        <ele>1791.07</ele>
        <time>2014-04-27T10:42:05Z</time>
      </trkpt>
      <trkpt lat="41.11942" lon="-3.46584">
        <ele>1788.67</ele>
        <time>2014-04-27T10:42:19Z</time>
      </trkpt>
      <trkpt lat="41.11938" lon="-3.46578">
        <ele>1785.79</ele>
        <time>2014-04-27T10:42:30Z</time>
      </trkpt>
      <trkpt lat="41.11937" lon="-3.46573">
        <ele>1783.38</ele>
        <time>2014-04-27T10:42:37Z</time>
      </trkpt>
      <trkpt lat="41.11936" lon="-3.46569">
        <ele>1781.94</ele>
        <time>2014-04-27T10:42:42Z</time>
      </trkpt>
      <trkpt lat="41.11936" lon="-3.46553">
        <ele>1778.1</ele>
        <time>2014-04-27T10:42:55Z</time>
      </trkpt>
      <trkpt lat="41.11933" lon="-3.46552">
        <ele>1777.61</ele>
        <time>2014-04-27T10:42:58Z</time>
      </trkpt>
      <trkpt lat="41.11932" lon="-3.46546">
        <ele>1776.65</ele>
        <time>2014-04-27T10:43:04Z</time>
      </trkpt>
      <trkpt lat="41.11929" lon="-3.46539">
        <ele>1774.73</ele>
        <time>2014-04-27T10:43:14Z</time>
      </trkpt>
      <trkpt lat="41.11928" lon="-3.46536">
        <ele>1774.25</ele>
        <time>2014-04-27T10:43:16Z</time>
      </trkpt>
      <trkpt lat="41.11925" lon="-3.46533">
        <ele>1775.21</ele>
        <time>2014-04-27T10:43:20Z</time>
      </trkpt>
      <trkpt lat="41.11925" lon="-3.46532">
        <ele>1773.29</ele>
        <time>2014-04-27T10:43:27Z</time>
      </trkpt>
      <trkpt lat="41.11925" lon="-3.46526">
        <ele>1771.85</ele>
        <time>2014-04-27T10:43:36Z</time>
      </trkpt>
      <trkpt lat="41.11924" lon="-3.4652">
        <ele>1769.92</ele>
        <time>2014-04-27T10:43:40Z</time>
      </trkpt>
      <trkpt lat="41.11923" lon="-3.46506">
        <ele>1766.56</ele>
        <time>2014-04-27T10:43:50Z</time>
      </trkpt>
      <trkpt lat="41.11917" lon="-3.46493">
        <ele>1763.2</ele>
        <time>2014-04-27T10:44:00Z</time>
      </trkpt>
      <trkpt lat="41.11916" lon="-3.46489">
        <ele>1762.71</ele>
        <time>2014-04-27T10:44:03Z</time>
      </trkpt>
      <trkpt lat="41.11914" lon="-3.46483">
        <ele>1760.79</ele>
        <time>2014-04-27T10:44:15Z</time>
      </trkpt>
      <trkpt lat="41.1191" lon="-3.46482">
        <ele>1760.31</ele>
        <time>2014-04-27T10:44:31Z</time>
      </trkpt>
      <trkpt lat="41.11893" lon="-3.46466">
        <ele>1757.91</ele>
        <time>2014-04-27T10:44:47Z</time>
      </trkpt>
      <trkpt lat="41.11878" lon="-3.46447">
        <ele>1756.47</ele>
        <time>2014-04-27T10:45:03Z</time>
      </trkpt>
      <trkpt lat="41.11868" lon="-3.46424">
        <ele>1754.06</ele>
        <time>2014-04-27T10:45:19Z</time>
      </trkpt>
      <trkpt lat="41.11853" lon="-3.46406">
        <ele>1751.66</ele>
        <time>2014-04-27T10:45:34Z</time>
      </trkpt>
      <trkpt lat="41.11836" lon="-3.46392">
        <ele>1749.74</ele>
        <time>2014-04-27T10:45:49Z</time>
      </trkpt>
      <trkpt lat="41.11835" lon="-3.46391">
        <ele>1749.26</ele>
        <time>2014-04-27T10:45:50Z</time>
      </trkpt>
      <trkpt lat="41.11818" lon="-3.46376">
        <ele>1746.37</ele>
        <time>2014-04-27T10:46:05Z</time>
      </trkpt>
      <trkpt lat="41.11801" lon="-3.46357">
        <ele>1743.49</ele>
        <time>2014-04-27T10:46:20Z</time>
      </trkpt>
      <trkpt lat="41.11783" lon="-3.46342">
        <ele>1741.08</ele>
        <time>2014-04-27T10:46:35Z</time>
      </trkpt>
      <trkpt lat="41.11756" lon="-3.46326">
        <ele>1741.08</ele>
        <time>2014-04-27T10:46:56Z</time>
      </trkpt>
      <trkpt lat="41.11742" lon="-3.4631">
        <ele>1741.08</ele>
        <time>2014-04-27T10:47:09Z</time>
      </trkpt>
      <trkpt lat="41.11725" lon="-3.46289">
        <ele>1741.57</ele>
        <time>2014-04-27T10:47:25Z</time>
      </trkpt>
      <trkpt lat="41.11709" lon="-3.46272">
        <ele>1741.57</ele>
        <time>2014-04-27T10:47:40Z</time>
      </trkpt>
      <trkpt lat="41.11689" lon="-3.46258">
        <ele>1742.53</ele>
        <time>2014-04-27T10:47:55Z</time>
      </trkpt>
      <trkpt lat="41.11664" lon="-3.46247">
        <ele>1742.53</ele>
        <time>2014-04-27T10:48:13Z</time>
      </trkpt>
      <trkpt lat="41.11643" lon="-3.46231">
        <ele>1742.53</ele>
        <time>2014-04-27T10:48:30Z</time>
      </trkpt>
      <trkpt lat="41.11623" lon="-3.46215">
        <ele>1742.05</ele>
        <time>2014-04-27T10:48:47Z</time>
      </trkpt>
      <trkpt lat="41.11602" lon="-3.462">
        <ele>1740.6</ele>
        <time>2014-04-27T10:49:05Z</time>
      </trkpt>
      <trkpt lat="41.11579" lon="-3.46186">
        <ele>1739.16</ele>
        <time>2014-04-27T10:49:22Z</time>
      </trkpt>
      <trkpt lat="41.11557" lon="-3.4617">
        <ele>1736.28</ele>
        <time>2014-04-27T10:49:40Z</time>
      </trkpt>
      <trkpt lat="41.11534" lon="-3.46151">
        <ele>1734.84</ele>
        <time>2014-04-27T10:49:59Z</time>
      </trkpt>
      <trkpt lat="41.1152" lon="-3.46141">
        <ele>1733.88</ele>
        <time>2014-04-27T10:50:12Z</time>
      </trkpt>
      <trkpt lat="41.11521" lon="-3.46143">
        <ele>1733.88</ele>
        <time>2014-04-27T10:50:16Z</time>
      </trkpt>
      <trkpt lat="41.11505" lon="-3.46126">
        <ele>1732.91</ele>
        <time>2014-04-27T10:50:31Z</time>
      </trkpt>
      <trkpt lat="41.11493" lon="-3.46115">
        <ele>1732.43</ele>
        <time>2014-04-27T10:50:41Z</time>
      </trkpt>
      <trkpt lat="41.11488" lon="-3.46106">
        <ele>1731.47</ele>
        <time>2014-04-27T10:50:47Z</time>
      </trkpt>
      <trkpt lat="41.11474" lon="-3.46082">
        <ele>1729.07</ele>
        <time>2014-04-27T10:51:03Z</time>
      </trkpt>
      <trkpt lat="41.11459" lon="-3.46058">
        <ele>1725.7</ele>
        <time>2014-04-27T10:51:19Z</time>
      </trkpt>
      <trkpt lat="41.11447" lon="-3.4604">
        <ele>1724.74</ele>
        <time>2014-04-27T10:51:32Z</time>
      </trkpt>
      <trkpt lat="41.11435" lon="-3.46014">
        <ele>1722.82</ele>
        <time>2014-04-27T10:51:47Z</time>
      </trkpt>
      <trkpt lat="41.11424" lon="-3.45984">
        <ele>1721.86</ele>
        <time>2014-04-27T10:52:04Z</time>
      </trkpt>
      <trkpt lat="41.11418" lon="-3.45954">
        <ele>1722.34</ele>
        <time>2014-04-27T10:52:21Z</time>
      </trkpt>
      <trkpt lat="41.11415" lon="-3.45916">
        <ele>1720.42</ele>
        <time>2014-04-27T10:52:41Z</time>
      </trkpt>
      <trkpt lat="41.11403" lon="-3.45894">
        <ele>1717.53</ele>
        <time>2014-04-27T10:52:56Z</time>
      </trkpt>
      <trkpt lat="41.11389" lon="-3.45879">
        <ele>1714.17</ele>
        <time>2014-04-27T10:53:09Z</time>
      </trkpt>
      <trkpt lat="41.11388" lon="-3.45879">
        <ele>1713.69</ele>
        <time>2014-04-27T10:53:10Z</time>
      </trkpt>
      <trkpt lat="41.11383" lon="-3.45875">
        <ele>1712.73</ele>
        <time>2014-04-27T10:53:15Z</time>
      </trkpt>
      <trkpt lat="41.11369" lon="-3.45866">
        <ele>1709.36</ele>
        <time>2014-04-27T10:53:27Z</time>
      </trkpt>
      <trkpt lat="41.11348" lon="-3.45849">
        <ele>1707.92</ele>
        <time>2014-04-27T10:53:45Z</time>
      </trkpt>
      <trkpt lat="41.11328" lon="-3.45828">
        <ele>1706</ele>
        <time>2014-04-27T10:54:03Z</time>
      </trkpt>
      <trkpt lat="41.11327" lon="-3.45802">
        <ele>1703.59</ele>
        <time>2014-04-27T10:54:19Z</time>
      </trkpt>
      <trkpt lat="41.11327" lon="-3.45799">
        <ele>1703.11</ele>
        <time>2014-04-27T10:54:21Z</time>
      </trkpt>
      <trkpt lat="41.11329" lon="-3.45793">
        <ele>1702.15</ele>
        <time>2014-04-27T10:54:25Z</time>
      </trkpt>
      <trkpt lat="41.11333" lon="-3.45762">
        <ele>1699.75</ele>
        <time>2014-04-27T10:54:41Z</time>
      </trkpt>
      <trkpt lat="41.11323" lon="-3.45734">
        <ele>1699.27</ele>
        <time>2014-04-27T10:54:56Z</time>
      </trkpt>
      <trkpt lat="41.11321" lon="-3.45718">
        <ele>1697.83</ele>
        <time>2014-04-27T10:55:05Z</time>
      </trkpt>
      <trkpt lat="41.11318" lon="-3.45702">
        <ele>1694.94</ele>
        <time>2014-04-27T10:55:20Z</time>
      </trkpt>
      <trkpt lat="41.11321" lon="-3.45684">
        <ele>1694.94</ele>
        <time>2014-04-27T10:55:37Z</time>
      </trkpt>
      <trkpt lat="41.11323" lon="-3.45668">
        <ele>1695.42</ele>
        <time>2014-04-27T10:55:46Z</time>
      </trkpt>
      <trkpt lat="41.11319" lon="-3.45639">
        <ele>1696.86</ele>
        <time>2014-04-27T10:56:03Z</time>
      </trkpt>
      <trkpt lat="41.11309" lon="-3.45609">
        <ele>1694.46</ele>
        <time>2014-04-27T10:56:21Z</time>
      </trkpt>
      <trkpt lat="41.11299" lon="-3.45588">
        <ele>1693.98</ele>
        <time>2014-04-27T10:56:35Z</time>
      </trkpt>
      <trkpt lat="41.11282" lon="-3.45565">
        <ele>1693.5</ele>
        <time>2014-04-27T10:56:52Z</time>
      </trkpt>
      <trkpt lat="41.11265" lon="-3.45537">
        <ele>1691.58</ele>
        <time>2014-04-27T10:57:12Z</time>
      </trkpt>
      <trkpt lat="41.11259" lon="-3.45516">
        <ele>1688.69</ele>
        <time>2014-04-27T10:57:26Z</time>
      </trkpt>
      <trkpt lat="41.11258" lon="-3.45502">
        <ele>1685.81</ele>
        <time>2014-04-27T10:57:35Z</time>
      </trkpt>
      <trkpt lat="41.11257" lon="-3.45489">
        <ele>1682.44</ele>
        <time>2014-04-27T10:57:43Z</time>
      </trkpt>
      <trkpt lat="41.11255" lon="-3.45469">
        <ele>1679.08</ele>
        <time>2014-04-27T10:57:55Z</time>
      </trkpt>
      <trkpt lat="41.11245" lon="-3.4544">
        <ele>1676.2</ele>
        <time>2014-04-27T10:58:11Z</time>
      </trkpt>
      <trkpt lat="41.11238" lon="-3.45438">
        <ele>1675.23</ele>
        <time>2014-04-27T10:58:17Z</time>
      </trkpt>
      <trkpt lat="41.11218" lon="-3.45453">
        <ele>1671.87</ele>
        <time>2014-04-27T10:58:32Z</time>
      </trkpt>
      <trkpt lat="41.11204" lon="-3.45474">
        <ele>1668.99</ele>
        <time>2014-04-27T10:58:48Z</time>
      </trkpt>
      <trkpt lat="41.1119" lon="-3.45501">
        <ele>1666.58</ele>
        <time>2014-04-27T10:59:06Z</time>
      </trkpt>
      <trkpt lat="41.11178" lon="-3.45515">
        <ele>1663.7</ele>
        <time>2014-04-27T10:59:21Z</time>
      </trkpt>
      <trkpt lat="41.11179" lon="-3.45514">
        <ele>1663.22</ele>
        <time>2014-04-27T10:59:38Z</time>
      </trkpt>
      <trkpt lat="41.11179" lon="-3.45515">
        <ele>1663.7</ele>
        <time>2014-04-27T10:59:48Z</time>
      </trkpt>
      <trkpt lat="41.11176" lon="-3.45504">
        <ele>1662.74</ele>
        <time>2014-04-27T10:59:54Z</time>
      </trkpt>
      <trkpt lat="41.11173" lon="-3.4549">
        <ele>1660.33</ele>
        <time>2014-04-27T11:00:03Z</time>
      </trkpt>
      <trkpt lat="41.11173" lon="-3.45473">
        <ele>1657.45</ele>
        <time>2014-04-27T11:00:13Z</time>
      </trkpt>
      <trkpt lat="41.11172" lon="-3.45464">
        <ele>1655.53</ele>
        <time>2014-04-27T11:00:18Z</time>
      </trkpt>
      <trkpt lat="41.11169" lon="-3.45457">
        <ele>1654.09</ele>
        <time>2014-04-27T11:00:22Z</time>
      </trkpt>
      <trkpt lat="41.11161" lon="-3.45452">
        <ele>1652.16</ele>
        <time>2014-04-27T11:00:29Z</time>
      </trkpt>
      <trkpt lat="41.11151" lon="-3.4546">
        <ele>1650.24</ele>
        <time>2014-04-27T11:00:37Z</time>
      </trkpt>
      <trkpt lat="41.11135" lon="-3.45485">
        <ele>1646.88</ele>
        <time>2014-04-27T11:00:54Z</time>
      </trkpt>
      <trkpt lat="41.11125" lon="-3.45509">
        <ele>1643.51</ele>
        <time>2014-04-27T11:01:10Z</time>
      </trkpt>
      <trkpt lat="41.1112" lon="-3.45528">
        <ele>1640.63</ele>
        <time>2014-04-27T11:01:23Z</time>
      </trkpt>
      <trkpt lat="41.11111" lon="-3.45551">
        <ele>1637.26</ele>
        <time>2014-04-27T11:01:38Z</time>
      </trkpt>
      <trkpt lat="41.1111" lon="-3.45574">
        <ele>1634.86</ele>
        <time>2014-04-27T11:01:51Z</time>
      </trkpt>
      <trkpt lat="41.1111" lon="-3.45584">
        <ele>1632.94</ele>
        <time>2014-04-27T11:01:57Z</time>
      </trkpt>
      <trkpt lat="41.1111" lon="-3.45587">
        <ele>1631.98</ele>
        <time>2014-04-27T11:01:59Z</time>
      </trkpt>
      <trkpt lat="41.1111" lon="-3.45603">
        <ele>1629.09</ele>
        <time>2014-04-27T11:02:08Z</time>
      </trkpt>
      <trkpt lat="41.11113" lon="-3.4562">
        <ele>1626.69</ele>
        <time>2014-04-27T11:02:18Z</time>
      </trkpt>
      <trkpt lat="41.11111" lon="-3.45626">
        <ele>1625.25</ele>
        <time>2014-04-27T11:02:22Z</time>
      </trkpt>
      <trkpt lat="41.11112" lon="-3.4563">
        <ele>1624.77</ele>
        <time>2014-04-27T11:02:25Z</time>
      </trkpt>
      <trkpt lat="41.11109" lon="-3.45635">
        <ele>1623.32</ele>
        <time>2014-04-27T11:02:29Z</time>
      </trkpt>
      <trkpt lat="41.111" lon="-3.45635">
        <ele>1620.92</ele>
        <time>2014-04-27T11:02:37Z</time>
      </trkpt>
      <trkpt lat="41.11096" lon="-3.45632">
        <ele>1619.48</ele>
        <time>2014-04-27T11:02:40Z</time>
      </trkpt>
      <trkpt lat="41.11093" lon="-3.4563">
        <ele>1618.52</ele>
        <time>2014-04-27T11:02:43Z</time>
      </trkpt>
      <trkpt lat="41.11089" lon="-3.45628">
        <ele>1617.56</ele>
        <time>2014-04-27T11:02:47Z</time>
      </trkpt>
      <trkpt lat="41.11075" lon="-3.45623">
        <ele>1614.19</ele>
        <time>2014-04-27T11:02:58Z</time>
      </trkpt>
      <trkpt lat="41.11058" lon="-3.45617">
        <ele>1611.31</ele>
        <time>2014-04-27T11:03:12Z</time>
      </trkpt>
      <trkpt lat="41.11041" lon="-3.45611">
        <ele>1607.94</ele>
        <time>2014-04-27T11:03:25Z</time>
      </trkpt>
      <trkpt lat="41.11026" lon="-3.45606">
        <ele>1605.06</ele>
        <time>2014-04-27T11:03:36Z</time>
      </trkpt>
      <trkpt lat="41.11012" lon="-3.45601">
        <ele>1602.17</ele>
        <time>2014-04-27T11:03:48Z</time>
      </trkpt>
      <trkpt lat="41.10998" lon="-3.45596">
        <ele>1598.81</ele>
        <time>2014-04-27T11:03:59Z</time>
      </trkpt>
      <trkpt lat="41.10983" lon="-3.45586">
        <ele>1595.45</ele>
        <time>2014-04-27T11:04:11Z</time>
      </trkpt>
      <trkpt lat="41.10969" lon="-3.45576">
        <ele>1592.56</ele>
        <time>2014-04-27T11:04:23Z</time>
      </trkpt>
      <trkpt lat="41.10955" lon="-3.45572">
        <ele>1590.16</ele>
        <time>2014-04-27T11:04:34Z</time>
      </trkpt>
      <trkpt lat="41.10946" lon="-3.45569">
        <ele>1588.24</ele>
        <time>2014-04-27T11:04:41Z</time>
      </trkpt>
      <trkpt lat="41.10931" lon="-3.45565">
        <ele>1584.87</ele>
        <time>2014-04-27T11:04:54Z</time>
      </trkpt>
      <trkpt lat="41.1093" lon="-3.45564">
        <ele>1584.87</ele>
        <time>2014-04-27T11:04:55Z</time>
      </trkpt>
      <trkpt lat="41.10925" lon="-3.45561">
        <ele>1583.43</ele>
        <time>2014-04-27T11:04:59Z</time>
      </trkpt>
      <trkpt lat="41.10922" lon="-3.4556">
        <ele>1582.47</ele>
        <time>2014-04-27T11:05:02Z</time>
      </trkpt>
      <trkpt lat="41.10907" lon="-3.45555">
        <ele>1579.1</ele>
        <time>2014-04-27T11:05:14Z</time>
      </trkpt>
      <trkpt lat="41.10891" lon="-3.45549">
        <ele>1576.22</ele>
        <time>2014-04-27T11:05:27Z</time>
      </trkpt>
      <trkpt lat="41.10876" lon="-3.45547">
        <ele>1572.85</ele>
        <time>2014-04-27T11:05:39Z</time>
      </trkpt>
      <trkpt lat="41.10862" lon="-3.45545">
        <ele>1570.45</ele>
        <time>2014-04-27T11:05:50Z</time>
      </trkpt>
      <trkpt lat="41.10857" lon="-3.45542">
        <ele>1569.49</ele>
        <time>2014-04-27T11:05:54Z</time>
      </trkpt>
      <trkpt lat="41.1084" lon="-3.45537">
        <ele>1566.61</ele>
        <time>2014-04-27T11:06:08Z</time>
      </trkpt>
      <trkpt lat="41.10821" lon="-3.45534">
        <ele>1563.72</ele>
        <time>2014-04-27T11:06:22Z</time>
      </trkpt>
      <trkpt lat="41.10818" lon="-3.45534">
        <ele>1563.24</ele>
        <time>2014-04-27T11:06:24Z</time>
      </trkpt>
      <trkpt lat="41.10811" lon="-3.45533">
        <ele>1562.28</ele>
        <time>2014-04-27T11:06:29Z</time>
      </trkpt>
      <trkpt lat="41.10792" lon="-3.4553">
        <ele>1558.43</ele>
        <time>2014-04-27T11:06:43Z</time>
      </trkpt>
      <trkpt lat="41.10783" lon="-3.45529">
        <ele>1557.47</ele>
        <time>2014-04-27T11:06:50Z</time>
      </trkpt>
      <trkpt lat="41.10774" lon="-3.45526">
        <ele>1555.55</ele>
        <time>2014-04-27T11:06:57Z</time>
      </trkpt>
      <trkpt lat="41.10748" lon="-3.45522">
        <ele>1552.19</ele>
        <time>2014-04-27T11:07:15Z</time>
      </trkpt>
      <trkpt lat="41.10746" lon="-3.45522">
        <ele>1551.71</ele>
        <time>2014-04-27T11:07:17Z</time>
      </trkpt>
      <trkpt lat="41.10735" lon="-3.4552">
        <ele>1550.26</ele>
        <time>2014-04-27T11:07:25Z</time>
      </trkpt>
      <trkpt lat="41.10718" lon="-3.45519">
        <ele>1546.42</ele>
        <time>2014-04-27T11:07:38Z</time>
      </trkpt>
      <trkpt lat="41.10702" lon="-3.45519">
        <ele>1543.53</ele>
        <time>2014-04-27T11:07:50Z</time>
      </trkpt>
      <trkpt lat="41.10686" lon="-3.45524">
        <ele>1540.17</ele>
        <time>2014-04-27T11:08:03Z</time>
      </trkpt>
      <trkpt lat="41.10679" lon="-3.45526">
        <ele>1538.73</ele>
        <time>2014-04-27T11:08:08Z</time>
      </trkpt>
      <trkpt lat="41.10665" lon="-3.45533">
        <ele>1535.36</ele>
        <time>2014-04-27T11:08:19Z</time>
      </trkpt>
      <trkpt lat="41.10647" lon="-3.45541">
        <ele>1532.48</ele>
        <time>2014-04-27T11:08:33Z</time>
      </trkpt>
      <trkpt lat="41.10636" lon="-3.45555">
        <ele>1529.11</ele>
        <time>2014-04-27T11:08:46Z</time>
      </trkpt>
      <trkpt lat="41.10633" lon="-3.45565">
        <ele>1528.63</ele>
        <time>2014-04-27T11:08:59Z</time>
      </trkpt>
      <trkpt lat="41.10633" lon="-3.45567">
        <ele>1528.63</ele>
        <time>2014-04-27T11:09:28Z</time>
      </trkpt>
      <trkpt lat="41.10637" lon="-3.45568">
        <ele>1528.63</ele>
        <time>2014-04-27T11:09:43Z</time>
      </trkpt>
      <trkpt lat="41.10642" lon="-3.4557">
        <ele>1527.67</ele>
        <time>2014-04-27T11:09:47Z</time>
      </trkpt>
      <trkpt lat="41.10655" lon="-3.4558">
        <ele>1526.71</ele>
        <time>2014-04-27T11:10:00Z</time>
      </trkpt>
      <trkpt lat="41.10656" lon="-3.45583">
        <ele>1525.27</ele>
        <time>2014-04-27T11:10:03Z</time>
      </trkpt>
      <trkpt lat="41.1066" lon="-3.45588">
        <ele>1524.31</ele>
        <time>2014-04-27T11:10:07Z</time>
      </trkpt>
      <trkpt lat="41.10661" lon="-3.45591">
        <ele>1523.83</ele>
        <time>2014-04-27T11:10:09Z</time>
      </trkpt>
      <trkpt lat="41.10672" lon="-3.45608">
        <ele>1521.42</ele>
        <time>2014-04-27T11:10:23Z</time>
      </trkpt>
      <trkpt lat="41.10679" lon="-3.45609">
        <ele>1520.46</ele>
        <time>2014-04-27T11:10:29Z</time>
      </trkpt>
      <trkpt lat="41.1068" lon="-3.45618">
        <ele>1518.54</ele>
        <time>2014-04-27T11:10:34Z</time>
      </trkpt>
      <trkpt lat="41.10677" lon="-3.45623">
        <ele>1518.06</ele>
        <time>2014-04-27T11:10:38Z</time>
      </trkpt>
      <trkpt lat="41.10675" lon="-3.45624">
        <ele>1517.58</ele>
        <time>2014-04-27T11:10:40Z</time>
      </trkpt>
      <trkpt lat="41.10668" lon="-3.45622">
        <ele>1516.14</ele>
        <time>2014-04-27T11:10:46Z</time>
      </trkpt>
      <trkpt lat="41.10658" lon="-3.45616">
        <ele>1514.69</ele>
        <time>2014-04-27T11:10:54Z</time>
      </trkpt>
      <trkpt lat="41.1064" lon="-3.45623">
        <ele>1511.81</ele>
        <time>2014-04-27T11:11:07Z</time>
      </trkpt>
      <trkpt lat="41.10626" lon="-3.45628">
        <ele>1507.97</ele>
        <time>2014-04-27T11:11:20Z</time>
      </trkpt>
      <trkpt lat="41.10621" lon="-3.45634">
        <ele>1506.04</ele>
        <time>2014-04-27T11:11:27Z</time>
      </trkpt>
      <trkpt lat="41.10621" lon="-3.45637">
        <ele>1505.56</ele>
        <time>2014-04-27T11:11:29Z</time>
      </trkpt>
      <trkpt lat="41.10622" lon="-3.4564">
        <ele>1505.08</ele>
        <time>2014-04-27T11:11:31Z</time>
      </trkpt>
      <trkpt lat="41.10626" lon="-3.45646">
        <ele>1504.12</ele>
        <time>2014-04-27T11:11:35Z</time>
      </trkpt>
      <trkpt lat="41.10629" lon="-3.45649">
        <ele>1503.64</ele>
        <time>2014-04-27T11:11:38Z</time>
      </trkpt>
      <trkpt lat="41.10636" lon="-3.45665">
        <ele>1501.24</ele>
        <time>2014-04-27T11:11:48Z</time>
      </trkpt>
      <trkpt lat="41.10641" lon="-3.45673">
        <ele>1499.79</ele>
        <time>2014-04-27T11:11:55Z</time>
      </trkpt>
      <trkpt lat="41.10648" lon="-3.45685">
        <ele>1498.35</ele>
        <time>2014-04-27T11:12:04Z</time>
      </trkpt>
      <trkpt lat="41.10655" lon="-3.45703">
        <ele>1495.47</ele>
        <time>2014-04-27T11:12:18Z</time>
      </trkpt>
      <trkpt lat="41.10668" lon="-3.45719">
        <ele>1492.58</ele>
        <time>2014-04-27T11:12:32Z</time>
      </trkpt>
      <trkpt lat="41.10679" lon="-3.45739">
        <ele>1489.7</ele>
        <time>2014-04-27T11:12:46Z</time>
      </trkpt>
      <trkpt lat="41.10691" lon="-3.45756">
        <ele>1487.3</ele>
        <time>2014-04-27T11:13:00Z</time>
      </trkpt>
      <trkpt lat="41.10694" lon="-3.45765">
        <ele>1485.37</ele>
        <time>2014-04-27T11:13:07Z</time>
      </trkpt>
      <trkpt lat="41.10706" lon="-3.45788">
        <ele>1482.01</ele>
        <time>2014-04-27T11:13:23Z</time>
      </trkpt>
      <trkpt lat="41.10707" lon="-3.45791">
        <ele>1482.01</ele>
        <time>2014-04-27T11:13:25Z</time>
      </trkpt>
      <trkpt lat="41.10719" lon="-3.4581">
        <ele>1479.13</ele>
        <time>2014-04-27T11:13:39Z</time>
      </trkpt>
      <trkpt lat="41.10723" lon="-3.45818">
        <ele>1478.65</ele>
        <time>2014-04-27T11:13:44Z</time>
      </trkpt>
      <trkpt lat="41.10724" lon="-3.45823">
        <ele>1478.16</ele>
        <time>2014-04-27T11:13:47Z</time>
      </trkpt>
      <trkpt lat="41.10735" lon="-3.45843">
        <ele>1476.72</ele>
        <time>2014-04-27T11:14:02Z</time>
      </trkpt>
      <trkpt lat="41.1075" lon="-3.4586">
        <ele>1473.36</ele>
        <time>2014-04-27T11:14:16Z</time>
      </trkpt>
      <trkpt lat="41.10755" lon="-3.45864">
        <ele>1472.4</ele>
        <time>2014-04-27T11:14:21Z</time>
      </trkpt>
      <trkpt lat="41.10762" lon="-3.4587">
        <ele>1470.95</ele>
        <time>2014-04-27T11:14:28Z</time>
      </trkpt>
      <trkpt lat="41.10763" lon="-3.45876">
        <ele>1469.99</ele>
        <time>2014-04-27T11:14:32Z</time>
      </trkpt>
      <trkpt lat="41.10761" lon="-3.4588">
        <ele>1469.03</ele>
        <time>2014-04-27T11:14:36Z</time>
      </trkpt>
      <trkpt lat="41.10758" lon="-3.45881">
        <ele>1468.07</ele>
        <time>2014-04-27T11:14:39Z</time>
      </trkpt>
      <trkpt lat="41.10746" lon="-3.45881">
        <ele>1465.67</ele>
        <time>2014-04-27T11:14:50Z</time>
      </trkpt>
      <trkpt lat="41.10739" lon="-3.45882">
        <ele>1464.23</ele>
        <time>2014-04-27T11:14:55Z</time>
      </trkpt>
      <trkpt lat="41.10732" lon="-3.45883">
        <ele>1462.3</ele>
        <time>2014-04-27T11:15:01Z</time>
      </trkpt>
      <trkpt lat="41.10715" lon="-3.45882">
        <ele>1458.94</ele>
        <time>2014-04-27T11:15:13Z</time>
      </trkpt>
      <trkpt lat="41.10713" lon="-3.45882">
        <ele>1458.94</ele>
        <time>2014-04-27T11:15:14Z</time>
      </trkpt>
      <trkpt lat="41.10702" lon="-3.45881">
        <ele>1456.53</ele>
        <time>2014-04-27T11:15:23Z</time>
      </trkpt>
      <trkpt lat="41.10685" lon="-3.45879">
        <ele>1453.17</ele>
        <time>2014-04-27T11:15:36Z</time>
      </trkpt>
      <trkpt lat="41.1067" lon="-3.45877">
        <ele>1449.81</ele>
        <time>2014-04-27T11:15:47Z</time>
      </trkpt>
      <trkpt lat="41.10664" lon="-3.45874">
        <ele>1448.36</ele>
        <time>2014-04-27T11:15:52Z</time>
      </trkpt>
      <trkpt lat="41.10647" lon="-3.45874">
        <ele>1445</ele>
        <time>2014-04-27T11:16:05Z</time>
      </trkpt>
      <trkpt lat="41.10646" lon="-3.45875">
        <ele>1445</ele>
        <time>2014-04-27T11:16:06Z</time>
      </trkpt>
      <trkpt lat="41.10644" lon="-3.45875">
        <ele>1444.52</ele>
        <time>2014-04-27T11:16:08Z</time>
      </trkpt>
      <trkpt lat="41.10638" lon="-3.45876">
        <ele>1443.08</ele>
        <time>2014-04-27T11:16:13Z</time>
      </trkpt>
      <trkpt lat="41.1063" lon="-3.45875">
        <ele>1441.15</ele>
        <time>2014-04-27T11:16:19Z</time>
      </trkpt>
      <trkpt lat="41.10627" lon="-3.45873">
        <ele>1440.67</ele>
        <time>2014-04-27T11:16:22Z</time>
      </trkpt>
      <trkpt lat="41.10625" lon="-3.45873">
        <ele>1440.19</ele>
        <time>2014-04-27T11:16:24Z</time>
      </trkpt>
      <trkpt lat="41.10617" lon="-3.45872">
        <ele>1438.27</ele>
        <time>2014-04-27T11:16:31Z</time>
      </trkpt>
      <trkpt lat="41.106" lon="-3.45873">
        <ele>1434.91</ele>
        <time>2014-04-27T11:16:44Z</time>
      </trkpt>
      <trkpt lat="41.10596" lon="-3.45873">
        <ele>1433.46</ele>
        <time>2014-04-27T11:16:47Z</time>
      </trkpt>
      <trkpt lat="41.10588" lon="-3.45878">
        <ele>1431.54</ele>
        <time>2014-04-27T11:16:55Z</time>
      </trkpt>
      <trkpt lat="41.10581" lon="-3.45878">
        <ele>1430.58</ele>
        <time>2014-04-27T11:17:00Z</time>
      </trkpt>
      <trkpt lat="41.10575" lon="-3.45881">
        <ele>1428.66</ele>
        <time>2014-04-27T11:17:05Z</time>
      </trkpt>
      <trkpt lat="41.10563" lon="-3.45889">
        <ele>1425.29</ele>
        <time>2014-04-27T11:17:15Z</time>
      </trkpt>
      <trkpt lat="41.10551" lon="-3.45903">
        <ele>1421.93</ele>
        <time>2014-04-27T11:17:28Z</time>
      </trkpt>
      <trkpt lat="41.10542" lon="-3.4591">
        <ele>1419.52</ele>
        <time>2014-04-27T11:17:37Z</time>
      </trkpt>
      <trkpt lat="41.1053" lon="-3.45925">
        <ele>1416.16</ele>
        <time>2014-04-27T11:17:50Z</time>
      </trkpt>
      <trkpt lat="41.10515" lon="-3.45942">
        <ele>1414.24</ele>
        <time>2014-04-27T11:18:04Z</time>
      </trkpt>
      <trkpt lat="41.10508" lon="-3.45951">
        <ele>1410.87</ele>
        <time>2014-04-27T11:18:11Z</time>
      </trkpt>
      <trkpt lat="41.10494" lon="-3.45967">
        <ele>1407.51</ele>
        <time>2014-04-27T11:18:24Z</time>
      </trkpt>
      <trkpt lat="41.10482" lon="-3.45978">
        <ele>1404.62</ele>
        <time>2014-04-27T11:18:36Z</time>
      </trkpt>
      <trkpt lat="41.10465" lon="-3.45981">
        <ele>1401.74</ele>
        <time>2014-04-27T11:18:48Z</time>
      </trkpt>
      <trkpt lat="41.10448" lon="-3.45987">
        <ele>1397.89</ele>
        <time>2014-04-27T11:19:01Z</time>
      </trkpt>
      <trkpt lat="41.10428" lon="-3.45987">
        <ele>1395.49</ele>
        <time>2014-04-27T11:19:16Z</time>
      </trkpt>
      <trkpt lat="41.10415" lon="-3.4599">
        <ele>1393.09</ele>
        <time>2014-04-27T11:19:30Z</time>
      </trkpt>
      <trkpt lat="41.10416" lon="-3.45991">
        <ele>1392.61</ele>
        <time>2014-04-27T11:19:59Z</time>
      </trkpt>
      <trkpt lat="41.10417" lon="-3.45995">
        <ele>1393.57</ele>
        <time>2014-04-27T11:20:05Z</time>
      </trkpt>
      <trkpt lat="41.10422" lon="-3.46">
        <ele>1390.68</ele>
        <time>2014-04-27T11:20:10Z</time>
      </trkpt>
      <trkpt lat="41.10424" lon="-3.46003">
        <ele>1389.72</ele>
        <time>2014-04-27T11:20:13Z</time>
      </trkpt>
      <trkpt lat="41.10422" lon="-3.46004">
        <ele>1389.72</ele>
        <time>2014-04-27T11:20:21Z</time>
      </trkpt>
      <trkpt lat="41.1042" lon="-3.46006">
        <ele>1388.76</ele>
        <time>2014-04-27T11:20:23Z</time>
      </trkpt>
      <trkpt lat="41.10408" lon="-3.46009">
        <ele>1384.44</ele>
        <time>2014-04-27T11:20:34Z</time>
      </trkpt>
      <trkpt lat="41.10403" lon="-3.46009">
        <ele>1382.99</ele>
        <time>2014-04-27T11:20:39Z</time>
      </trkpt>
      <trkpt lat="41.10391" lon="-3.46012">
        <ele>1380.11</ele>
        <time>2014-04-27T11:20:50Z</time>
      </trkpt>
      <trkpt lat="41.10389" lon="-3.46014">
        <ele>1380.11</ele>
        <time>2014-04-27T11:20:52Z</time>
      </trkpt>
      <trkpt lat="41.10382" lon="-3.46017">
        <ele>1378.19</ele>
        <time>2014-04-27T11:20:58Z</time>
      </trkpt>
      <trkpt lat="41.10362" lon="-3.46014">
        <ele>1375.3</ele>
        <time>2014-04-27T11:21:13Z</time>
      </trkpt>
      <trkpt lat="41.10358" lon="-3.46013">
        <ele>1374.34</ele>
        <time>2014-04-27T11:21:16Z</time>
      </trkpt>
      <trkpt lat="41.10348" lon="-3.46018">
        <ele>1371.94</ele>
        <time>2014-04-27T11:21:24Z</time>
      </trkpt>
      <trkpt lat="41.10335" lon="-3.46019">
        <ele>1369.54</ele>
        <time>2014-04-27T11:21:34Z</time>
      </trkpt>
      <trkpt lat="41.1032" lon="-3.46021">
        <ele>1366.65</ele>
        <time>2014-04-27T11:21:46Z</time>
      </trkpt>
      <trkpt lat="41.10307" lon="-3.46021">
        <ele>1364.25</ele>
        <time>2014-04-27T11:21:57Z</time>
      </trkpt>
      <trkpt lat="41.10295" lon="-3.46017">
        <ele>1362.33</ele>
        <time>2014-04-27T11:22:05Z</time>
      </trkpt>
      <trkpt lat="41.10283" lon="-3.46014">
        <ele>1359.92</ele>
        <time>2014-04-27T11:22:14Z</time>
      </trkpt>
      <trkpt lat="41.10269" lon="-3.46009">
        <ele>1357.04</ele>
        <time>2014-04-27T11:22:25Z</time>
      </trkpt>
      <trkpt lat="41.10259" lon="-3.46008">
        <ele>1355.12</ele>
        <time>2014-04-27T11:22:33Z</time>
      </trkpt>
      <trkpt lat="41.10243" lon="-3.46003">
        <ele>1351.75</ele>
        <time>2014-04-27T11:22:46Z</time>
      </trkpt>
      <trkpt lat="41.1024" lon="-3.46003">
        <ele>1351.75</ele>
        <time>2014-04-27T11:22:48Z</time>
      </trkpt>
      <trkpt lat="41.10226" lon="-3.46">
        <ele>1348.39</ele>
        <time>2014-04-27T11:23:00Z</time>
      </trkpt>
      <trkpt lat="41.10222" lon="-3.45999">
        <ele>1347.43</ele>
        <time>2014-04-27T11:23:04Z</time>
      </trkpt>
      <trkpt lat="41.10207" lon="-3.46004">
        <ele>1344.54</ele>
        <time>2014-04-27T11:23:17Z</time>
      </trkpt>
      <trkpt lat="41.10208" lon="-3.46012">
        <ele>1343.58</ele>
        <time>2014-04-27T11:23:21Z</time>
      </trkpt>
      <trkpt lat="41.10215" lon="-3.46029">
        <ele>1341.66</ele>
        <time>2014-04-27T11:23:33Z</time>
      </trkpt>
      <trkpt lat="41.10215" lon="-3.46033">
        <ele>1341.18</ele>
        <time>2014-04-27T11:23:36Z</time>
      </trkpt>
      <trkpt lat="41.10219" lon="-3.46045">
        <ele>1340.7</ele>
        <time>2014-04-27T11:23:42Z</time>
      </trkpt>
      <trkpt lat="41.10225" lon="-3.46071">
        <ele>1338.77</ele>
        <time>2014-04-27T11:23:56Z</time>
      </trkpt>
      <trkpt lat="41.10227" lon="-3.46085">
        <ele>1338.29</ele>
        <time>2014-04-27T11:24:03Z</time>
      </trkpt>
      <trkpt lat="41.10229" lon="-3.46118">
        <ele>1335.41</ele>
        <time>2014-04-27T11:24:21Z</time>
      </trkpt>
      <trkpt lat="41.10248" lon="-3.46139">
        <ele>1333.97</ele>
        <time>2014-04-27T11:24:37Z</time>
      </trkpt>
      <trkpt lat="41.1027" lon="-3.46155">
        <ele>1333.49</ele>
        <time>2014-04-27T11:24:54Z</time>
      </trkpt>
      <trkpt lat="41.10292" lon="-3.46176">
        <ele>1332.52</ele>
        <time>2014-04-27T11:25:13Z</time>
      </trkpt>
      <trkpt lat="41.10308" lon="-3.46195">
        <ele>1330.6</ele>
        <time>2014-04-27T11:25:27Z</time>
      </trkpt>
      <trkpt lat="41.1031" lon="-3.462">
        <ele>1330.12</ele>
        <time>2014-04-27T11:25:30Z</time>
      </trkpt>
      <trkpt lat="41.10307" lon="-3.46204">
        <ele>1329.16</ele>
        <time>2014-04-27T11:25:35Z</time>
      </trkpt>
      <trkpt lat="41.10292" lon="-3.46203">
        <ele>1325.8</ele>
        <time>2014-04-27T11:25:47Z</time>
      </trkpt>
      <trkpt lat="41.10272" lon="-3.46203">
        <ele>1323.39</ele>
        <time>2014-04-27T11:26:01Z</time>
      </trkpt>
      <trkpt lat="41.10252" lon="-3.46206">
        <ele>1320.51</ele>
        <time>2014-04-27T11:26:15Z</time>
      </trkpt>
      <trkpt lat="41.10233" lon="-3.46209">
        <ele>1317.14</ele>
        <time>2014-04-27T11:26:28Z</time>
      </trkpt>
      <trkpt lat="41.10207" lon="-3.46211">
        <ele>1314.26</ele>
        <time>2014-04-27T11:26:45Z</time>
      </trkpt>
      <trkpt lat="41.10183" lon="-3.46209">
        <ele>1311.38</ele>
        <time>2014-04-27T11:27:01Z</time>
      </trkpt>
      <trkpt lat="41.10162" lon="-3.46212">
        <ele>1308.49</ele>
        <time>2014-04-27T11:27:16Z</time>
      </trkpt>
      <trkpt lat="41.10143" lon="-3.4621">
        <ele>1306.09</ele>
        <time>2014-04-27T11:27:29Z</time>
      </trkpt>
      <trkpt lat="41.10119" lon="-3.46196">
        <ele>1302.72</ele>
        <time>2014-04-27T11:27:47Z</time>
      </trkpt>
      <trkpt lat="41.101" lon="-3.46181">
        <ele>1299.84</ele>
        <time>2014-04-27T11:28:02Z</time>
      </trkpt>
      <trkpt lat="41.10079" lon="-3.46168">
        <ele>1296.48</ele>
        <time>2014-04-27T11:28:17Z</time>
      </trkpt>
      <trkpt lat="41.10056" lon="-3.46155">
        <ele>1293.59</ele>
        <time>2014-04-27T11:28:32Z</time>
      </trkpt>
      <trkpt lat="41.10033" lon="-3.46147">
        <ele>1291.67</ele>
        <time>2014-04-27T11:28:46Z</time>
      </trkpt>
      <trkpt lat="41.1001" lon="-3.46137">
        <ele>1289.75</ele>
        <time>2014-04-27T11:29:00Z</time>
      </trkpt>
      <trkpt lat="41.09988" lon="-3.46132">
        <ele>1286.86</ele>
        <time>2014-04-27T11:29:15Z</time>
      </trkpt>
      <trkpt lat="41.09968" lon="-3.46147">
        <ele>1285.9</ele>
        <time>2014-04-27T11:29:30Z</time>
      </trkpt>
      <trkpt lat="41.09955" lon="-3.46173">
        <ele>1285.42</ele>
        <time>2014-04-27T11:29:46Z</time>
      </trkpt>
      <trkpt lat="41.09952" lon="-3.46181">
        <ele>1284.94</ele>
        <time>2014-04-27T11:29:51Z</time>
      </trkpt>
      <trkpt lat="41.09938" lon="-3.46211">
        <ele>1284.94</ele>
        <time>2014-04-27T11:30:07Z</time>
      </trkpt>
      <trkpt lat="41.09925" lon="-3.46242">
        <ele>1285.42</ele>
        <time>2014-04-27T11:30:25Z</time>
      </trkpt>
      <trkpt lat="41.09918" lon="-3.46262">
        <ele>1285.42</ele>
        <time>2014-04-27T11:30:36Z</time>
      </trkpt>
      <trkpt lat="41.09908" lon="-3.46295">
        <ele>1285.9</ele>
        <time>2014-04-27T11:30:53Z</time>
      </trkpt>
      <trkpt lat="41.09895" lon="-3.46322">
        <ele>1286.86</ele>
        <time>2014-04-27T11:31:13Z</time>
      </trkpt>
      <trkpt lat="41.09889" lon="-3.46337">
        <ele>1286.86</ele>
        <time>2014-04-27T11:31:25Z</time>
      </trkpt>
      <trkpt lat="41.09888" lon="-3.46344">
        <ele>1287.82</ele>
        <time>2014-04-27T11:31:33Z</time>
      </trkpt>
      <trkpt lat="41.09884" lon="-3.46355">
        <ele>1287.82</ele>
        <time>2014-04-27T11:31:41Z</time>
      </trkpt>
      <trkpt lat="41.0989" lon="-3.46361">
        <ele>1288.3</ele>
        <time>2014-04-27T11:31:56Z</time>
      </trkpt>
      <trkpt lat="41.09884" lon="-3.46365">
        <ele>1288.3</ele>
        <time>2014-04-27T11:32:02Z</time>
      </trkpt>
      <trkpt lat="41.09865" lon="-3.46383">
        <ele>1288.3</ele>
        <time>2014-04-27T11:32:20Z</time>
      </trkpt>
      <trkpt lat="41.09856" lon="-3.46395">
        <ele>1288.3</ele>
        <time>2014-04-27T11:32:35Z</time>
      </trkpt>
    </trkseg>
  </trk>
</gpx>